<?xml version="1.0" encoding="UTF-8" standalone="no" ?>
<gpx xmlns="http://www.topografix.com/GPX/1/1" xmlns:xsi="http://www.w3.org/2001/XMLSchema-instance" xsi:schemaLocation="http://www.topografix.com/GPX/1/1 http://www.topografix.com/GPX/1/1/gpx.xsd" version="1.1" creator="VisuGPX - https://www.visugpx.com">
  <metadata>
    <name>RANDO MASSIAC CROIX DU CORBEAU 26 KM</name>
    <desc><![CDATA[RANDO MASSIAC CROIX DU CORBEAU 26 KM.DEPART ARRIVEE GARE DE MASSIAC.LE FAYET.AUZELARET.AUROUZE.TREMOLET.MOLOMPIZE.CROIX DU CORBEAU.LA BASTIDE.VEDRINES.BONNAC.POUZOL.]]></desc>
  </metadata>
  <trk>
    <name><![CDATA[2024-12-01 16:56:02]]></name>
    <desc><![CDATA[





]]></desc>
    <extensions>
      <line xmlns="http://www.topografix.com/GPX/gpx_style/0/2">
        <color>0000FF</color>
        <width>4</width>
      </line>
    </extensions>
    <trkseg>
      <trkpt lat="45.25316" lon="3.19556">
        <ele>545.2</ele>
        <time>2024-12-01T08:14:19Z</time>
      </trkpt>
      <trkpt lat="45.25331" lon="3.19524">
        <ele>544.24</ele>
        <time>2024-12-01T08:14:38Z</time>
      </trkpt>
      <trkpt lat="45.25332" lon="3.1952">
        <ele>544.24</ele>
        <time>2024-12-01T08:14:41Z</time>
      </trkpt>
      <trkpt lat="45.25336" lon="3.1951">
        <ele>546.65</ele>
        <time>2024-12-01T08:14:48Z</time>
      </trkpt>
      <trkpt lat="45.25344" lon="3.19488">
        <ele>549.05</ele>
        <time>2024-12-01T08:15:01Z</time>
      </trkpt>
      <trkpt lat="45.25342" lon="3.19479">
        <ele>550.49</ele>
        <time>2024-12-01T08:15:06Z</time>
      </trkpt>
      <trkpt lat="45.25335" lon="3.19452">
        <ele>551.45</ele>
        <time>2024-12-01T08:15:23Z</time>
      </trkpt>
      <trkpt lat="45.25331" lon="3.19431">
        <ele>550.97</ele>
        <time>2024-12-01T08:15:35Z</time>
      </trkpt>
      <trkpt lat="45.25309" lon="3.19428">
        <ele>549.53</ele>
        <time>2024-12-01T08:15:52Z</time>
      </trkpt>
      <trkpt lat="45.25284" lon="3.19431">
        <ele>548.57</ele>
        <time>2024-12-01T08:16:10Z</time>
      </trkpt>
      <trkpt lat="45.25263" lon="3.19426">
        <ele>547.13</ele>
        <time>2024-12-01T08:16:26Z</time>
      </trkpt>
      <trkpt lat="45.2525" lon="3.19419">
        <ele>546.65</ele>
        <time>2024-12-01T08:16:37Z</time>
      </trkpt>
      <trkpt lat="45.25249" lon="3.19386">
        <ele>544.24</ele>
        <time>2024-12-01T08:16:54Z</time>
      </trkpt>
      <trkpt lat="45.25255" lon="3.19349">
        <ele>544.24</ele>
        <time>2024-12-01T08:17:15Z</time>
      </trkpt>
      <trkpt lat="45.25266" lon="3.19309">
        <ele>544.72</ele>
        <time>2024-12-01T08:17:36Z</time>
      </trkpt>
      <trkpt lat="45.25276" lon="3.19267">
        <ele>546.17</ele>
        <time>2024-12-01T08:17:58Z</time>
      </trkpt>
      <trkpt lat="45.25276" lon="3.19261">
        <ele>546.65</ele>
        <time>2024-12-01T08:18:01Z</time>
      </trkpt>
      <trkpt lat="45.25273" lon="3.19254">
        <ele>545.69</ele>
        <time>2024-12-01T08:18:05Z</time>
      </trkpt>
      <trkpt lat="45.25253" lon="3.19241">
        <ele>545.2</ele>
        <time>2024-12-01T08:18:24Z</time>
      </trkpt>
      <trkpt lat="45.25226" lon="3.19227">
        <ele>546.65</ele>
        <time>2024-12-01T08:18:45Z</time>
      </trkpt>
      <trkpt lat="45.25202" lon="3.19216">
        <ele>548.57</ele>
        <time>2024-12-01T08:19:03Z</time>
      </trkpt>
      <trkpt lat="45.25177" lon="3.19206">
        <ele>550.49</ele>
        <time>2024-12-01T08:19:22Z</time>
      </trkpt>
      <trkpt lat="45.25163" lon="3.19184">
        <ele>551.45</ele>
        <time>2024-12-01T08:19:39Z</time>
      </trkpt>
      <trkpt lat="45.2517" lon="3.19147">
        <ele>550.97</ele>
        <time>2024-12-01T08:20:00Z</time>
      </trkpt>
      <trkpt lat="45.25178" lon="3.19118">
        <ele>552.41</ele>
        <time>2024-12-01T08:20:16Z</time>
      </trkpt>
      <trkpt lat="45.25186" lon="3.19073">
        <ele>553.38</ele>
        <time>2024-12-01T08:20:38Z</time>
      </trkpt>
      <trkpt lat="45.25182" lon="3.19036">
        <ele>556.26</ele>
        <time>2024-12-01T08:20:58Z</time>
      </trkpt>
      <trkpt lat="45.25163" lon="3.19029">
        <ele>560.11</ele>
        <time>2024-12-01T08:21:14Z</time>
      </trkpt>
      <trkpt lat="45.25144" lon="3.19021">
        <ele>565.39</ele>
        <time>2024-12-01T08:21:31Z</time>
      </trkpt>
      <trkpt lat="45.2513" lon="3.19009">
        <ele>569.72</ele>
        <time>2024-12-01T08:21:45Z</time>
      </trkpt>
      <trkpt lat="45.25112" lon="3.18995">
        <ele>576.45</ele>
        <time>2024-12-01T08:22:03Z</time>
      </trkpt>
      <trkpt lat="45.25097" lon="3.18983">
        <ele>582.22</ele>
        <time>2024-12-01T08:22:18Z</time>
      </trkpt>
      <trkpt lat="45.25077" lon="3.18966">
        <ele>589.91</ele>
        <time>2024-12-01T08:22:37Z</time>
      </trkpt>
      <trkpt lat="45.25061" lon="3.18945">
        <ele>591.83</ele>
        <time>2024-12-01T08:22:54Z</time>
      </trkpt>
      <trkpt lat="45.25057" lon="3.18939">
        <ele>589.43</ele>
        <time>2024-12-01T08:22:58Z</time>
      </trkpt>
      <trkpt lat="45.25071" lon="3.18943">
        <ele>589.43</ele>
        <time>2024-12-01T08:23:15Z</time>
      </trkpt>
      <trkpt lat="45.25092" lon="3.18944">
        <ele>592.31</ele>
        <time>2024-12-01T08:23:33Z</time>
      </trkpt>
      <trkpt lat="45.25114" lon="3.18944">
        <ele>595.67</ele>
        <time>2024-12-01T08:23:51Z</time>
      </trkpt>
      <trkpt lat="45.25131" lon="3.18931">
        <ele>599.52</ele>
        <time>2024-12-01T08:24:10Z</time>
      </trkpt>
      <trkpt lat="45.25131" lon="3.1893">
        <ele>600</ele>
        <time>2024-12-01T08:24:11Z</time>
      </trkpt>
      <trkpt lat="45.2512" lon="3.18913">
        <ele>603.36</ele>
        <time>2024-12-01T08:24:28Z</time>
      </trkpt>
      <trkpt lat="45.25114" lon="3.18904">
        <ele>605.29</ele>
        <time>2024-12-01T08:24:37Z</time>
      </trkpt>
      <trkpt lat="45.25099" lon="3.18885">
        <ele>608.65</ele>
        <time>2024-12-01T08:24:54Z</time>
      </trkpt>
      <trkpt lat="45.25097" lon="3.18879">
        <ele>610.09</ele>
        <time>2024-12-01T08:24:58Z</time>
      </trkpt>
      <trkpt lat="45.25092" lon="3.18865">
        <ele>610.09</ele>
        <time>2024-12-01T08:25:09Z</time>
      </trkpt>
      <trkpt lat="45.25098" lon="3.18865">
        <ele>609.61</ele>
        <time>2024-12-01T08:25:16Z</time>
      </trkpt>
      <trkpt lat="45.25113" lon="3.18865">
        <ele>612.02</ele>
        <time>2024-12-01T08:25:33Z</time>
      </trkpt>
      <trkpt lat="45.25114" lon="3.18865">
        <ele>612.5</ele>
        <time>2024-12-01T08:25:34Z</time>
      </trkpt>
      <trkpt lat="45.2513" lon="3.18857">
        <ele>615.38</ele>
        <time>2024-12-01T08:25:52Z</time>
      </trkpt>
      <trkpt lat="45.25128" lon="3.18852">
        <ele>616.34</ele>
        <time>2024-12-01T08:25:59Z</time>
      </trkpt>
      <trkpt lat="45.25128" lon="3.18845">
        <ele>616.82</ele>
        <time>2024-12-01T08:26:04Z</time>
      </trkpt>
      <trkpt lat="45.25116" lon="3.1883">
        <ele>619.71</ele>
        <time>2024-12-01T08:26:22Z</time>
      </trkpt>
      <trkpt lat="45.25106" lon="3.18815">
        <ele>623.07</ele>
        <time>2024-12-01T08:26:35Z</time>
      </trkpt>
      <trkpt lat="45.25094" lon="3.18797">
        <ele>627.4</ele>
        <time>2024-12-01T08:26:51Z</time>
      </trkpt>
      <trkpt lat="45.25083" lon="3.1878">
        <ele>630.28</ele>
        <time>2024-12-01T08:27:07Z</time>
      </trkpt>
      <trkpt lat="45.25074" lon="3.1876">
        <ele>634.61</ele>
        <time>2024-12-01T08:27:23Z</time>
      </trkpt>
      <trkpt lat="45.25063" lon="3.1874">
        <ele>637.01</ele>
        <time>2024-12-01T08:27:40Z</time>
      </trkpt>
      <trkpt lat="45.25061" lon="3.18727">
        <ele>634.13</ele>
        <time>2024-12-01T08:27:52Z</time>
      </trkpt>
      <trkpt lat="45.25064" lon="3.1873">
        <ele>635.09</ele>
        <time>2024-12-01T08:27:57Z</time>
      </trkpt>
      <trkpt lat="45.25083" lon="3.1874">
        <ele>637.49</ele>
        <time>2024-12-01T08:28:16Z</time>
      </trkpt>
      <trkpt lat="45.25101" lon="3.18746">
        <ele>640.38</ele>
        <time>2024-12-01T08:28:31Z</time>
      </trkpt>
      <trkpt lat="45.2511" lon="3.18748">
        <ele>641.82</ele>
        <time>2024-12-01T08:28:39Z</time>
      </trkpt>
      <trkpt lat="45.25124" lon="3.18747">
        <ele>642.78</ele>
        <time>2024-12-01T08:28:50Z</time>
      </trkpt>
      <trkpt lat="45.25132" lon="3.18748">
        <ele>643.26</ele>
        <time>2024-12-01T08:28:58Z</time>
      </trkpt>
      <trkpt lat="45.25148" lon="3.18745">
        <ele>640.86</ele>
        <time>2024-12-01T08:29:09Z</time>
      </trkpt>
      <trkpt lat="45.25154" lon="3.18734">
        <ele>642.3</ele>
        <time>2024-12-01T08:29:20Z</time>
      </trkpt>
      <trkpt lat="45.25142" lon="3.18718">
        <ele>648.55</ele>
        <time>2024-12-01T08:29:39Z</time>
      </trkpt>
      <trkpt lat="45.25134" lon="3.187">
        <ele>653.83</ele>
        <time>2024-12-01T08:29:56Z</time>
      </trkpt>
      <trkpt lat="45.25124" lon="3.18682">
        <ele>658.16</ele>
        <time>2024-12-01T08:30:13Z</time>
      </trkpt>
      <trkpt lat="45.2512" lon="3.18674">
        <ele>658.64</ele>
        <time>2024-12-01T08:30:18Z</time>
      </trkpt>
      <trkpt lat="45.25106" lon="3.18656">
        <ele>657.68</ele>
        <time>2024-12-01T08:30:32Z</time>
      </trkpt>
      <trkpt lat="45.25092" lon="3.18634">
        <ele>655.28</ele>
        <time>2024-12-01T08:30:50Z</time>
      </trkpt>
      <trkpt lat="45.25088" lon="3.18625">
        <ele>654.8</ele>
        <time>2024-12-01T08:30:57Z</time>
      </trkpt>
      <trkpt lat="45.25082" lon="3.18605">
        <ele>656.72</ele>
        <time>2024-12-01T08:31:12Z</time>
      </trkpt>
      <trkpt lat="45.2508" lon="3.18598">
        <ele>657.68</ele>
        <time>2024-12-01T08:31:17Z</time>
      </trkpt>
      <trkpt lat="45.25079" lon="3.18579">
        <ele>659.6</ele>
        <time>2024-12-01T08:31:31Z</time>
      </trkpt>
      <trkpt lat="45.25081" lon="3.18578">
        <ele>660.08</ele>
        <time>2024-12-01T08:31:33Z</time>
      </trkpt>
      <trkpt lat="45.251" lon="3.18594">
        <ele>663.45</ele>
        <time>2024-12-01T08:31:51Z</time>
      </trkpt>
      <trkpt lat="45.25117" lon="3.18612">
        <ele>666.33</ele>
        <time>2024-12-01T08:32:08Z</time>
      </trkpt>
      <trkpt lat="45.2512" lon="3.18612">
        <ele>666.81</ele>
        <time>2024-12-01T08:32:10Z</time>
      </trkpt>
      <trkpt lat="45.25122" lon="3.18608">
        <ele>666.33</ele>
        <time>2024-12-01T08:32:14Z</time>
      </trkpt>
      <trkpt lat="45.25114" lon="3.18599">
        <ele>667.29</ele>
        <time>2024-12-01T08:32:23Z</time>
      </trkpt>
      <trkpt lat="45.25103" lon="3.18571">
        <ele>669.22</ele>
        <time>2024-12-01T08:32:42Z</time>
      </trkpt>
      <trkpt lat="45.25092" lon="3.18543">
        <ele>671.14</ele>
        <time>2024-12-01T08:32:59Z</time>
      </trkpt>
      <trkpt lat="45.25092" lon="3.18535">
        <ele>671.14</ele>
        <time>2024-12-01T08:33:04Z</time>
      </trkpt>
      <trkpt lat="45.25099" lon="3.18534">
        <ele>672.1</ele>
        <time>2024-12-01T08:33:11Z</time>
      </trkpt>
      <trkpt lat="45.25113" lon="3.18541">
        <ele>674.98</ele>
        <time>2024-12-01T08:33:25Z</time>
      </trkpt>
      <trkpt lat="45.25127" lon="3.18547">
        <ele>678.35</ele>
        <time>2024-12-01T08:33:39Z</time>
      </trkpt>
      <trkpt lat="45.2514" lon="3.18557">
        <ele>680.27</ele>
        <time>2024-12-01T08:33:52Z</time>
      </trkpt>
      <trkpt lat="45.25141" lon="3.18559">
        <ele>680.75</ele>
        <time>2024-12-01T08:33:54Z</time>
      </trkpt>
      <trkpt lat="45.25155" lon="3.18569">
        <ele>683.15</ele>
        <time>2024-12-01T08:34:09Z</time>
      </trkpt>
      <trkpt lat="45.25166" lon="3.18574">
        <ele>684.12</ele>
        <time>2024-12-01T08:34:19Z</time>
      </trkpt>
      <trkpt lat="45.2518" lon="3.18576">
        <ele>685.56</ele>
        <time>2024-12-01T08:34:33Z</time>
      </trkpt>
      <trkpt lat="45.25196" lon="3.18574">
        <ele>687.96</ele>
        <time>2024-12-01T08:34:46Z</time>
      </trkpt>
      <trkpt lat="45.25205" lon="3.18569">
        <ele>688.92</ele>
        <time>2024-12-01T08:34:54Z</time>
      </trkpt>
      <trkpt lat="45.25214" lon="3.18557">
        <ele>690.36</ele>
        <time>2024-12-01T08:35:06Z</time>
      </trkpt>
      <trkpt lat="45.25221" lon="3.1854">
        <ele>691.81</ele>
        <time>2024-12-01T08:35:21Z</time>
      </trkpt>
      <trkpt lat="45.25227" lon="3.18524">
        <ele>694.21</ele>
        <time>2024-12-01T08:35:33Z</time>
      </trkpt>
      <trkpt lat="45.25227" lon="3.18522">
        <ele>694.21</ele>
        <time>2024-12-01T08:35:34Z</time>
      </trkpt>
      <trkpt lat="45.25235" lon="3.18502">
        <ele>696.13</ele>
        <time>2024-12-01T08:35:49Z</time>
      </trkpt>
      <trkpt lat="45.25246" lon="3.18482">
        <ele>700.94</ele>
        <time>2024-12-01T08:36:05Z</time>
      </trkpt>
      <trkpt lat="45.2526" lon="3.18466">
        <ele>702.38</ele>
        <time>2024-12-01T08:36:19Z</time>
      </trkpt>
      <trkpt lat="45.25274" lon="3.18449">
        <ele>703.82</ele>
        <time>2024-12-01T08:36:34Z</time>
      </trkpt>
      <trkpt lat="45.25285" lon="3.18434">
        <ele>705.26</ele>
        <time>2024-12-01T08:36:47Z</time>
      </trkpt>
      <trkpt lat="45.25297" lon="3.18419">
        <ele>708.15</ele>
        <time>2024-12-01T08:37:01Z</time>
      </trkpt>
      <trkpt lat="45.25305" lon="3.18401">
        <ele>711.51</ele>
        <time>2024-12-01T08:37:15Z</time>
      </trkpt>
      <trkpt lat="45.25312" lon="3.18388">
        <ele>713.44</ele>
        <time>2024-12-01T08:37:26Z</time>
      </trkpt>
      <trkpt lat="45.25313" lon="3.18384">
        <ele>713.92</ele>
        <time>2024-12-01T08:37:29Z</time>
      </trkpt>
      <trkpt lat="45.25314" lon="3.18376">
        <ele>714.88</ele>
        <time>2024-12-01T08:37:34Z</time>
      </trkpt>
      <trkpt lat="45.25319" lon="3.1835">
        <ele>717.76</ele>
        <time>2024-12-01T08:37:51Z</time>
      </trkpt>
      <trkpt lat="45.25327" lon="3.18329">
        <ele>720.16</ele>
        <time>2024-12-01T08:38:06Z</time>
      </trkpt>
      <trkpt lat="45.25335" lon="3.18317">
        <ele>721.61</ele>
        <time>2024-12-01T08:38:16Z</time>
      </trkpt>
      <trkpt lat="45.25344" lon="3.18304">
        <ele>723.53</ele>
        <time>2024-12-01T08:38:28Z</time>
      </trkpt>
      <trkpt lat="45.25354" lon="3.18284">
        <ele>726.41</ele>
        <time>2024-12-01T08:38:43Z</time>
      </trkpt>
      <trkpt lat="45.25354" lon="3.18283">
        <ele>726.41</ele>
        <time>2024-12-01T08:38:44Z</time>
      </trkpt>
      <trkpt lat="45.25357" lon="3.18275">
        <ele>726.89</ele>
        <time>2024-12-01T08:38:49Z</time>
      </trkpt>
      <trkpt lat="45.2536" lon="3.18269">
        <ele>727.86</ele>
        <time>2024-12-01T08:38:53Z</time>
      </trkpt>
      <trkpt lat="45.25372" lon="3.18245">
        <ele>731.7</ele>
        <time>2024-12-01T08:39:10Z</time>
      </trkpt>
      <trkpt lat="45.25389" lon="3.18225">
        <ele>735.07</ele>
        <time>2024-12-01T08:39:28Z</time>
      </trkpt>
      <trkpt lat="45.25396" lon="3.18196">
        <ele>736.99</ele>
        <time>2024-12-01T08:39:45Z</time>
      </trkpt>
      <trkpt lat="45.25404" lon="3.18178">
        <ele>737.95</ele>
        <time>2024-12-01T08:39:56Z</time>
      </trkpt>
      <trkpt lat="45.25416" lon="3.18149">
        <ele>737.47</ele>
        <time>2024-12-01T08:40:15Z</time>
      </trkpt>
      <trkpt lat="45.25418" lon="3.18145">
        <ele>737.47</ele>
        <time>2024-12-01T08:40:19Z</time>
      </trkpt>
      <trkpt lat="45.25424" lon="3.18136">
        <ele>736.99</ele>
        <time>2024-12-01T08:40:26Z</time>
      </trkpt>
      <trkpt lat="45.25436" lon="3.18106">
        <ele>738.43</ele>
        <time>2024-12-01T08:40:45Z</time>
      </trkpt>
      <trkpt lat="45.25439" lon="3.1809">
        <ele>738.43</ele>
        <time>2024-12-01T08:40:54Z</time>
      </trkpt>
      <trkpt lat="45.25428" lon="3.18059">
        <ele>740.83</ele>
        <time>2024-12-01T08:41:14Z</time>
      </trkpt>
      <trkpt lat="45.25413" lon="3.18029">
        <ele>740.35</ele>
        <time>2024-12-01T08:41:33Z</time>
      </trkpt>
      <trkpt lat="45.25395" lon="3.18">
        <ele>741.79</ele>
        <time>2024-12-01T08:41:53Z</time>
      </trkpt>
      <trkpt lat="45.25382" lon="3.17975">
        <ele>742.76</ele>
        <time>2024-12-01T08:42:10Z</time>
      </trkpt>
      <trkpt lat="45.25374" lon="3.17949">
        <ele>745.16</ele>
        <time>2024-12-01T08:42:26Z</time>
      </trkpt>
      <trkpt lat="45.25367" lon="3.17923">
        <ele>749</ele>
        <time>2024-12-01T08:42:43Z</time>
      </trkpt>
      <trkpt lat="45.25357" lon="3.17907">
        <ele>750.93</ele>
        <time>2024-12-01T08:42:56Z</time>
      </trkpt>
      <trkpt lat="45.25341" lon="3.1789">
        <ele>754.29</ele>
        <time>2024-12-01T08:43:13Z</time>
      </trkpt>
      <trkpt lat="45.25324" lon="3.17875">
        <ele>756.69</ele>
        <time>2024-12-01T08:43:30Z</time>
      </trkpt>
      <trkpt lat="45.25307" lon="3.17859">
        <ele>758.14</ele>
        <time>2024-12-01T08:43:46Z</time>
      </trkpt>
      <trkpt lat="45.25301" lon="3.1785">
        <ele>760.06</ele>
        <time>2024-12-01T08:43:54Z</time>
      </trkpt>
      <trkpt lat="45.25289" lon="3.17845">
        <ele>762.94</ele>
        <time>2024-12-01T08:44:06Z</time>
      </trkpt>
      <trkpt lat="45.25283" lon="3.17867">
        <ele>764.39</ele>
        <time>2024-12-01T08:44:21Z</time>
      </trkpt>
      <trkpt lat="45.25274" lon="3.17893">
        <ele>764.87</ele>
        <time>2024-12-01T08:44:38Z</time>
      </trkpt>
      <trkpt lat="45.25258" lon="3.17918">
        <ele>766.79</ele>
        <time>2024-12-01T08:44:57Z</time>
      </trkpt>
      <trkpt lat="45.25241" lon="3.17936">
        <ele>770.63</ele>
        <time>2024-12-01T08:45:13Z</time>
      </trkpt>
      <trkpt lat="45.25236" lon="3.17942">
        <ele>771.6</ele>
        <time>2024-12-01T08:45:26Z</time>
      </trkpt>
      <trkpt lat="45.25235" lon="3.17943">
        <ele>771.6</ele>
        <time>2024-12-01T08:45:41Z</time>
      </trkpt>
      <trkpt lat="45.25234" lon="3.17945">
        <ele>769.19</ele>
        <time>2024-12-01T08:46:01Z</time>
      </trkpt>
      <trkpt lat="45.25235" lon="3.17944">
        <ele>768.23</ele>
        <time>2024-12-01T08:46:18Z</time>
      </trkpt>
      <trkpt lat="45.25235" lon="3.17944">
        <ele>768.23</ele>
        <time>2024-12-01T08:46:43Z</time>
      </trkpt>
      <trkpt lat="45.25234" lon="3.17945">
        <ele>769.19</ele>
        <time>2024-12-01T08:47:03Z</time>
      </trkpt>
      <trkpt lat="45.25231" lon="3.17945">
        <ele>769.67</ele>
        <time>2024-12-01T08:47:21Z</time>
      </trkpt>
      <trkpt lat="45.25229" lon="3.17942">
        <ele>770.15</ele>
        <time>2024-12-01T08:47:24Z</time>
      </trkpt>
      <trkpt lat="45.25225" lon="3.17917">
        <ele>773.52</ele>
        <time>2024-12-01T08:47:40Z</time>
      </trkpt>
      <trkpt lat="45.25224" lon="3.17892">
        <ele>775.44</ele>
        <time>2024-12-01T08:47:55Z</time>
      </trkpt>
      <trkpt lat="45.25223" lon="3.17868">
        <ele>776.88</ele>
        <time>2024-12-01T08:48:09Z</time>
      </trkpt>
      <trkpt lat="45.25221" lon="3.17839">
        <ele>779.77</ele>
        <time>2024-12-01T08:48:26Z</time>
      </trkpt>
      <trkpt lat="45.25219" lon="3.17803">
        <ele>782.17</ele>
        <time>2024-12-01T08:48:46Z</time>
      </trkpt>
      <trkpt lat="45.25216" lon="3.17774">
        <ele>784.57</ele>
        <time>2024-12-01T08:49:02Z</time>
      </trkpt>
      <trkpt lat="45.25207" lon="3.17749">
        <ele>786.5</ele>
        <time>2024-12-01T08:49:19Z</time>
      </trkpt>
      <trkpt lat="45.25195" lon="3.17726">
        <ele>789.38</ele>
        <time>2024-12-01T08:49:35Z</time>
      </trkpt>
      <trkpt lat="45.25183" lon="3.17707">
        <ele>791.78</ele>
        <time>2024-12-01T08:49:50Z</time>
      </trkpt>
      <trkpt lat="45.2517" lon="3.17688">
        <ele>793.22</ele>
        <time>2024-12-01T08:50:05Z</time>
      </trkpt>
      <trkpt lat="45.25161" lon="3.17674">
        <ele>794.67</ele>
        <time>2024-12-01T08:50:16Z</time>
      </trkpt>
      <trkpt lat="45.25148" lon="3.17672">
        <ele>796.59</ele>
        <time>2024-12-01T08:50:29Z</time>
      </trkpt>
      <trkpt lat="45.25152" lon="3.17699">
        <ele>799.47</ele>
        <time>2024-12-01T08:50:45Z</time>
      </trkpt>
      <trkpt lat="45.25152" lon="3.17712">
        <ele>799.95</ele>
        <time>2024-12-01T08:50:53Z</time>
      </trkpt>
      <trkpt lat="45.25137" lon="3.17724">
        <ele>802.36</ele>
        <time>2024-12-01T08:51:08Z</time>
      </trkpt>
      <trkpt lat="45.25122" lon="3.17713">
        <ele>804.28</ele>
        <time>2024-12-01T08:51:22Z</time>
      </trkpt>
      <trkpt lat="45.25118" lon="3.17709">
        <ele>805.24</ele>
        <time>2024-12-01T08:51:27Z</time>
      </trkpt>
      <trkpt lat="45.25111" lon="3.17691">
        <ele>807.16</ele>
        <time>2024-12-01T08:51:40Z</time>
      </trkpt>
      <trkpt lat="45.25109" lon="3.17685">
        <ele>807.64</ele>
        <time>2024-12-01T08:51:44Z</time>
      </trkpt>
      <trkpt lat="45.25107" lon="3.1768">
        <ele>808.13</ele>
        <time>2024-12-01T08:51:48Z</time>
      </trkpt>
      <trkpt lat="45.25098" lon="3.17655">
        <ele>811.01</ele>
        <time>2024-12-01T08:52:05Z</time>
      </trkpt>
      <trkpt lat="45.25083" lon="3.17627">
        <ele>813.41</ele>
        <time>2024-12-01T08:52:24Z</time>
      </trkpt>
      <trkpt lat="45.25067" lon="3.17599">
        <ele>813.89</ele>
        <time>2024-12-01T08:52:42Z</time>
      </trkpt>
      <trkpt lat="45.25053" lon="3.17562">
        <ele>813.89</ele>
        <time>2024-12-01T08:53:02Z</time>
      </trkpt>
      <trkpt lat="45.25037" lon="3.17528">
        <ele>813.89</ele>
        <time>2024-12-01T08:53:21Z</time>
      </trkpt>
      <trkpt lat="45.25025" lon="3.17496">
        <ele>814.37</ele>
        <time>2024-12-01T08:53:39Z</time>
      </trkpt>
      <trkpt lat="45.25016" lon="3.17463">
        <ele>813.89</ele>
        <time>2024-12-01T08:53:56Z</time>
      </trkpt>
      <trkpt lat="45.25011" lon="3.17446">
        <ele>814.37</ele>
        <time>2024-12-01T08:54:06Z</time>
      </trkpt>
      <trkpt lat="45.25009" lon="3.17443">
        <ele>814.37</ele>
        <time>2024-12-01T08:54:08Z</time>
      </trkpt>
      <trkpt lat="45.25006" lon="3.17434">
        <ele>814.85</ele>
        <time>2024-12-01T08:54:13Z</time>
      </trkpt>
      <trkpt lat="45.24995" lon="3.17406">
        <ele>814.37</ele>
        <time>2024-12-01T08:54:30Z</time>
      </trkpt>
      <trkpt lat="45.24979" lon="3.17371">
        <ele>814.37</ele>
        <time>2024-12-01T08:54:51Z</time>
      </trkpt>
      <trkpt lat="45.24967" lon="3.17345">
        <ele>815.34</ele>
        <time>2024-12-01T08:55:07Z</time>
      </trkpt>
      <trkpt lat="45.24953" lon="3.17316">
        <ele>815.34</ele>
        <time>2024-12-01T08:55:25Z</time>
      </trkpt>
      <trkpt lat="45.2494" lon="3.17286">
        <ele>816.78</ele>
        <time>2024-12-01T08:55:43Z</time>
      </trkpt>
      <trkpt lat="45.2493" lon="3.17253">
        <ele>817.26</ele>
        <time>2024-12-01T08:56:01Z</time>
      </trkpt>
      <trkpt lat="45.24925" lon="3.17235">
        <ele>817.74</ele>
        <time>2024-12-01T08:56:12Z</time>
      </trkpt>
      <trkpt lat="45.24919" lon="3.17223">
        <ele>818.22</ele>
        <time>2024-12-01T08:56:21Z</time>
      </trkpt>
      <trkpt lat="45.24915" lon="3.17216">
        <ele>818.22</ele>
        <time>2024-12-01T08:56:26Z</time>
      </trkpt>
      <trkpt lat="45.24904" lon="3.17186">
        <ele>817.74</ele>
        <time>2024-12-01T08:56:44Z</time>
      </trkpt>
      <trkpt lat="45.24894" lon="3.17158">
        <ele>818.22</ele>
        <time>2024-12-01T08:57:00Z</time>
      </trkpt>
      <trkpt lat="45.24883" lon="3.17121">
        <ele>819.18</ele>
        <time>2024-12-01T08:57:20Z</time>
      </trkpt>
      <trkpt lat="45.24873" lon="3.1709">
        <ele>819.66</ele>
        <time>2024-12-01T08:57:38Z</time>
      </trkpt>
      <trkpt lat="45.2487" lon="3.17053">
        <ele>821.58</ele>
        <time>2024-12-01T08:57:57Z</time>
      </trkpt>
      <trkpt lat="45.24872" lon="3.17015">
        <ele>822.55</ele>
        <time>2024-12-01T08:58:16Z</time>
      </trkpt>
      <trkpt lat="45.24872" lon="3.1698">
        <ele>823.99</ele>
        <time>2024-12-01T08:58:35Z</time>
      </trkpt>
      <trkpt lat="45.24874" lon="3.16942">
        <ele>823.99</ele>
        <time>2024-12-01T08:58:54Z</time>
      </trkpt>
      <trkpt lat="45.24868" lon="3.16909">
        <ele>823.51</ele>
        <time>2024-12-01T08:59:12Z</time>
      </trkpt>
      <trkpt lat="45.24863" lon="3.1688">
        <ele>823.51</ele>
        <time>2024-12-01T08:59:28Z</time>
      </trkpt>
      <trkpt lat="45.24865" lon="3.16849">
        <ele>824.47</ele>
        <time>2024-12-01T08:59:44Z</time>
      </trkpt>
      <trkpt lat="45.24864" lon="3.16813">
        <ele>824.47</ele>
        <time>2024-12-01T09:00:02Z</time>
      </trkpt>
      <trkpt lat="45.24862" lon="3.16786">
        <ele>824.95</ele>
        <time>2024-12-01T09:00:16Z</time>
      </trkpt>
      <trkpt lat="45.24859" lon="3.16756">
        <ele>824.95</ele>
        <time>2024-12-01T09:00:33Z</time>
      </trkpt>
      <trkpt lat="45.24846" lon="3.16731">
        <ele>824.95</ele>
        <time>2024-12-01T09:00:51Z</time>
      </trkpt>
      <trkpt lat="45.24845" lon="3.1673">
        <ele>824.95</ele>
        <time>2024-12-01T09:00:52Z</time>
      </trkpt>
      <trkpt lat="45.24827" lon="3.16674">
        <ele>824.47</ele>
        <time>2024-12-01T09:01:25Z</time>
      </trkpt>
      <trkpt lat="45.2481" lon="3.16643">
        <ele>824.47</ele>
        <time>2024-12-01T09:01:46Z</time>
      </trkpt>
      <trkpt lat="45.24793" lon="3.16619">
        <ele>823.51</ele>
        <time>2024-12-01T09:02:04Z</time>
      </trkpt>
      <trkpt lat="45.24783" lon="3.1659">
        <ele>822.06</ele>
        <time>2024-12-01T09:02:21Z</time>
      </trkpt>
      <trkpt lat="45.24774" lon="3.16557">
        <ele>823.99</ele>
        <time>2024-12-01T09:02:39Z</time>
      </trkpt>
      <trkpt lat="45.24767" lon="3.16527">
        <ele>824.95</ele>
        <time>2024-12-01T09:02:56Z</time>
      </trkpt>
      <trkpt lat="45.24762" lon="3.16489">
        <ele>825.91</ele>
        <time>2024-12-01T09:03:17Z</time>
      </trkpt>
      <trkpt lat="45.24763" lon="3.16473">
        <ele>826.39</ele>
        <time>2024-12-01T09:03:26Z</time>
      </trkpt>
      <trkpt lat="45.24768" lon="3.1647">
        <ele>827.35</ele>
        <time>2024-12-01T09:03:30Z</time>
      </trkpt>
      <trkpt lat="45.24799" lon="3.1647">
        <ele>828.79</ele>
        <time>2024-12-01T09:03:53Z</time>
      </trkpt>
      <trkpt lat="45.24826" lon="3.1647">
        <ele>830.24</ele>
        <time>2024-12-01T09:04:13Z</time>
      </trkpt>
      <trkpt lat="45.24852" lon="3.16471">
        <ele>831.2</ele>
        <time>2024-12-01T09:04:32Z</time>
      </trkpt>
      <trkpt lat="45.24878" lon="3.1647">
        <ele>831.2</ele>
        <time>2024-12-01T09:04:50Z</time>
      </trkpt>
      <trkpt lat="45.24905" lon="3.16469">
        <ele>831.68</ele>
        <time>2024-12-01T09:05:10Z</time>
      </trkpt>
      <trkpt lat="45.24931" lon="3.16469">
        <ele>831.68</ele>
        <time>2024-12-01T09:05:28Z</time>
      </trkpt>
      <trkpt lat="45.24957" lon="3.16464">
        <ele>832.64</ele>
        <time>2024-12-01T09:05:48Z</time>
      </trkpt>
      <trkpt lat="45.24965" lon="3.16434">
        <ele>833.12</ele>
        <time>2024-12-01T09:06:04Z</time>
      </trkpt>
      <trkpt lat="45.24972" lon="3.16394">
        <ele>833.12</ele>
        <time>2024-12-01T09:06:25Z</time>
      </trkpt>
      <trkpt lat="45.24981" lon="3.16353">
        <ele>834.08</ele>
        <time>2024-12-01T09:06:46Z</time>
      </trkpt>
      <trkpt lat="45.24987" lon="3.16317">
        <ele>833.6</ele>
        <time>2024-12-01T09:07:06Z</time>
      </trkpt>
      <trkpt lat="45.24988" lon="3.16275">
        <ele>833.12</ele>
        <time>2024-12-01T09:07:27Z</time>
      </trkpt>
      <trkpt lat="45.24993" lon="3.1624">
        <ele>833.12</ele>
        <time>2024-12-01T09:07:45Z</time>
      </trkpt>
      <trkpt lat="45.24994" lon="3.162">
        <ele>833.12</ele>
        <time>2024-12-01T09:08:05Z</time>
      </trkpt>
      <trkpt lat="45.24996" lon="3.16165">
        <ele>833.6</ele>
        <time>2024-12-01T09:08:23Z</time>
      </trkpt>
      <trkpt lat="45.25018" lon="3.16144">
        <ele>833.6</ele>
        <time>2024-12-01T09:08:43Z</time>
      </trkpt>
      <trkpt lat="45.25048" lon="3.16128">
        <ele>832.16</ele>
        <time>2024-12-01T09:09:05Z</time>
      </trkpt>
      <trkpt lat="45.25073" lon="3.16117">
        <ele>829.76</ele>
        <time>2024-12-01T09:09:24Z</time>
      </trkpt>
      <trkpt lat="45.25097" lon="3.16104">
        <ele>827.83</ele>
        <time>2024-12-01T09:09:43Z</time>
      </trkpt>
      <trkpt lat="45.25117" lon="3.16072">
        <ele>824.95</ele>
        <time>2024-12-01T09:10:06Z</time>
      </trkpt>
      <trkpt lat="45.25133" lon="3.1604">
        <ele>823.51</ele>
        <time>2024-12-01T09:10:25Z</time>
      </trkpt>
      <trkpt lat="45.2515" lon="3.16012">
        <ele>823.03</ele>
        <time>2024-12-01T09:10:44Z</time>
      </trkpt>
      <trkpt lat="45.25155" lon="3.15973">
        <ele>823.03</ele>
        <time>2024-12-01T09:11:04Z</time>
      </trkpt>
      <trkpt lat="45.25132" lon="3.15954">
        <ele>821.58</ele>
        <time>2024-12-01T09:11:23Z</time>
      </trkpt>
      <trkpt lat="45.2511" lon="3.15923">
        <ele>818.22</ele>
        <time>2024-12-01T09:11:45Z</time>
      </trkpt>
      <trkpt lat="45.25095" lon="3.15881">
        <ele>816.3</ele>
        <time>2024-12-01T09:12:07Z</time>
      </trkpt>
      <trkpt lat="45.25081" lon="3.15846">
        <ele>813.89</ele>
        <time>2024-12-01T09:12:27Z</time>
      </trkpt>
      <trkpt lat="45.25059" lon="3.15812">
        <ele>813.41</ele>
        <time>2024-12-01T09:12:49Z</time>
      </trkpt>
      <trkpt lat="45.25051" lon="3.15796">
        <ele>813.41</ele>
        <time>2024-12-01T09:13:02Z</time>
      </trkpt>
      <trkpt lat="45.25039" lon="3.15768">
        <ele>814.85</ele>
        <time>2024-12-01T09:13:18Z</time>
      </trkpt>
      <trkpt lat="45.2502" lon="3.15744">
        <ele>811.49</ele>
        <time>2024-12-01T09:13:36Z</time>
      </trkpt>
      <trkpt lat="45.25013" lon="3.15715">
        <ele>809.09</ele>
        <time>2024-12-01T09:13:52Z</time>
      </trkpt>
      <trkpt lat="45.25008" lon="3.15683">
        <ele>807.16</ele>
        <time>2024-12-01T09:14:09Z</time>
      </trkpt>
      <trkpt lat="45.24999" lon="3.15655">
        <ele>804.28</ele>
        <time>2024-12-01T09:14:25Z</time>
      </trkpt>
      <trkpt lat="45.24985" lon="3.15626">
        <ele>799.95</ele>
        <time>2024-12-01T09:14:45Z</time>
      </trkpt>
      <trkpt lat="45.24972" lon="3.15609">
        <ele>798.03</ele>
        <time>2024-12-01T09:14:59Z</time>
      </trkpt>
      <trkpt lat="45.24954" lon="3.15585">
        <ele>798.99</ele>
        <time>2024-12-01T09:15:18Z</time>
      </trkpt>
      <trkpt lat="45.24938" lon="3.15565">
        <ele>797.55</ele>
        <time>2024-12-01T09:15:34Z</time>
      </trkpt>
      <trkpt lat="45.2492" lon="3.15546">
        <ele>795.15</ele>
        <time>2024-12-01T09:15:51Z</time>
      </trkpt>
      <trkpt lat="45.24897" lon="3.15527">
        <ele>792.74</ele>
        <time>2024-12-01T09:16:10Z</time>
      </trkpt>
      <trkpt lat="45.24878" lon="3.15502">
        <ele>792.74</ele>
        <time>2024-12-01T09:16:28Z</time>
      </trkpt>
      <trkpt lat="45.24865" lon="3.15472">
        <ele>790.82</ele>
        <time>2024-12-01T09:16:45Z</time>
      </trkpt>
      <trkpt lat="45.24856" lon="3.15444">
        <ele>789.38</ele>
        <time>2024-12-01T09:17:01Z</time>
      </trkpt>
      <trkpt lat="45.24844" lon="3.15417">
        <ele>789.38</ele>
        <time>2024-12-01T09:17:18Z</time>
      </trkpt>
      <trkpt lat="45.24833" lon="3.1539">
        <ele>790.82</ele>
        <time>2024-12-01T09:17:34Z</time>
      </trkpt>
      <trkpt lat="45.24815" lon="3.15371">
        <ele>790.82</ele>
        <time>2024-12-01T09:17:51Z</time>
      </trkpt>
      <trkpt lat="45.24799" lon="3.15352">
        <ele>788.9</ele>
        <time>2024-12-01T09:18:07Z</time>
      </trkpt>
      <trkpt lat="45.24783" lon="3.15324">
        <ele>787.46</ele>
        <time>2024-12-01T09:18:25Z</time>
      </trkpt>
      <trkpt lat="45.2477" lon="3.1529">
        <ele>784.09</ele>
        <time>2024-12-01T09:18:44Z</time>
      </trkpt>
      <trkpt lat="45.24753" lon="3.15263">
        <ele>782.65</ele>
        <time>2024-12-01T09:19:03Z</time>
      </trkpt>
      <trkpt lat="45.24742" lon="3.15242">
        <ele>783.13</ele>
        <time>2024-12-01T09:19:17Z</time>
      </trkpt>
      <trkpt lat="45.2473" lon="3.15213">
        <ele>782.17</ele>
        <time>2024-12-01T09:19:35Z</time>
      </trkpt>
      <trkpt lat="45.24718" lon="3.15194">
        <ele>780.73</ele>
        <time>2024-12-01T09:19:49Z</time>
      </trkpt>
      <trkpt lat="45.24701" lon="3.15185">
        <ele>777.84</ele>
        <time>2024-12-01T09:20:05Z</time>
      </trkpt>
      <trkpt lat="45.24699" lon="3.1519">
        <ele>774.96</ele>
        <time>2024-12-01T09:20:10Z</time>
      </trkpt>
      <trkpt lat="45.24695" lon="3.15206">
        <ele>773.52</ele>
        <time>2024-12-01T09:20:22Z</time>
      </trkpt>
      <trkpt lat="45.24674" lon="3.15203">
        <ele>769.19</ele>
        <time>2024-12-01T09:20:41Z</time>
      </trkpt>
      <trkpt lat="45.24673" lon="3.15201">
        <ele>769.19</ele>
        <time>2024-12-01T09:20:44Z</time>
      </trkpt>
      <trkpt lat="45.24669" lon="3.15196">
        <ele>768.71</ele>
        <time>2024-12-01T09:20:49Z</time>
      </trkpt>
      <trkpt lat="45.24666" lon="3.15194">
        <ele>768.23</ele>
        <time>2024-12-01T09:20:52Z</time>
      </trkpt>
      <trkpt lat="45.24649" lon="3.15178">
        <ele>766.31</ele>
        <time>2024-12-01T09:21:08Z</time>
      </trkpt>
      <trkpt lat="45.24634" lon="3.15164">
        <ele>762.94</ele>
        <time>2024-12-01T09:21:23Z</time>
      </trkpt>
      <trkpt lat="45.24629" lon="3.15163">
        <ele>761.98</ele>
        <time>2024-12-01T09:21:27Z</time>
      </trkpt>
      <trkpt lat="45.24622" lon="3.15161">
        <ele>760.54</ele>
        <time>2024-12-01T09:21:34Z</time>
      </trkpt>
      <trkpt lat="45.24602" lon="3.15153">
        <ele>758.14</ele>
        <time>2024-12-01T09:21:51Z</time>
      </trkpt>
      <trkpt lat="45.24584" lon="3.15151">
        <ele>756.69</ele>
        <time>2024-12-01T09:22:05Z</time>
      </trkpt>
      <trkpt lat="45.24566" lon="3.15141">
        <ele>754.29</ele>
        <time>2024-12-01T09:22:19Z</time>
      </trkpt>
      <trkpt lat="45.2455" lon="3.15129">
        <ele>750.93</ele>
        <time>2024-12-01T09:22:33Z</time>
      </trkpt>
      <trkpt lat="45.24529" lon="3.15121">
        <ele>746.6</ele>
        <time>2024-12-01T09:22:50Z</time>
      </trkpt>
      <trkpt lat="45.24511" lon="3.15114">
        <ele>742.28</ele>
        <time>2024-12-01T09:23:07Z</time>
      </trkpt>
      <trkpt lat="45.2451" lon="3.15113">
        <ele>741.79</ele>
        <time>2024-12-01T09:23:08Z</time>
      </trkpt>
      <trkpt lat="45.24493" lon="3.15105">
        <ele>736.51</ele>
        <time>2024-12-01T09:23:23Z</time>
      </trkpt>
      <trkpt lat="45.24484" lon="3.151">
        <ele>735.55</ele>
        <time>2024-12-01T09:23:32Z</time>
      </trkpt>
      <trkpt lat="45.24463" lon="3.15092">
        <ele>734.1</ele>
        <time>2024-12-01T09:23:50Z</time>
      </trkpt>
      <trkpt lat="45.24441" lon="3.15085">
        <ele>730.26</ele>
        <time>2024-12-01T09:24:07Z</time>
      </trkpt>
      <trkpt lat="45.24423" lon="3.15078">
        <ele>726.89</ele>
        <time>2024-12-01T09:24:22Z</time>
      </trkpt>
      <trkpt lat="45.24413" lon="3.15073">
        <ele>724.49</ele>
        <time>2024-12-01T09:24:31Z</time>
      </trkpt>
      <trkpt lat="45.24409" lon="3.15069">
        <ele>723.05</ele>
        <time>2024-12-01T09:24:34Z</time>
      </trkpt>
      <trkpt lat="45.24403" lon="3.15049">
        <ele>719.2</ele>
        <time>2024-12-01T09:24:46Z</time>
      </trkpt>
      <trkpt lat="45.24397" lon="3.15025">
        <ele>711.03</ele>
        <time>2024-12-01T09:25:02Z</time>
      </trkpt>
      <trkpt lat="45.24387" lon="3.15002">
        <ele>704.3</ele>
        <time>2024-12-01T09:25:17Z</time>
      </trkpt>
      <trkpt lat="45.24376" lon="3.14981">
        <ele>700.46</ele>
        <time>2024-12-01T09:25:31Z</time>
      </trkpt>
      <trkpt lat="45.24375" lon="3.14978">
        <ele>699.5</ele>
        <time>2024-12-01T09:25:33Z</time>
      </trkpt>
      <trkpt lat="45.24358" lon="3.14965">
        <ele>696.13</ele>
        <time>2024-12-01T09:25:48Z</time>
      </trkpt>
      <trkpt lat="45.24339" lon="3.14956">
        <ele>689.88</ele>
        <time>2024-12-01T09:26:05Z</time>
      </trkpt>
      <trkpt lat="45.24322" lon="3.14958">
        <ele>683.63</ele>
        <time>2024-12-01T09:26:20Z</time>
      </trkpt>
      <trkpt lat="45.24317" lon="3.14958">
        <ele>682.19</ele>
        <time>2024-12-01T09:26:24Z</time>
      </trkpt>
      <trkpt lat="45.24311" lon="3.14958">
        <ele>680.27</ele>
        <time>2024-12-01T09:26:29Z</time>
      </trkpt>
      <trkpt lat="45.24299" lon="3.14958">
        <ele>678.83</ele>
        <time>2024-12-01T09:26:40Z</time>
      </trkpt>
      <trkpt lat="45.24291" lon="3.14959">
        <ele>678.83</ele>
        <time>2024-12-01T09:26:47Z</time>
      </trkpt>
      <trkpt lat="45.24272" lon="3.14961">
        <ele>676.91</ele>
        <time>2024-12-01T09:27:03Z</time>
      </trkpt>
      <trkpt lat="45.24261" lon="3.14957">
        <ele>675.94</ele>
        <time>2024-12-01T09:27:11Z</time>
      </trkpt>
      <trkpt lat="45.24238" lon="3.14947">
        <ele>673.54</ele>
        <time>2024-12-01T09:27:27Z</time>
      </trkpt>
      <trkpt lat="45.24217" lon="3.14922">
        <ele>667.29</ele>
        <time>2024-12-01T09:27:46Z</time>
      </trkpt>
      <trkpt lat="45.24198" lon="3.14901">
        <ele>662.01</ele>
        <time>2024-12-01T09:28:03Z</time>
      </trkpt>
      <trkpt lat="45.24177" lon="3.14881">
        <ele>658.64</ele>
        <time>2024-12-01T09:28:22Z</time>
      </trkpt>
      <trkpt lat="45.24164" lon="3.14864">
        <ele>655.76</ele>
        <time>2024-12-01T09:28:35Z</time>
      </trkpt>
      <trkpt lat="45.24152" lon="3.14846">
        <ele>649.99</ele>
        <time>2024-12-01T09:28:50Z</time>
      </trkpt>
      <trkpt lat="45.24146" lon="3.14841">
        <ele>647.59</ele>
        <time>2024-12-01T09:28:56Z</time>
      </trkpt>
      <trkpt lat="45.24141" lon="3.14826">
        <ele>643.26</ele>
        <time>2024-12-01T09:29:05Z</time>
      </trkpt>
      <trkpt lat="45.2414" lon="3.14819">
        <ele>641.82</ele>
        <time>2024-12-01T09:29:09Z</time>
      </trkpt>
      <trkpt lat="45.24134" lon="3.14788">
        <ele>638.45</ele>
        <time>2024-12-01T09:29:27Z</time>
      </trkpt>
      <trkpt lat="45.24134" lon="3.14782">
        <ele>638.45</ele>
        <time>2024-12-01T09:29:30Z</time>
      </trkpt>
      <trkpt lat="45.24132" lon="3.14776">
        <ele>638.45</ele>
        <time>2024-12-01T09:29:34Z</time>
      </trkpt>
      <trkpt lat="45.24124" lon="3.14746">
        <ele>633.65</ele>
        <time>2024-12-01T09:29:52Z</time>
      </trkpt>
      <trkpt lat="45.24116" lon="3.14725">
        <ele>630.28</ele>
        <time>2024-12-01T09:30:07Z</time>
      </trkpt>
      <trkpt lat="45.24114" lon="3.14721">
        <ele>630.76</ele>
        <time>2024-12-01T09:30:10Z</time>
      </trkpt>
      <trkpt lat="45.24107" lon="3.14702">
        <ele>627.88</ele>
        <time>2024-12-01T09:30:23Z</time>
      </trkpt>
      <trkpt lat="45.24101" lon="3.14687">
        <ele>626.44</ele>
        <time>2024-12-01T09:30:36Z</time>
      </trkpt>
      <trkpt lat="45.24089" lon="3.14669">
        <ele>624.51</ele>
        <time>2024-12-01T09:30:51Z</time>
      </trkpt>
      <trkpt lat="45.24081" lon="3.14659">
        <ele>622.59</ele>
        <time>2024-12-01T09:31:03Z</time>
      </trkpt>
      <trkpt lat="45.2408" lon="3.14657">
        <ele>622.59</ele>
        <time>2024-12-01T09:31:05Z</time>
      </trkpt>
      <trkpt lat="45.24076" lon="3.14655">
        <ele>624.03</ele>
        <time>2024-12-01T09:31:08Z</time>
      </trkpt>
      <trkpt lat="45.2407" lon="3.14646">
        <ele>624.03</ele>
        <time>2024-12-01T09:31:15Z</time>
      </trkpt>
      <trkpt lat="45.24068" lon="3.14645">
        <ele>623.07</ele>
        <time>2024-12-01T09:31:17Z</time>
      </trkpt>
      <trkpt lat="45.2406" lon="3.14632">
        <ele>620.67</ele>
        <time>2024-12-01T09:31:28Z</time>
      </trkpt>
      <trkpt lat="45.24052" lon="3.14619">
        <ele>615.86</ele>
        <time>2024-12-01T09:31:37Z</time>
      </trkpt>
      <trkpt lat="45.24039" lon="3.14588">
        <ele>606.25</ele>
        <time>2024-12-01T09:31:53Z</time>
      </trkpt>
      <trkpt lat="45.2403" lon="3.14561">
        <ele>600.96</ele>
        <time>2024-12-01T09:32:08Z</time>
      </trkpt>
      <trkpt lat="45.24019" lon="3.14532">
        <ele>596.64</ele>
        <time>2024-12-01T09:32:25Z</time>
      </trkpt>
      <trkpt lat="45.24016" lon="3.14526">
        <ele>596.64</ele>
        <time>2024-12-01T09:32:29Z</time>
      </trkpt>
      <trkpt lat="45.24011" lon="3.14521">
        <ele>596.15</ele>
        <time>2024-12-01T09:32:34Z</time>
      </trkpt>
      <trkpt lat="45.24006" lon="3.14514">
        <ele>595.19</ele>
        <time>2024-12-01T09:32:39Z</time>
      </trkpt>
      <trkpt lat="45.24002" lon="3.14485">
        <ele>594.23</ele>
        <time>2024-12-01T09:32:57Z</time>
      </trkpt>
      <trkpt lat="45.24003" lon="3.14472">
        <ele>592.31</ele>
        <time>2024-12-01T09:33:07Z</time>
      </trkpt>
      <trkpt lat="45.23997" lon="3.14465">
        <ele>590.87</ele>
        <time>2024-12-01T09:33:13Z</time>
      </trkpt>
      <trkpt lat="45.23979" lon="3.14445">
        <ele>588.46</ele>
        <time>2024-12-01T09:33:32Z</time>
      </trkpt>
      <trkpt lat="45.23972" lon="3.14439">
        <ele>586.54</ele>
        <time>2024-12-01T09:33:38Z</time>
      </trkpt>
      <trkpt lat="45.23964" lon="3.14434">
        <ele>587.5</ele>
        <time>2024-12-01T09:33:51Z</time>
      </trkpt>
      <trkpt lat="45.23964" lon="3.14431">
        <ele>585.1</ele>
        <time>2024-12-01T09:34:04Z</time>
      </trkpt>
      <trkpt lat="45.23965" lon="3.14431">
        <ele>584.14</ele>
        <time>2024-12-01T09:34:22Z</time>
      </trkpt>
      <trkpt lat="45.23964" lon="3.14434">
        <ele>584.14</ele>
        <time>2024-12-01T09:34:34Z</time>
      </trkpt>
      <trkpt lat="45.23964" lon="3.14435">
        <ele>585.58</ele>
        <time>2024-12-01T09:34:46Z</time>
      </trkpt>
      <trkpt lat="45.23964" lon="3.14436">
        <ele>584.62</ele>
        <time>2024-12-01T09:34:59Z</time>
      </trkpt>
      <trkpt lat="45.23964" lon="3.14436">
        <ele>582.7</ele>
        <time>2024-12-01T09:35:17Z</time>
      </trkpt>
      <trkpt lat="45.23964" lon="3.1443">
        <ele>583.66</ele>
        <time>2024-12-01T09:35:32Z</time>
      </trkpt>
      <trkpt lat="45.23961" lon="3.14429">
        <ele>584.14</ele>
        <time>2024-12-01T09:35:42Z</time>
      </trkpt>
      <trkpt lat="45.23959" lon="3.14428">
        <ele>586.06</ele>
        <time>2024-12-01T09:36:00Z</time>
      </trkpt>
      <trkpt lat="45.2396" lon="3.14429">
        <ele>586.54</ele>
        <time>2024-12-01T09:36:15Z</time>
      </trkpt>
      <trkpt lat="45.23963" lon="3.14428">
        <ele>584.62</ele>
        <time>2024-12-01T09:36:38Z</time>
      </trkpt>
      <trkpt lat="45.23963" lon="3.14429">
        <ele>585.1</ele>
        <time>2024-12-01T09:36:51Z</time>
      </trkpt>
      <trkpt lat="45.23963" lon="3.14429">
        <ele>584.62</ele>
        <time>2024-12-01T09:37:04Z</time>
      </trkpt>
      <trkpt lat="45.23963" lon="3.14429">
        <ele>584.14</ele>
        <time>2024-12-01T09:37:20Z</time>
      </trkpt>
      <trkpt lat="45.23963" lon="3.14429">
        <ele>585.1</ele>
        <time>2024-12-01T09:37:41Z</time>
      </trkpt>
      <trkpt lat="45.23961" lon="3.14429">
        <ele>584.14</ele>
        <time>2024-12-01T09:37:59Z</time>
      </trkpt>
      <trkpt lat="45.23959" lon="3.14433">
        <ele>585.1</ele>
        <time>2024-12-01T09:38:15Z</time>
      </trkpt>
      <trkpt lat="45.2396" lon="3.14431">
        <ele>585.58</ele>
        <time>2024-12-01T09:38:27Z</time>
      </trkpt>
      <trkpt lat="45.23963" lon="3.1443">
        <ele>586.54</ele>
        <time>2024-12-01T09:38:40Z</time>
      </trkpt>
      <trkpt lat="45.23964" lon="3.14428">
        <ele>587.5</ele>
        <time>2024-12-01T09:38:58Z</time>
      </trkpt>
      <trkpt lat="45.23966" lon="3.14424">
        <ele>587.98</ele>
        <time>2024-12-01T09:39:03Z</time>
      </trkpt>
      <trkpt lat="45.2397" lon="3.14416">
        <ele>588.95</ele>
        <time>2024-12-01T09:39:09Z</time>
      </trkpt>
      <trkpt lat="45.23985" lon="3.14395">
        <ele>588.46</ele>
        <time>2024-12-01T09:39:27Z</time>
      </trkpt>
      <trkpt lat="45.23998" lon="3.14382">
        <ele>588.95</ele>
        <time>2024-12-01T09:39:42Z</time>
      </trkpt>
      <trkpt lat="45.24009" lon="3.14372">
        <ele>588.95</ele>
        <time>2024-12-01T09:39:54Z</time>
      </trkpt>
      <trkpt lat="45.24019" lon="3.14356">
        <ele>590.87</ele>
        <time>2024-12-01T09:40:07Z</time>
      </trkpt>
      <trkpt lat="45.24013" lon="3.14343">
        <ele>592.31</ele>
        <time>2024-12-01T09:40:19Z</time>
      </trkpt>
      <trkpt lat="45.24011" lon="3.14342">
        <ele>592.31</ele>
        <time>2024-12-01T09:40:21Z</time>
      </trkpt>
      <trkpt lat="45.23995" lon="3.14342">
        <ele>595.19</ele>
        <time>2024-12-01T09:40:36Z</time>
      </trkpt>
      <trkpt lat="45.23979" lon="3.14345">
        <ele>598.08</ele>
        <time>2024-12-01T09:40:51Z</time>
      </trkpt>
      <trkpt lat="45.23959" lon="3.14338">
        <ele>597.12</ele>
        <time>2024-12-01T09:41:07Z</time>
      </trkpt>
      <trkpt lat="45.23946" lon="3.14321">
        <ele>599.52</ele>
        <time>2024-12-01T09:41:22Z</time>
      </trkpt>
      <trkpt lat="45.23945" lon="3.14313">
        <ele>600.48</ele>
        <time>2024-12-01T09:41:35Z</time>
      </trkpt>
      <trkpt lat="45.2395" lon="3.14308">
        <ele>601.44</ele>
        <time>2024-12-01T09:41:48Z</time>
      </trkpt>
      <trkpt lat="45.23957" lon="3.14311">
        <ele>605.29</ele>
        <time>2024-12-01T09:42:02Z</time>
      </trkpt>
      <trkpt lat="45.2396" lon="3.14314">
        <ele>606.25</ele>
        <time>2024-12-01T09:42:07Z</time>
      </trkpt>
      <trkpt lat="45.23962" lon="3.14316">
        <ele>606.73</ele>
        <time>2024-12-01T09:42:09Z</time>
      </trkpt>
      <trkpt lat="45.2397" lon="3.14313">
        <ele>609.61</ele>
        <time>2024-12-01T09:42:25Z</time>
      </trkpt>
      <trkpt lat="45.23974" lon="3.14308">
        <ele>609.13</ele>
        <time>2024-12-01T09:42:39Z</time>
      </trkpt>
      <trkpt lat="45.23975" lon="3.14303">
        <ele>610.57</ele>
        <time>2024-12-01T09:42:51Z</time>
      </trkpt>
      <trkpt lat="45.23974" lon="3.14299">
        <ele>614.42</ele>
        <time>2024-12-01T09:43:03Z</time>
      </trkpt>
      <trkpt lat="45.23978" lon="3.14294">
        <ele>618.26</ele>
        <time>2024-12-01T09:43:18Z</time>
      </trkpt>
      <trkpt lat="45.2398" lon="3.14292">
        <ele>618.75</ele>
        <time>2024-12-01T09:43:31Z</time>
      </trkpt>
      <trkpt lat="45.23983" lon="3.14287">
        <ele>620.19</ele>
        <time>2024-12-01T09:43:42Z</time>
      </trkpt>
      <trkpt lat="45.23981" lon="3.14284">
        <ele>621.15</ele>
        <time>2024-12-01T09:43:54Z</time>
      </trkpt>
      <trkpt lat="45.23977" lon="3.14286">
        <ele>624.03</ele>
        <time>2024-12-01T09:44:06Z</time>
      </trkpt>
      <trkpt lat="45.23972" lon="3.14284">
        <ele>624.51</ele>
        <time>2024-12-01T09:44:17Z</time>
      </trkpt>
      <trkpt lat="45.2397" lon="3.14282">
        <ele>626.44</ele>
        <time>2024-12-01T09:44:32Z</time>
      </trkpt>
      <trkpt lat="45.23971" lon="3.14278">
        <ele>629.32</ele>
        <time>2024-12-01T09:44:42Z</time>
      </trkpt>
      <trkpt lat="45.23971" lon="3.14273">
        <ele>631.72</ele>
        <time>2024-12-01T09:44:52Z</time>
      </trkpt>
      <trkpt lat="45.23968" lon="3.14264">
        <ele>634.13</ele>
        <time>2024-12-01T09:45:03Z</time>
      </trkpt>
      <trkpt lat="45.23968" lon="3.14253">
        <ele>636.05</ele>
        <time>2024-12-01T09:45:14Z</time>
      </trkpt>
      <trkpt lat="45.23967" lon="3.1425">
        <ele>636.53</ele>
        <time>2024-12-01T09:45:17Z</time>
      </trkpt>
      <trkpt lat="45.23967" lon="3.14248">
        <ele>637.49</ele>
        <time>2024-12-01T09:45:21Z</time>
      </trkpt>
      <trkpt lat="45.23962" lon="3.14238">
        <ele>637.49</ele>
        <time>2024-12-01T09:45:35Z</time>
      </trkpt>
      <trkpt lat="45.23957" lon="3.14232">
        <ele>638.45</ele>
        <time>2024-12-01T09:45:49Z</time>
      </trkpt>
      <trkpt lat="45.23955" lon="3.14225">
        <ele>640.86</ele>
        <time>2024-12-01T09:46:02Z</time>
      </trkpt>
      <trkpt lat="45.23954" lon="3.1422">
        <ele>641.82</ele>
        <time>2024-12-01T09:46:14Z</time>
      </trkpt>
      <trkpt lat="45.23952" lon="3.14217">
        <ele>643.26</ele>
        <time>2024-12-01T09:46:27Z</time>
      </trkpt>
      <trkpt lat="45.23953" lon="3.14206">
        <ele>643.74</ele>
        <time>2024-12-01T09:46:39Z</time>
      </trkpt>
      <trkpt lat="45.23954" lon="3.14199">
        <ele>646.14</ele>
        <time>2024-12-01T09:46:51Z</time>
      </trkpt>
      <trkpt lat="45.23954" lon="3.14198">
        <ele>646.62</ele>
        <time>2024-12-01T09:46:53Z</time>
      </trkpt>
      <trkpt lat="45.23956" lon="3.14187">
        <ele>648.55</ele>
        <time>2024-12-01T09:47:06Z</time>
      </trkpt>
      <trkpt lat="45.23956" lon="3.14177">
        <ele>652.39</ele>
        <time>2024-12-01T09:47:20Z</time>
      </trkpt>
      <trkpt lat="45.23955" lon="3.14176">
        <ele>655.76</ele>
        <time>2024-12-01T09:47:35Z</time>
      </trkpt>
      <trkpt lat="45.23955" lon="3.14169">
        <ele>658.64</ele>
        <time>2024-12-01T09:47:46Z</time>
      </trkpt>
      <trkpt lat="45.23963" lon="3.14176">
        <ele>657.2</ele>
        <time>2024-12-01T09:47:58Z</time>
      </trkpt>
      <trkpt lat="45.23965" lon="3.14175">
        <ele>659.12</ele>
        <time>2024-12-01T09:48:12Z</time>
      </trkpt>
      <trkpt lat="45.23966" lon="3.14171">
        <ele>658.16</ele>
        <time>2024-12-01T09:48:26Z</time>
      </trkpt>
      <trkpt lat="45.23969" lon="3.14174">
        <ele>661.04</ele>
        <time>2024-12-01T09:48:37Z</time>
      </trkpt>
      <trkpt lat="45.23969" lon="3.14173">
        <ele>661.04</ele>
        <time>2024-12-01T09:48:53Z</time>
      </trkpt>
      <trkpt lat="45.2397" lon="3.14174">
        <ele>660.56</ele>
        <time>2024-12-01T09:49:10Z</time>
      </trkpt>
      <trkpt lat="45.2397" lon="3.14174">
        <ele>661.52</ele>
        <time>2024-12-01T09:49:24Z</time>
      </trkpt>
      <trkpt lat="45.23971" lon="3.14176">
        <ele>662.97</ele>
        <time>2024-12-01T09:49:47Z</time>
      </trkpt>
      <trkpt lat="45.2397" lon="3.14174">
        <ele>659.12</ele>
        <time>2024-12-01T09:50:04Z</time>
      </trkpt>
      <trkpt lat="45.2397" lon="3.14174">
        <ele>659.6</ele>
        <time>2024-12-01T09:50:22Z</time>
      </trkpt>
      <trkpt lat="45.23974" lon="3.14174">
        <ele>662.01</ele>
        <time>2024-12-01T09:50:37Z</time>
      </trkpt>
      <trkpt lat="45.23975" lon="3.14173">
        <ele>663.45</ele>
        <time>2024-12-01T09:50:47Z</time>
      </trkpt>
      <trkpt lat="45.23978" lon="3.14169">
        <ele>663.93</ele>
        <time>2024-12-01T09:50:52Z</time>
      </trkpt>
      <trkpt lat="45.23982" lon="3.14157">
        <ele>665.37</ele>
        <time>2024-12-01T09:51:02Z</time>
      </trkpt>
      <trkpt lat="45.23981" lon="3.14151">
        <ele>665.85</ele>
        <time>2024-12-01T09:51:06Z</time>
      </trkpt>
      <trkpt lat="45.2397" lon="3.14124">
        <ele>665.85</ele>
        <time>2024-12-01T09:51:23Z</time>
      </trkpt>
      <trkpt lat="45.23964" lon="3.14098">
        <ele>667.77</ele>
        <time>2024-12-01T09:51:40Z</time>
      </trkpt>
      <trkpt lat="45.23957" lon="3.14072">
        <ele>670.66</ele>
        <time>2024-12-01T09:51:57Z</time>
      </trkpt>
      <trkpt lat="45.23947" lon="3.1404">
        <ele>670.18</ele>
        <time>2024-12-01T09:52:17Z</time>
      </trkpt>
      <trkpt lat="45.23938" lon="3.14017">
        <ele>670.18</ele>
        <time>2024-12-01T09:52:33Z</time>
      </trkpt>
      <trkpt lat="45.2393" lon="3.14001">
        <ele>674.5</ele>
        <time>2024-12-01T09:52:48Z</time>
      </trkpt>
      <trkpt lat="45.23924" lon="3.13973">
        <ele>678.35</ele>
        <time>2024-12-01T09:53:07Z</time>
      </trkpt>
      <trkpt lat="45.23921" lon="3.13955">
        <ele>681.71</ele>
        <time>2024-12-01T09:53:20Z</time>
      </trkpt>
      <trkpt lat="45.23916" lon="3.13933">
        <ele>683.15</ele>
        <time>2024-12-01T09:53:36Z</time>
      </trkpt>
      <trkpt lat="45.23911" lon="3.1391">
        <ele>687</ele>
        <time>2024-12-01T09:53:52Z</time>
      </trkpt>
      <trkpt lat="45.23908" lon="3.1389">
        <ele>687.48</ele>
        <time>2024-12-01T09:54:06Z</time>
      </trkpt>
      <trkpt lat="45.23907" lon="3.13874">
        <ele>688.92</ele>
        <time>2024-12-01T09:54:17Z</time>
      </trkpt>
      <trkpt lat="45.23905" lon="3.13866">
        <ele>689.4</ele>
        <time>2024-12-01T09:54:22Z</time>
      </trkpt>
      <trkpt lat="45.23901" lon="3.13843">
        <ele>690.84</ele>
        <time>2024-12-01T09:54:37Z</time>
      </trkpt>
      <trkpt lat="45.23896" lon="3.13819">
        <ele>691.33</ele>
        <time>2024-12-01T09:54:53Z</time>
      </trkpt>
      <trkpt lat="45.23889" lon="3.13798">
        <ele>693.73</ele>
        <time>2024-12-01T09:55:08Z</time>
      </trkpt>
      <trkpt lat="45.23882" lon="3.13775">
        <ele>695.65</ele>
        <time>2024-12-01T09:55:24Z</time>
      </trkpt>
      <trkpt lat="45.23876" lon="3.13754">
        <ele>696.61</ele>
        <time>2024-12-01T09:55:38Z</time>
      </trkpt>
      <trkpt lat="45.23874" lon="3.13744">
        <ele>697.57</ele>
        <time>2024-12-01T09:55:45Z</time>
      </trkpt>
      <trkpt lat="45.23872" lon="3.13721">
        <ele>700.94</ele>
        <time>2024-12-01T09:55:59Z</time>
      </trkpt>
      <trkpt lat="45.23872" lon="3.13699">
        <ele>704.3</ele>
        <time>2024-12-01T09:56:13Z</time>
      </trkpt>
      <trkpt lat="45.23871" lon="3.13683">
        <ele>706.71</ele>
        <time>2024-12-01T09:56:23Z</time>
      </trkpt>
      <trkpt lat="45.23874" lon="3.13669">
        <ele>709.11</ele>
        <time>2024-12-01T09:56:33Z</time>
      </trkpt>
      <trkpt lat="45.23877" lon="3.13668">
        <ele>709.59</ele>
        <time>2024-12-01T09:56:36Z</time>
      </trkpt>
      <trkpt lat="45.23886" lon="3.13689">
        <ele>714.4</ele>
        <time>2024-12-01T09:56:51Z</time>
      </trkpt>
      <trkpt lat="45.23898" lon="3.13712">
        <ele>718.72</ele>
        <time>2024-12-01T09:57:09Z</time>
      </trkpt>
      <trkpt lat="45.23908" lon="3.13722">
        <ele>721.61</ele>
        <time>2024-12-01T09:57:22Z</time>
      </trkpt>
      <trkpt lat="45.23911" lon="3.13725">
        <ele>722.57</ele>
        <time>2024-12-01T09:57:25Z</time>
      </trkpt>
      <trkpt lat="45.23924" lon="3.13733">
        <ele>728.34</ele>
        <time>2024-12-01T09:57:40Z</time>
      </trkpt>
      <trkpt lat="45.23937" lon="3.1374">
        <ele>732.18</ele>
        <time>2024-12-01T09:57:55Z</time>
      </trkpt>
      <trkpt lat="45.2394" lon="3.13741">
        <ele>732.66</ele>
        <time>2024-12-01T09:57:58Z</time>
      </trkpt>
      <trkpt lat="45.23945" lon="3.13741">
        <ele>733.62</ele>
        <time>2024-12-01T09:58:03Z</time>
      </trkpt>
      <trkpt lat="45.23948" lon="3.13736">
        <ele>734.1</ele>
        <time>2024-12-01T09:58:08Z</time>
      </trkpt>
      <trkpt lat="45.23946" lon="3.13719">
        <ele>734.1</ele>
        <time>2024-12-01T09:58:23Z</time>
      </trkpt>
      <trkpt lat="45.23942" lon="3.13705">
        <ele>735.07</ele>
        <time>2024-12-01T09:58:35Z</time>
      </trkpt>
      <trkpt lat="45.23938" lon="3.13682">
        <ele>737.95</ele>
        <time>2024-12-01T09:58:51Z</time>
      </trkpt>
      <trkpt lat="45.23938" lon="3.13662">
        <ele>741.79</ele>
        <time>2024-12-01T09:59:05Z</time>
      </trkpt>
      <trkpt lat="45.2394" lon="3.1364">
        <ele>745.16</ele>
        <time>2024-12-01T09:59:19Z</time>
      </trkpt>
      <trkpt lat="45.2394" lon="3.13631">
        <ele>746.6</ele>
        <time>2024-12-01T09:59:25Z</time>
      </trkpt>
      <trkpt lat="45.23944" lon="3.13607">
        <ele>749</ele>
        <time>2024-12-01T09:59:42Z</time>
      </trkpt>
      <trkpt lat="45.23946" lon="3.13596">
        <ele>751.89</ele>
        <time>2024-12-01T09:59:49Z</time>
      </trkpt>
      <trkpt lat="45.23946" lon="3.13593">
        <ele>753.81</ele>
        <time>2024-12-01T09:59:52Z</time>
      </trkpt>
      <trkpt lat="45.23947" lon="3.13575">
        <ele>757.18</ele>
        <time>2024-12-01T10:00:05Z</time>
      </trkpt>
      <trkpt lat="45.23949" lon="3.13555">
        <ele>762.94</ele>
        <time>2024-12-01T10:00:19Z</time>
      </trkpt>
      <trkpt lat="45.23952" lon="3.1353">
        <ele>767.75</ele>
        <time>2024-12-01T10:00:35Z</time>
      </trkpt>
      <trkpt lat="45.23958" lon="3.13506">
        <ele>769.67</ele>
        <time>2024-12-01T10:00:50Z</time>
      </trkpt>
      <trkpt lat="45.23963" lon="3.13481">
        <ele>772.08</ele>
        <time>2024-12-01T10:01:06Z</time>
      </trkpt>
      <trkpt lat="45.23965" lon="3.13465">
        <ele>772.08</ele>
        <time>2024-12-01T10:01:20Z</time>
      </trkpt>
      <trkpt lat="45.23965" lon="3.13462">
        <ele>772.08</ele>
        <time>2024-12-01T10:01:32Z</time>
      </trkpt>
      <trkpt lat="45.23965" lon="3.13455">
        <ele>772.56</ele>
        <time>2024-12-01T10:01:50Z</time>
      </trkpt>
      <trkpt lat="45.23969" lon="3.13456">
        <ele>771.6</ele>
        <time>2024-12-01T10:02:08Z</time>
      </trkpt>
      <trkpt lat="45.23969" lon="3.13455">
        <ele>772.56</ele>
        <time>2024-12-01T10:02:24Z</time>
      </trkpt>
      <trkpt lat="45.2397" lon="3.13453">
        <ele>773.04</ele>
        <time>2024-12-01T10:02:40Z</time>
      </trkpt>
      <trkpt lat="45.2397" lon="3.13452">
        <ele>774</ele>
        <time>2024-12-01T10:02:58Z</time>
      </trkpt>
      <trkpt lat="45.23969" lon="3.13441">
        <ele>776.88</ele>
        <time>2024-12-01T10:03:14Z</time>
      </trkpt>
      <trkpt lat="45.2397" lon="3.13416">
        <ele>780.25</ele>
        <time>2024-12-01T10:03:31Z</time>
      </trkpt>
      <trkpt lat="45.23971" lon="3.13394">
        <ele>780.25</ele>
        <time>2024-12-01T10:03:46Z</time>
      </trkpt>
      <trkpt lat="45.23973" lon="3.13372">
        <ele>782.65</ele>
        <time>2024-12-01T10:04:01Z</time>
      </trkpt>
      <trkpt lat="45.23975" lon="3.13349">
        <ele>782.65</ele>
        <time>2024-12-01T10:04:14Z</time>
      </trkpt>
      <trkpt lat="45.23983" lon="3.13315">
        <ele>783.13</ele>
        <time>2024-12-01T10:04:34Z</time>
      </trkpt>
      <trkpt lat="45.23985" lon="3.13288">
        <ele>781.21</ele>
        <time>2024-12-01T10:04:49Z</time>
      </trkpt>
      <trkpt lat="45.23985" lon="3.13269">
        <ele>778.81</ele>
        <time>2024-12-01T10:05:04Z</time>
      </trkpt>
      <trkpt lat="45.23982" lon="3.13247">
        <ele>779.29</ele>
        <time>2024-12-01T10:05:20Z</time>
      </trkpt>
      <trkpt lat="45.23979" lon="3.13228">
        <ele>778.32</ele>
        <time>2024-12-01T10:05:35Z</time>
      </trkpt>
      <trkpt lat="45.23972" lon="3.13208">
        <ele>778.81</ele>
        <time>2024-12-01T10:05:50Z</time>
      </trkpt>
      <trkpt lat="45.23967" lon="3.13189">
        <ele>779.29</ele>
        <time>2024-12-01T10:06:04Z</time>
      </trkpt>
      <trkpt lat="45.23964" lon="3.13175">
        <ele>780.25</ele>
        <time>2024-12-01T10:06:15Z</time>
      </trkpt>
      <trkpt lat="45.23959" lon="3.13154">
        <ele>784.57</ele>
        <time>2024-12-01T10:06:29Z</time>
      </trkpt>
      <trkpt lat="45.23956" lon="3.13133">
        <ele>786.02</ele>
        <time>2024-12-01T10:06:44Z</time>
      </trkpt>
      <trkpt lat="45.23951" lon="3.13106">
        <ele>789.38</ele>
        <time>2024-12-01T10:07:01Z</time>
      </trkpt>
      <trkpt lat="45.23953" lon="3.13086">
        <ele>793.22</ele>
        <time>2024-12-01T10:07:17Z</time>
      </trkpt>
      <trkpt lat="45.23955" lon="3.13068">
        <ele>796.11</ele>
        <time>2024-12-01T10:07:32Z</time>
      </trkpt>
      <trkpt lat="45.23962" lon="3.13049">
        <ele>799.95</ele>
        <time>2024-12-01T10:07:46Z</time>
      </trkpt>
      <trkpt lat="45.23969" lon="3.13032">
        <ele>801.88</ele>
        <time>2024-12-01T10:08:00Z</time>
      </trkpt>
      <trkpt lat="45.23971" lon="3.13029">
        <ele>801.88</ele>
        <time>2024-12-01T10:08:02Z</time>
      </trkpt>
      <trkpt lat="45.23979" lon="3.13007">
        <ele>800.44</ele>
        <time>2024-12-01T10:08:17Z</time>
      </trkpt>
      <trkpt lat="45.23984" lon="3.12986">
        <ele>801.88</ele>
        <time>2024-12-01T10:08:31Z</time>
      </trkpt>
      <trkpt lat="45.2398" lon="3.1297">
        <ele>802.84</ele>
        <time>2024-12-01T10:08:46Z</time>
      </trkpt>
      <trkpt lat="45.23969" lon="3.12958">
        <ele>804.28</ele>
        <time>2024-12-01T10:09:01Z</time>
      </trkpt>
      <trkpt lat="45.23962" lon="3.1295">
        <ele>804.76</ele>
        <time>2024-12-01T10:09:13Z</time>
      </trkpt>
      <trkpt lat="45.23956" lon="3.12925">
        <ele>807.16</ele>
        <time>2024-12-01T10:09:28Z</time>
      </trkpt>
      <trkpt lat="45.23953" lon="3.12903">
        <ele>808.61</ele>
        <time>2024-12-01T10:09:43Z</time>
      </trkpt>
      <trkpt lat="45.2395" lon="3.12883">
        <ele>809.57</ele>
        <time>2024-12-01T10:09:56Z</time>
      </trkpt>
      <trkpt lat="45.23949" lon="3.12859">
        <ele>811.49</ele>
        <time>2024-12-01T10:10:11Z</time>
      </trkpt>
      <trkpt lat="45.23953" lon="3.12829">
        <ele>813.89</ele>
        <time>2024-12-01T10:10:28Z</time>
      </trkpt>
      <trkpt lat="45.2396" lon="3.128">
        <ele>815.34</ele>
        <time>2024-12-01T10:10:45Z</time>
      </trkpt>
      <trkpt lat="45.23964" lon="3.12774">
        <ele>815.34</ele>
        <time>2024-12-01T10:11:01Z</time>
      </trkpt>
      <trkpt lat="45.23967" lon="3.12747">
        <ele>819.66</ele>
        <time>2024-12-01T10:11:17Z</time>
      </trkpt>
      <trkpt lat="45.23972" lon="3.12721">
        <ele>820.62</ele>
        <time>2024-12-01T10:11:33Z</time>
      </trkpt>
      <trkpt lat="45.23972" lon="3.12693">
        <ele>821.1</ele>
        <time>2024-12-01T10:11:49Z</time>
      </trkpt>
      <trkpt lat="45.23977" lon="3.12665">
        <ele>823.51</ele>
        <time>2024-12-01T10:12:05Z</time>
      </trkpt>
      <trkpt lat="45.2398" lon="3.12638">
        <ele>824.47</ele>
        <time>2024-12-01T10:12:20Z</time>
      </trkpt>
      <trkpt lat="45.23979" lon="3.12609">
        <ele>826.39</ele>
        <time>2024-12-01T10:12:37Z</time>
      </trkpt>
      <trkpt lat="45.2398" lon="3.12577">
        <ele>826.87</ele>
        <time>2024-12-01T10:12:54Z</time>
      </trkpt>
      <trkpt lat="45.23983" lon="3.12551">
        <ele>828.79</ele>
        <time>2024-12-01T10:13:10Z</time>
      </trkpt>
      <trkpt lat="45.23984" lon="3.12541">
        <ele>828.79</ele>
        <time>2024-12-01T10:13:17Z</time>
      </trkpt>
      <trkpt lat="45.23988" lon="3.12515">
        <ele>829.76</ele>
        <time>2024-12-01T10:13:34Z</time>
      </trkpt>
      <trkpt lat="45.23988" lon="3.12513">
        <ele>830.24</ele>
        <time>2024-12-01T10:13:35Z</time>
      </trkpt>
      <trkpt lat="45.2399" lon="3.12489">
        <ele>834.56</ele>
        <time>2024-12-01T10:13:52Z</time>
      </trkpt>
      <trkpt lat="45.24001" lon="3.12464">
        <ele>837.93</ele>
        <time>2024-12-01T10:14:10Z</time>
      </trkpt>
      <trkpt lat="45.24004" lon="3.12462">
        <ele>838.41</ele>
        <time>2024-12-01T10:14:13Z</time>
      </trkpt>
      <trkpt lat="45.24007" lon="3.12452">
        <ele>839.37</ele>
        <time>2024-12-01T10:14:20Z</time>
      </trkpt>
      <trkpt lat="45.24015" lon="3.12434">
        <ele>839.85</ele>
        <time>2024-12-01T10:14:36Z</time>
      </trkpt>
      <trkpt lat="45.24015" lon="3.12433">
        <ele>839.37</ele>
        <time>2024-12-01T10:14:47Z</time>
      </trkpt>
      <trkpt lat="45.24022" lon="3.12426">
        <ele>841.77</ele>
        <time>2024-12-01T10:15:03Z</time>
      </trkpt>
      <trkpt lat="45.24028" lon="3.12416">
        <ele>842.25</ele>
        <time>2024-12-01T10:15:17Z</time>
      </trkpt>
      <trkpt lat="45.24036" lon="3.12395">
        <ele>843.69</ele>
        <time>2024-12-01T10:15:34Z</time>
      </trkpt>
      <trkpt lat="45.24038" lon="3.12391">
        <ele>843.69</ele>
        <time>2024-12-01T10:15:37Z</time>
      </trkpt>
      <trkpt lat="45.2404" lon="3.12384">
        <ele>844.18</ele>
        <time>2024-12-01T10:15:42Z</time>
      </trkpt>
      <trkpt lat="45.24042" lon="3.1238">
        <ele>845.62</ele>
        <time>2024-12-01T10:15:58Z</time>
      </trkpt>
      <trkpt lat="45.24042" lon="3.1238">
        <ele>846.1</ele>
        <time>2024-12-01T10:16:12Z</time>
      </trkpt>
      <trkpt lat="45.24045" lon="3.12372">
        <ele>845.62</ele>
        <time>2024-12-01T10:16:25Z</time>
      </trkpt>
      <trkpt lat="45.24044" lon="3.12349">
        <ele>844.18</ele>
        <time>2024-12-01T10:16:42Z</time>
      </trkpt>
      <trkpt lat="45.24039" lon="3.12318">
        <ele>840.81</ele>
        <time>2024-12-01T10:17:02Z</time>
      </trkpt>
      <trkpt lat="45.24036" lon="3.12303">
        <ele>840.81</ele>
        <time>2024-12-01T10:17:15Z</time>
      </trkpt>
      <trkpt lat="45.24035" lon="3.12301">
        <ele>840.81</ele>
        <time>2024-12-01T10:17:17Z</time>
      </trkpt>
      <trkpt lat="45.24025" lon="3.12276">
        <ele>838.41</ele>
        <time>2024-12-01T10:17:36Z</time>
      </trkpt>
      <trkpt lat="45.24013" lon="3.12251">
        <ele>838.41</ele>
        <time>2024-12-01T10:17:54Z</time>
      </trkpt>
      <trkpt lat="45.24" lon="3.12227">
        <ele>836</ele>
        <time>2024-12-01T10:18:12Z</time>
      </trkpt>
      <trkpt lat="45.23981" lon="3.12206">
        <ele>833.12</ele>
        <time>2024-12-01T10:18:32Z</time>
      </trkpt>
      <trkpt lat="45.23959" lon="3.12187">
        <ele>829.76</ele>
        <time>2024-12-01T10:18:52Z</time>
      </trkpt>
      <trkpt lat="45.23945" lon="3.12161">
        <ele>826.39</ele>
        <time>2024-12-01T10:19:09Z</time>
      </trkpt>
      <trkpt lat="45.23946" lon="3.12137">
        <ele>823.03</ele>
        <time>2024-12-01T10:19:27Z</time>
      </trkpt>
      <trkpt lat="45.23945" lon="3.12136">
        <ele>822.55</ele>
        <time>2024-12-01T10:19:29Z</time>
      </trkpt>
      <trkpt lat="45.2393" lon="3.12128">
        <ele>818.7</ele>
        <time>2024-12-01T10:19:47Z</time>
      </trkpt>
      <trkpt lat="45.23921" lon="3.1212">
        <ele>817.26</ele>
        <time>2024-12-01T10:19:58Z</time>
      </trkpt>
      <trkpt lat="45.23901" lon="3.12107">
        <ele>812.93</ele>
        <time>2024-12-01T10:20:17Z</time>
      </trkpt>
      <trkpt lat="45.23891" lon="3.12101">
        <ele>811.49</ele>
        <time>2024-12-01T10:20:26Z</time>
      </trkpt>
      <trkpt lat="45.23877" lon="3.12096">
        <ele>811.97</ele>
        <time>2024-12-01T10:20:40Z</time>
      </trkpt>
      <trkpt lat="45.23869" lon="3.12088">
        <ele>810.53</ele>
        <time>2024-12-01T10:20:52Z</time>
      </trkpt>
      <trkpt lat="45.23868" lon="3.12086">
        <ele>809.57</ele>
        <time>2024-12-01T10:20:54Z</time>
      </trkpt>
      <trkpt lat="45.23865" lon="3.12082">
        <ele>808.13</ele>
        <time>2024-12-01T10:20:58Z</time>
      </trkpt>
      <trkpt lat="45.23858" lon="3.12075">
        <ele>805.24</ele>
        <time>2024-12-01T10:21:07Z</time>
      </trkpt>
      <trkpt lat="45.23852" lon="3.1207">
        <ele>804.76</ele>
        <time>2024-12-01T10:21:13Z</time>
      </trkpt>
      <trkpt lat="45.23832" lon="3.12064">
        <ele>800.44</ele>
        <time>2024-12-01T10:21:31Z</time>
      </trkpt>
      <trkpt lat="45.23815" lon="3.12057">
        <ele>797.07</ele>
        <time>2024-12-01T10:21:46Z</time>
      </trkpt>
      <trkpt lat="45.23802" lon="3.12052">
        <ele>795.15</ele>
        <time>2024-12-01T10:22:02Z</time>
      </trkpt>
      <trkpt lat="45.238" lon="3.12051">
        <ele>793.71</ele>
        <time>2024-12-01T10:22:16Z</time>
      </trkpt>
      <trkpt lat="45.23782" lon="3.12045">
        <ele>791.3</ele>
        <time>2024-12-01T10:22:32Z</time>
      </trkpt>
      <trkpt lat="45.23764" lon="3.12037">
        <ele>789.38</ele>
        <time>2024-12-01T10:22:47Z</time>
      </trkpt>
      <trkpt lat="45.23743" lon="3.12034">
        <ele>786.02</ele>
        <time>2024-12-01T10:23:03Z</time>
      </trkpt>
      <trkpt lat="45.23725" lon="3.12037">
        <ele>785.05</ele>
        <time>2024-12-01T10:23:18Z</time>
      </trkpt>
      <trkpt lat="45.23711" lon="3.12042">
        <ele>786.02</ele>
        <time>2024-12-01T10:23:30Z</time>
      </trkpt>
      <trkpt lat="45.23697" lon="3.12049">
        <ele>784.09</ele>
        <time>2024-12-01T10:23:43Z</time>
      </trkpt>
      <trkpt lat="45.23679" lon="3.12053">
        <ele>781.21</ele>
        <time>2024-12-01T10:23:58Z</time>
      </trkpt>
      <trkpt lat="45.23672" lon="3.12058">
        <ele>781.69</ele>
        <time>2024-12-01T10:24:04Z</time>
      </trkpt>
      <trkpt lat="45.23654" lon="3.12066">
        <ele>780.73</ele>
        <time>2024-12-01T10:24:18Z</time>
      </trkpt>
      <trkpt lat="45.23644" lon="3.12071">
        <ele>778.81</ele>
        <time>2024-12-01T10:24:28Z</time>
      </trkpt>
      <trkpt lat="45.23642" lon="3.12072">
        <ele>778.81</ele>
        <time>2024-12-01T10:24:30Z</time>
      </trkpt>
      <trkpt lat="45.23634" lon="3.12071">
        <ele>776.88</ele>
        <time>2024-12-01T10:24:37Z</time>
      </trkpt>
      <trkpt lat="45.2362" lon="3.12074">
        <ele>774.96</ele>
        <time>2024-12-01T10:24:48Z</time>
      </trkpt>
      <trkpt lat="45.23612" lon="3.12073">
        <ele>773.04</ele>
        <time>2024-12-01T10:24:56Z</time>
      </trkpt>
      <trkpt lat="45.23606" lon="3.12075">
        <ele>772.08</ele>
        <time>2024-12-01T10:25:01Z</time>
      </trkpt>
      <trkpt lat="45.23591" lon="3.12078">
        <ele>768.71</ele>
        <time>2024-12-01T10:25:14Z</time>
      </trkpt>
      <trkpt lat="45.23572" lon="3.12086">
        <ele>764.87</ele>
        <time>2024-12-01T10:25:31Z</time>
      </trkpt>
      <trkpt lat="45.23566" lon="3.12091">
        <ele>764.39</ele>
        <time>2024-12-01T10:25:38Z</time>
      </trkpt>
      <trkpt lat="45.23547" lon="3.12096">
        <ele>760.06</ele>
        <time>2024-12-01T10:25:55Z</time>
      </trkpt>
      <trkpt lat="45.23543" lon="3.12098">
        <ele>759.1</ele>
        <time>2024-12-01T10:26:00Z</time>
      </trkpt>
      <trkpt lat="45.23525" lon="3.12104">
        <ele>754.77</ele>
        <time>2024-12-01T10:26:17Z</time>
      </trkpt>
      <trkpt lat="45.23507" lon="3.12111">
        <ele>751.41</ele>
        <time>2024-12-01T10:26:32Z</time>
      </trkpt>
      <trkpt lat="45.23487" lon="3.12115">
        <ele>750.93</ele>
        <time>2024-12-01T10:26:50Z</time>
      </trkpt>
      <trkpt lat="45.23474" lon="3.12117">
        <ele>750.93</ele>
        <time>2024-12-01T10:27:01Z</time>
      </trkpt>
      <trkpt lat="45.23454" lon="3.12135">
        <ele>748.04</ele>
        <time>2024-12-01T10:27:19Z</time>
      </trkpt>
      <trkpt lat="45.23447" lon="3.12141">
        <ele>747.56</ele>
        <time>2024-12-01T10:27:25Z</time>
      </trkpt>
      <trkpt lat="45.23445" lon="3.12145">
        <ele>746.6</ele>
        <time>2024-12-01T10:27:28Z</time>
      </trkpt>
      <trkpt lat="45.23435" lon="3.12165">
        <ele>741.31</ele>
        <time>2024-12-01T10:27:42Z</time>
      </trkpt>
      <trkpt lat="45.23433" lon="3.1218">
        <ele>737.95</ele>
        <time>2024-12-01T10:27:52Z</time>
      </trkpt>
      <trkpt lat="45.23431" lon="3.12193">
        <ele>735.55</ele>
        <time>2024-12-01T10:28:03Z</time>
      </trkpt>
      <trkpt lat="45.23429" lon="3.1221">
        <ele>732.66</ele>
        <time>2024-12-01T10:28:14Z</time>
      </trkpt>
      <trkpt lat="45.23429" lon="3.1224">
        <ele>731.7</ele>
        <time>2024-12-01T10:28:30Z</time>
      </trkpt>
      <trkpt lat="45.23427" lon="3.12277">
        <ele>732.18</ele>
        <time>2024-12-01T10:28:50Z</time>
      </trkpt>
      <trkpt lat="45.23424" lon="3.123">
        <ele>729.3</ele>
        <time>2024-12-01T10:29:06Z</time>
      </trkpt>
      <trkpt lat="45.23423" lon="3.12319">
        <ele>726.89</ele>
        <time>2024-12-01T10:29:20Z</time>
      </trkpt>
      <trkpt lat="45.23423" lon="3.12331">
        <ele>726.41</ele>
        <time>2024-12-01T10:29:32Z</time>
      </trkpt>
      <trkpt lat="45.23419" lon="3.12356">
        <ele>724.49</ele>
        <time>2024-12-01T10:29:46Z</time>
      </trkpt>
      <trkpt lat="45.23415" lon="3.12363">
        <ele>723.05</ele>
        <time>2024-12-01T10:29:58Z</time>
      </trkpt>
      <trkpt lat="45.23412" lon="3.12365">
        <ele>723.05</ele>
        <time>2024-12-01T10:30:06Z</time>
      </trkpt>
      <trkpt lat="45.23412" lon="3.12366">
        <ele>725.93</ele>
        <time>2024-12-01T10:30:24Z</time>
      </trkpt>
      <trkpt lat="45.23412" lon="3.12363">
        <ele>725.93</ele>
        <time>2024-12-01T10:30:47Z</time>
      </trkpt>
      <trkpt lat="45.23405" lon="3.12368">
        <ele>725.93</ele>
        <time>2024-12-01T10:30:52Z</time>
      </trkpt>
      <trkpt lat="45.23403" lon="3.12369">
        <ele>725.93</ele>
        <time>2024-12-01T10:30:53Z</time>
      </trkpt>
      <trkpt lat="45.23402" lon="3.1237">
        <ele>725.93</ele>
        <time>2024-12-01T10:30:54Z</time>
      </trkpt>
      <trkpt lat="45.23378" lon="3.12373">
        <ele>722.57</ele>
        <time>2024-12-01T10:31:06Z</time>
      </trkpt>
      <trkpt lat="45.23366" lon="3.12373">
        <ele>722.09</ele>
        <time>2024-12-01T10:31:12Z</time>
      </trkpt>
      <trkpt lat="45.23365" lon="3.12373">
        <ele>721.61</ele>
        <time>2024-12-01T10:31:13Z</time>
      </trkpt>
      <trkpt lat="45.23364" lon="3.12374">
        <ele>721.61</ele>
        <time>2024-12-01T10:31:14Z</time>
      </trkpt>
      <trkpt lat="45.23362" lon="3.12376">
        <ele>721.13</ele>
        <time>2024-12-01T10:31:15Z</time>
      </trkpt>
      <trkpt lat="45.23361" lon="3.12378">
        <ele>721.13</ele>
        <time>2024-12-01T10:31:16Z</time>
      </trkpt>
      <trkpt lat="45.23343" lon="3.12392">
        <ele>717.28</ele>
        <time>2024-12-01T10:31:27Z</time>
      </trkpt>
      <trkpt lat="45.23335" lon="3.12399">
        <ele>716.32</ele>
        <time>2024-12-01T10:31:38Z</time>
      </trkpt>
      <trkpt lat="45.23332" lon="3.12401">
        <ele>713.92</ele>
        <time>2024-12-01T10:31:52Z</time>
      </trkpt>
      <trkpt lat="45.23323" lon="3.12413">
        <ele>713.44</ele>
        <time>2024-12-01T10:32:06Z</time>
      </trkpt>
      <trkpt lat="45.23312" lon="3.12424">
        <ele>709.11</ele>
        <time>2024-12-01T10:32:19Z</time>
      </trkpt>
      <trkpt lat="45.23311" lon="3.12425">
        <ele>709.11</ele>
        <time>2024-12-01T10:32:20Z</time>
      </trkpt>
      <trkpt lat="45.2331" lon="3.12426">
        <ele>708.63</ele>
        <time>2024-12-01T10:32:21Z</time>
      </trkpt>
      <trkpt lat="45.23295" lon="3.12445">
        <ele>701.42</ele>
        <time>2024-12-01T10:32:38Z</time>
      </trkpt>
      <trkpt lat="45.23288" lon="3.12456">
        <ele>698.53</ele>
        <time>2024-12-01T10:32:48Z</time>
      </trkpt>
      <trkpt lat="45.2328" lon="3.12469">
        <ele>695.65</ele>
        <time>2024-12-01T10:33:00Z</time>
      </trkpt>
      <trkpt lat="45.23269" lon="3.12485">
        <ele>693.25</ele>
        <time>2024-12-01T10:33:15Z</time>
      </trkpt>
      <trkpt lat="45.23268" lon="3.12488">
        <ele>692.29</ele>
        <time>2024-12-01T10:33:17Z</time>
      </trkpt>
      <trkpt lat="45.23264" lon="3.12491">
        <ele>690.84</ele>
        <time>2024-12-01T10:33:22Z</time>
      </trkpt>
      <trkpt lat="45.23262" lon="3.12486">
        <ele>688.92</ele>
        <time>2024-12-01T10:33:27Z</time>
      </trkpt>
      <trkpt lat="45.23264" lon="3.12463">
        <ele>687.48</ele>
        <time>2024-12-01T10:33:42Z</time>
      </trkpt>
      <trkpt lat="45.23267" lon="3.12447">
        <ele>685.08</ele>
        <time>2024-12-01T10:33:54Z</time>
      </trkpt>
      <trkpt lat="45.23267" lon="3.12446">
        <ele>685.08</ele>
        <time>2024-12-01T10:33:55Z</time>
      </trkpt>
      <trkpt lat="45.23267" lon="3.12444">
        <ele>684.6</ele>
        <time>2024-12-01T10:33:56Z</time>
      </trkpt>
      <trkpt lat="45.23267" lon="3.12443">
        <ele>684.12</ele>
        <time>2024-12-01T10:33:57Z</time>
      </trkpt>
      <trkpt lat="45.23265" lon="3.12442">
        <ele>683.63</ele>
        <time>2024-12-01T10:33:59Z</time>
      </trkpt>
      <trkpt lat="45.23264" lon="3.12442">
        <ele>683.15</ele>
        <time>2024-12-01T10:34:01Z</time>
      </trkpt>
      <trkpt lat="45.23264" lon="3.12443">
        <ele>682.67</ele>
        <time>2024-12-01T10:34:02Z</time>
      </trkpt>
      <trkpt lat="45.23263" lon="3.12445">
        <ele>682.19</ele>
        <time>2024-12-01T10:34:03Z</time>
      </trkpt>
      <trkpt lat="45.23256" lon="3.12457">
        <ele>679.31</ele>
        <time>2024-12-01T10:34:16Z</time>
      </trkpt>
      <trkpt lat="45.23255" lon="3.12458">
        <ele>679.31</ele>
        <time>2024-12-01T10:34:17Z</time>
      </trkpt>
      <trkpt lat="45.23252" lon="3.12464">
        <ele>677.39</ele>
        <time>2024-12-01T10:34:22Z</time>
      </trkpt>
      <trkpt lat="45.23252" lon="3.12464">
        <ele>677.39</ele>
        <time>2024-12-01T10:34:23Z</time>
      </trkpt>
      <trkpt lat="45.23249" lon="3.12467">
        <ele>676.42</ele>
        <time>2024-12-01T10:34:26Z</time>
      </trkpt>
      <trkpt lat="45.23236" lon="3.12485">
        <ele>671.14</ele>
        <time>2024-12-01T10:34:42Z</time>
      </trkpt>
      <trkpt lat="45.23222" lon="3.12503">
        <ele>667.29</ele>
        <time>2024-12-01T10:35:00Z</time>
      </trkpt>
      <trkpt lat="45.23209" lon="3.12516">
        <ele>664.41</ele>
        <time>2024-12-01T10:35:15Z</time>
      </trkpt>
      <trkpt lat="45.232" lon="3.12528">
        <ele>663.45</ele>
        <time>2024-12-01T10:35:26Z</time>
      </trkpt>
      <trkpt lat="45.23199" lon="3.1253">
        <ele>663.45</ele>
        <time>2024-12-01T10:35:27Z</time>
      </trkpt>
      <trkpt lat="45.23199" lon="3.12531">
        <ele>662.97</ele>
        <time>2024-12-01T10:35:28Z</time>
      </trkpt>
      <trkpt lat="45.23198" lon="3.12532">
        <ele>662.97</ele>
        <time>2024-12-01T10:35:29Z</time>
      </trkpt>
      <trkpt lat="45.23197" lon="3.12533">
        <ele>662.97</ele>
        <time>2024-12-01T10:35:30Z</time>
      </trkpt>
      <trkpt lat="45.23197" lon="3.12534">
        <ele>662.97</ele>
        <time>2024-12-01T10:35:31Z</time>
      </trkpt>
      <trkpt lat="45.23196" lon="3.12536">
        <ele>662.97</ele>
        <time>2024-12-01T10:35:32Z</time>
      </trkpt>
      <trkpt lat="45.23195" lon="3.12537">
        <ele>662.97</ele>
        <time>2024-12-01T10:35:33Z</time>
      </trkpt>
      <trkpt lat="45.23188" lon="3.12548">
        <ele>662.49</ele>
        <time>2024-12-01T10:35:43Z</time>
      </trkpt>
      <trkpt lat="45.23187" lon="3.12551">
        <ele>662.01</ele>
        <time>2024-12-01T10:35:46Z</time>
      </trkpt>
      <trkpt lat="45.23177" lon="3.12576">
        <ele>658.16</ele>
        <time>2024-12-01T10:36:05Z</time>
      </trkpt>
      <trkpt lat="45.23174" lon="3.12601">
        <ele>651.43</ele>
        <time>2024-12-01T10:36:21Z</time>
      </trkpt>
      <trkpt lat="45.2317" lon="3.12615">
        <ele>648.07</ele>
        <time>2024-12-01T10:36:31Z</time>
      </trkpt>
      <trkpt lat="45.2317" lon="3.12617">
        <ele>647.59</ele>
        <time>2024-12-01T10:36:32Z</time>
      </trkpt>
      <trkpt lat="45.23173" lon="3.12631">
        <ele>643.26</ele>
        <time>2024-12-01T10:36:46Z</time>
      </trkpt>
      <trkpt lat="45.23168" lon="3.12632">
        <ele>641.82</ele>
        <time>2024-12-01T10:36:52Z</time>
      </trkpt>
      <trkpt lat="45.23167" lon="3.12631">
        <ele>641.34</ele>
        <time>2024-12-01T10:36:53Z</time>
      </trkpt>
      <trkpt lat="45.23166" lon="3.12631">
        <ele>641.34</ele>
        <time>2024-12-01T10:36:54Z</time>
      </trkpt>
      <trkpt lat="45.23151" lon="3.12619">
        <ele>634.13</ele>
        <time>2024-12-01T10:37:10Z</time>
      </trkpt>
      <trkpt lat="45.23138" lon="3.12599">
        <ele>625.96</ele>
        <time>2024-12-01T10:37:25Z</time>
      </trkpt>
      <trkpt lat="45.23136" lon="3.12595">
        <ele>624.99</ele>
        <time>2024-12-01T10:37:29Z</time>
      </trkpt>
      <trkpt lat="45.23135" lon="3.12593">
        <ele>624.51</ele>
        <time>2024-12-01T10:37:30Z</time>
      </trkpt>
      <trkpt lat="45.23135" lon="3.12592">
        <ele>624.51</ele>
        <time>2024-12-01T10:37:31Z</time>
      </trkpt>
      <trkpt lat="45.23134" lon="3.1259">
        <ele>624.03</ele>
        <time>2024-12-01T10:37:32Z</time>
      </trkpt>
      <trkpt lat="45.23134" lon="3.12589">
        <ele>624.03</ele>
        <time>2024-12-01T10:37:33Z</time>
      </trkpt>
      <trkpt lat="45.23133" lon="3.12588">
        <ele>623.55</ele>
        <time>2024-12-01T10:37:34Z</time>
      </trkpt>
      <trkpt lat="45.23132" lon="3.12587">
        <ele>623.55</ele>
        <time>2024-12-01T10:37:35Z</time>
      </trkpt>
      <trkpt lat="45.23131" lon="3.12586">
        <ele>623.55</ele>
        <time>2024-12-01T10:37:36Z</time>
      </trkpt>
      <trkpt lat="45.2313" lon="3.12585">
        <ele>623.07</ele>
        <time>2024-12-01T10:37:37Z</time>
      </trkpt>
      <trkpt lat="45.2313" lon="3.12583">
        <ele>622.59</ele>
        <time>2024-12-01T10:37:38Z</time>
      </trkpt>
      <trkpt lat="45.23129" lon="3.12581">
        <ele>622.59</ele>
        <time>2024-12-01T10:37:39Z</time>
      </trkpt>
      <trkpt lat="45.23129" lon="3.1258">
        <ele>622.11</ele>
        <time>2024-12-01T10:37:40Z</time>
      </trkpt>
      <trkpt lat="45.23129" lon="3.12578">
        <ele>621.63</ele>
        <time>2024-12-01T10:37:41Z</time>
      </trkpt>
      <trkpt lat="45.23129" lon="3.12575">
        <ele>621.63</ele>
        <time>2024-12-01T10:37:42Z</time>
      </trkpt>
      <trkpt lat="45.23128" lon="3.12566">
        <ele>618.75</ele>
        <time>2024-12-01T10:37:48Z</time>
      </trkpt>
      <trkpt lat="45.23127" lon="3.12567">
        <ele>618.26</ele>
        <time>2024-12-01T10:37:49Z</time>
      </trkpt>
      <trkpt lat="45.23126" lon="3.12568">
        <ele>618.26</ele>
        <time>2024-12-01T10:37:50Z</time>
      </trkpt>
      <trkpt lat="45.23125" lon="3.12569">
        <ele>618.26</ele>
        <time>2024-12-01T10:37:51Z</time>
      </trkpt>
      <trkpt lat="45.23125" lon="3.1257">
        <ele>618.26</ele>
        <time>2024-12-01T10:37:52Z</time>
      </trkpt>
      <trkpt lat="45.23117" lon="3.12594">
        <ele>616.82</ele>
        <time>2024-12-01T10:38:07Z</time>
      </trkpt>
      <trkpt lat="45.2311" lon="3.12615">
        <ele>615.38</ele>
        <time>2024-12-01T10:38:23Z</time>
      </trkpt>
      <trkpt lat="45.23103" lon="3.12634">
        <ele>613.46</ele>
        <time>2024-12-01T10:38:37Z</time>
      </trkpt>
      <trkpt lat="45.23092" lon="3.12639">
        <ele>610.57</ele>
        <time>2024-12-01T10:38:50Z</time>
      </trkpt>
      <trkpt lat="45.23088" lon="3.12637">
        <ele>607.69</ele>
        <time>2024-12-01T10:38:58Z</time>
      </trkpt>
      <trkpt lat="45.23087" lon="3.12638">
        <ele>608.17</ele>
        <time>2024-12-01T10:39:08Z</time>
      </trkpt>
      <trkpt lat="45.23089" lon="3.12639">
        <ele>607.21</ele>
        <time>2024-12-01T10:39:20Z</time>
      </trkpt>
      <trkpt lat="45.23089" lon="3.12639">
        <ele>605.29</ele>
        <time>2024-12-01T10:39:35Z</time>
      </trkpt>
      <trkpt lat="45.23089" lon="3.12639">
        <ele>604.33</ele>
        <time>2024-12-01T10:39:49Z</time>
      </trkpt>
      <trkpt lat="45.23089" lon="3.1264">
        <ele>602.88</ele>
        <time>2024-12-01T10:40:01Z</time>
      </trkpt>
      <trkpt lat="45.2309" lon="3.1264">
        <ele>602.4</ele>
        <time>2024-12-01T10:40:15Z</time>
      </trkpt>
      <trkpt lat="45.23088" lon="3.12641">
        <ele>602.4</ele>
        <time>2024-12-01T10:40:32Z</time>
      </trkpt>
      <trkpt lat="45.23089" lon="3.1264">
        <ele>600.48</ele>
        <time>2024-12-01T10:40:55Z</time>
      </trkpt>
      <trkpt lat="45.23089" lon="3.12641">
        <ele>600</ele>
        <time>2024-12-01T10:41:06Z</time>
      </trkpt>
      <trkpt lat="45.23089" lon="3.12642">
        <ele>599.52</ele>
        <time>2024-12-01T10:41:35Z</time>
      </trkpt>
      <trkpt lat="45.23087" lon="3.12641">
        <ele>598.08</ele>
        <time>2024-12-01T10:41:55Z</time>
      </trkpt>
      <trkpt lat="45.23083" lon="3.12644">
        <ele>599.52</ele>
        <time>2024-12-01T10:42:03Z</time>
      </trkpt>
      <trkpt lat="45.23067" lon="3.12656">
        <ele>600.48</ele>
        <time>2024-12-01T10:42:19Z</time>
      </trkpt>
      <trkpt lat="45.23047" lon="3.1267">
        <ele>596.64</ele>
        <time>2024-12-01T10:42:37Z</time>
      </trkpt>
      <trkpt lat="45.23031" lon="3.12675">
        <ele>595.67</ele>
        <time>2024-12-01T10:42:51Z</time>
      </trkpt>
      <trkpt lat="45.23015" lon="3.12691">
        <ele>600.48</ele>
        <time>2024-12-01T10:43:08Z</time>
      </trkpt>
      <trkpt lat="45.23007" lon="3.1271">
        <ele>601.44</ele>
        <time>2024-12-01T10:43:24Z</time>
      </trkpt>
      <trkpt lat="45.22995" lon="3.12733">
        <ele>598.56</ele>
        <time>2024-12-01T10:43:41Z</time>
      </trkpt>
      <trkpt lat="45.2298" lon="3.12761">
        <ele>597.6</ele>
        <time>2024-12-01T10:43:59Z</time>
      </trkpt>
      <trkpt lat="45.22958" lon="3.12779">
        <ele>596.64</ele>
        <time>2024-12-01T10:44:19Z</time>
      </trkpt>
      <trkpt lat="45.22936" lon="3.12766">
        <ele>593.75</ele>
        <time>2024-12-01T10:44:37Z</time>
      </trkpt>
      <trkpt lat="45.22914" lon="3.12745">
        <ele>593.27</ele>
        <time>2024-12-01T10:44:56Z</time>
      </trkpt>
      <trkpt lat="45.2291" lon="3.12742">
        <ele>592.31</ele>
        <time>2024-12-01T10:45:00Z</time>
      </trkpt>
      <trkpt lat="45.22909" lon="3.1274">
        <ele>592.31</ele>
        <time>2024-12-01T10:45:01Z</time>
      </trkpt>
      <trkpt lat="45.22907" lon="3.1274">
        <ele>592.31</ele>
        <time>2024-12-01T10:45:02Z</time>
      </trkpt>
      <trkpt lat="45.22906" lon="3.12739">
        <ele>592.31</ele>
        <time>2024-12-01T10:45:03Z</time>
      </trkpt>
      <trkpt lat="45.22905" lon="3.12738">
        <ele>592.31</ele>
        <time>2024-12-01T10:45:04Z</time>
      </trkpt>
      <trkpt lat="45.22904" lon="3.12737">
        <ele>592.31</ele>
        <time>2024-12-01T10:45:05Z</time>
      </trkpt>
      <trkpt lat="45.22882" lon="3.12722">
        <ele>591.83</ele>
        <time>2024-12-01T10:45:23Z</time>
      </trkpt>
      <trkpt lat="45.22864" lon="3.12706">
        <ele>593.75</ele>
        <time>2024-12-01T10:45:39Z</time>
      </trkpt>
      <trkpt lat="45.22859" lon="3.127">
        <ele>595.67</ele>
        <time>2024-12-01T10:45:48Z</time>
      </trkpt>
      <trkpt lat="45.22859" lon="3.12701">
        <ele>595.19</ele>
        <time>2024-12-01T10:45:49Z</time>
      </trkpt>
      <trkpt lat="45.22858" lon="3.12702">
        <ele>595.19</ele>
        <time>2024-12-01T10:45:50Z</time>
      </trkpt>
      <trkpt lat="45.22857" lon="3.12703">
        <ele>595.19</ele>
        <time>2024-12-01T10:45:51Z</time>
      </trkpt>
      <trkpt lat="45.22857" lon="3.12705">
        <ele>595.19</ele>
        <time>2024-12-01T10:45:52Z</time>
      </trkpt>
      <trkpt lat="45.22857" lon="3.12706">
        <ele>594.71</ele>
        <time>2024-12-01T10:45:53Z</time>
      </trkpt>
      <trkpt lat="45.22856" lon="3.12708">
        <ele>594.71</ele>
        <time>2024-12-01T10:45:54Z</time>
      </trkpt>
      <trkpt lat="45.22856" lon="3.12709">
        <ele>594.71</ele>
        <time>2024-12-01T10:45:55Z</time>
      </trkpt>
      <trkpt lat="45.22855" lon="3.12711">
        <ele>594.71</ele>
        <time>2024-12-01T10:45:56Z</time>
      </trkpt>
      <trkpt lat="45.22853" lon="3.12716">
        <ele>594.71</ele>
        <time>2024-12-01T10:45:59Z</time>
      </trkpt>
      <trkpt lat="45.22853" lon="3.12718">
        <ele>594.71</ele>
        <time>2024-12-01T10:46:00Z</time>
      </trkpt>
      <trkpt lat="45.22853" lon="3.1272">
        <ele>594.71</ele>
        <time>2024-12-01T10:46:01Z</time>
      </trkpt>
      <trkpt lat="45.22852" lon="3.12721">
        <ele>594.71</ele>
        <time>2024-12-01T10:46:02Z</time>
      </trkpt>
      <trkpt lat="45.22852" lon="3.12723">
        <ele>594.71</ele>
        <time>2024-12-01T10:46:03Z</time>
      </trkpt>
      <trkpt lat="45.22851" lon="3.12724">
        <ele>595.19</ele>
        <time>2024-12-01T10:46:04Z</time>
      </trkpt>
      <trkpt lat="45.22851" lon="3.12726">
        <ele>595.19</ele>
        <time>2024-12-01T10:46:05Z</time>
      </trkpt>
      <trkpt lat="45.2285" lon="3.12728">
        <ele>595.19</ele>
        <time>2024-12-01T10:46:06Z</time>
      </trkpt>
      <trkpt lat="45.22842" lon="3.1276">
        <ele>596.15</ele>
        <time>2024-12-01T10:46:25Z</time>
      </trkpt>
      <trkpt lat="45.22833" lon="3.12788">
        <ele>596.15</ele>
        <time>2024-12-01T10:46:42Z</time>
      </trkpt>
      <trkpt lat="45.22832" lon="3.12819">
        <ele>595.19</ele>
        <time>2024-12-01T10:46:59Z</time>
      </trkpt>
      <trkpt lat="45.22835" lon="3.12852">
        <ele>597.12</ele>
        <time>2024-12-01T10:47:18Z</time>
      </trkpt>
      <trkpt lat="45.2283" lon="3.12886">
        <ele>594.71</ele>
        <time>2024-12-01T10:47:36Z</time>
      </trkpt>
      <trkpt lat="45.22815" lon="3.12902">
        <ele>594.23</ele>
        <time>2024-12-01T10:47:52Z</time>
      </trkpt>
      <trkpt lat="45.22803" lon="3.12899">
        <ele>594.23</ele>
        <time>2024-12-01T10:48:04Z</time>
      </trkpt>
      <trkpt lat="45.22781" lon="3.12895">
        <ele>597.6</ele>
        <time>2024-12-01T10:48:21Z</time>
      </trkpt>
      <trkpt lat="45.22762" lon="3.12893">
        <ele>601.44</ele>
        <time>2024-12-01T10:48:37Z</time>
      </trkpt>
      <trkpt lat="45.22752" lon="3.12893">
        <ele>602.4</ele>
        <time>2024-12-01T10:48:47Z</time>
      </trkpt>
      <trkpt lat="45.22751" lon="3.12892">
        <ele>602.4</ele>
        <time>2024-12-01T10:48:48Z</time>
      </trkpt>
      <trkpt lat="45.2275" lon="3.12892">
        <ele>602.4</ele>
        <time>2024-12-01T10:48:49Z</time>
      </trkpt>
      <trkpt lat="45.2273" lon="3.1288">
        <ele>602.88</ele>
        <time>2024-12-01T10:49:06Z</time>
      </trkpt>
      <trkpt lat="45.22708" lon="3.12866">
        <ele>600.48</ele>
        <time>2024-12-01T10:49:24Z</time>
      </trkpt>
      <trkpt lat="45.22685" lon="3.1285">
        <ele>596.64</ele>
        <time>2024-12-01T10:49:42Z</time>
      </trkpt>
      <trkpt lat="45.22684" lon="3.12828">
        <ele>592.31</ele>
        <time>2024-12-01T10:49:54Z</time>
      </trkpt>
      <trkpt lat="45.22681" lon="3.12826">
        <ele>592.79</ele>
        <time>2024-12-01T10:49:57Z</time>
      </trkpt>
      <trkpt lat="45.22669" lon="3.12829">
        <ele>599.04</ele>
        <time>2024-12-01T10:50:12Z</time>
      </trkpt>
      <trkpt lat="45.22656" lon="3.12832">
        <ele>601.92</ele>
        <time>2024-12-01T10:50:28Z</time>
      </trkpt>
      <trkpt lat="45.22648" lon="3.12833">
        <ele>606.25</ele>
        <time>2024-12-01T10:50:40Z</time>
      </trkpt>
      <trkpt lat="45.22638" lon="3.12837">
        <ele>610.09</ele>
        <time>2024-12-01T10:50:53Z</time>
      </trkpt>
      <trkpt lat="45.22632" lon="3.12841">
        <ele>613.46</ele>
        <time>2024-12-01T10:51:03Z</time>
      </trkpt>
      <trkpt lat="45.22621" lon="3.12849">
        <ele>616.82</ele>
        <time>2024-12-01T10:51:16Z</time>
      </trkpt>
      <trkpt lat="45.22609" lon="3.12854">
        <ele>618.26</ele>
        <time>2024-12-01T10:51:32Z</time>
      </trkpt>
      <trkpt lat="45.22599" lon="3.12859">
        <ele>621.15</ele>
        <time>2024-12-01T10:51:44Z</time>
      </trkpt>
      <trkpt lat="45.22589" lon="3.12863">
        <ele>625.96</ele>
        <time>2024-12-01T10:51:59Z</time>
      </trkpt>
      <trkpt lat="45.22581" lon="3.12868">
        <ele>629.8</ele>
        <time>2024-12-01T10:52:12Z</time>
      </trkpt>
      <trkpt lat="45.22568" lon="3.12878">
        <ele>632.68</ele>
        <time>2024-12-01T10:52:26Z</time>
      </trkpt>
      <trkpt lat="45.22556" lon="3.12883">
        <ele>635.57</ele>
        <time>2024-12-01T10:52:40Z</time>
      </trkpt>
      <trkpt lat="45.22542" lon="3.12887">
        <ele>637.01</ele>
        <time>2024-12-01T10:52:53Z</time>
      </trkpt>
      <trkpt lat="45.2253" lon="3.12888">
        <ele>637.97</ele>
        <time>2024-12-01T10:53:06Z</time>
      </trkpt>
      <trkpt lat="45.22514" lon="3.12888">
        <ele>639.89</ele>
        <time>2024-12-01T10:53:21Z</time>
      </trkpt>
      <trkpt lat="45.22497" lon="3.12877">
        <ele>638.45</ele>
        <time>2024-12-01T10:53:37Z</time>
      </trkpt>
      <trkpt lat="45.22486" lon="3.12872">
        <ele>639.41</ele>
        <time>2024-12-01T10:53:49Z</time>
      </trkpt>
      <trkpt lat="45.22475" lon="3.12864">
        <ele>642.78</ele>
        <time>2024-12-01T10:54:03Z</time>
      </trkpt>
      <trkpt lat="45.22464" lon="3.12856">
        <ele>646.14</ele>
        <time>2024-12-01T10:54:16Z</time>
      </trkpt>
      <trkpt lat="45.22457" lon="3.1285">
        <ele>649.51</ele>
        <time>2024-12-01T10:54:27Z</time>
      </trkpt>
      <trkpt lat="45.22447" lon="3.12844">
        <ele>652.87</ele>
        <time>2024-12-01T10:54:38Z</time>
      </trkpt>
      <trkpt lat="45.22437" lon="3.12836">
        <ele>655.28</ele>
        <time>2024-12-01T10:54:52Z</time>
      </trkpt>
      <trkpt lat="45.22428" lon="3.12831">
        <ele>657.2</ele>
        <time>2024-12-01T10:55:04Z</time>
      </trkpt>
      <trkpt lat="45.22418" lon="3.12828">
        <ele>658.64</ele>
        <time>2024-12-01T10:55:15Z</time>
      </trkpt>
      <trkpt lat="45.22404" lon="3.12825">
        <ele>661.04</ele>
        <time>2024-12-01T10:55:28Z</time>
      </trkpt>
      <trkpt lat="45.22393" lon="3.12822">
        <ele>662.97</ele>
        <time>2024-12-01T10:55:40Z</time>
      </trkpt>
      <trkpt lat="45.22383" lon="3.12819">
        <ele>664.89</ele>
        <time>2024-12-01T10:55:52Z</time>
      </trkpt>
      <trkpt lat="45.22372" lon="3.12818">
        <ele>666.81</ele>
        <time>2024-12-01T10:56:04Z</time>
      </trkpt>
      <trkpt lat="45.22358" lon="3.12814">
        <ele>670.18</ele>
        <time>2024-12-01T10:56:17Z</time>
      </trkpt>
      <trkpt lat="45.22347" lon="3.1281">
        <ele>672.1</ele>
        <time>2024-12-01T10:56:30Z</time>
      </trkpt>
      <trkpt lat="45.22337" lon="3.12806">
        <ele>673.54</ele>
        <time>2024-12-01T10:56:42Z</time>
      </trkpt>
      <trkpt lat="45.22329" lon="3.12803">
        <ele>674.98</ele>
        <time>2024-12-01T10:56:54Z</time>
      </trkpt>
      <trkpt lat="45.22318" lon="3.12801">
        <ele>675.94</ele>
        <time>2024-12-01T10:57:07Z</time>
      </trkpt>
      <trkpt lat="45.22311" lon="3.12797">
        <ele>677.39</ele>
        <time>2024-12-01T10:57:20Z</time>
      </trkpt>
      <trkpt lat="45.22299" lon="3.12789">
        <ele>677.39</ele>
        <time>2024-12-01T10:57:34Z</time>
      </trkpt>
      <trkpt lat="45.22292" lon="3.12782">
        <ele>678.35</ele>
        <time>2024-12-01T10:57:46Z</time>
      </trkpt>
      <trkpt lat="45.22284" lon="3.12776">
        <ele>682.19</ele>
        <time>2024-12-01T10:58:00Z</time>
      </trkpt>
      <trkpt lat="45.22276" lon="3.12768">
        <ele>683.63</ele>
        <time>2024-12-01T10:58:14Z</time>
      </trkpt>
      <trkpt lat="45.2227" lon="3.1276">
        <ele>687</ele>
        <time>2024-12-01T10:58:27Z</time>
      </trkpt>
      <trkpt lat="45.22266" lon="3.12751">
        <ele>689.88</ele>
        <time>2024-12-01T10:58:40Z</time>
      </trkpt>
      <trkpt lat="45.22259" lon="3.12743">
        <ele>693.73</ele>
        <time>2024-12-01T10:58:52Z</time>
      </trkpt>
      <trkpt lat="45.22252" lon="3.12735">
        <ele>696.61</ele>
        <time>2024-12-01T10:59:06Z</time>
      </trkpt>
      <trkpt lat="45.22246" lon="3.12727">
        <ele>696.61</ele>
        <time>2024-12-01T10:59:17Z</time>
      </trkpt>
      <trkpt lat="45.22242" lon="3.12725">
        <ele>696.61</ele>
        <time>2024-12-01T10:59:32Z</time>
      </trkpt>
      <trkpt lat="45.22237" lon="3.1272">
        <ele>698.53</ele>
        <time>2024-12-01T10:59:47Z</time>
      </trkpt>
      <trkpt lat="45.22232" lon="3.12714">
        <ele>699.98</ele>
        <time>2024-12-01T10:59:59Z</time>
      </trkpt>
      <trkpt lat="45.22225" lon="3.12709">
        <ele>703.34</ele>
        <time>2024-12-01T11:00:12Z</time>
      </trkpt>
      <trkpt lat="45.2222" lon="3.12706">
        <ele>705.26</ele>
        <time>2024-12-01T11:00:23Z</time>
      </trkpt>
      <trkpt lat="45.22212" lon="3.127">
        <ele>708.15</ele>
        <time>2024-12-01T11:00:35Z</time>
      </trkpt>
      <trkpt lat="45.22203" lon="3.12693">
        <ele>711.51</ele>
        <time>2024-12-01T11:00:48Z</time>
      </trkpt>
      <trkpt lat="45.22199" lon="3.12689">
        <ele>712.95</ele>
        <time>2024-12-01T11:01:00Z</time>
      </trkpt>
      <trkpt lat="45.22192" lon="3.12683">
        <ele>713.92</ele>
        <time>2024-12-01T11:01:14Z</time>
      </trkpt>
      <trkpt lat="45.22186" lon="3.12672">
        <ele>716.32</ele>
        <time>2024-12-01T11:01:28Z</time>
      </trkpt>
      <trkpt lat="45.22176" lon="3.12663">
        <ele>720.65</ele>
        <time>2024-12-01T11:01:45Z</time>
      </trkpt>
      <trkpt lat="45.22169" lon="3.12653">
        <ele>724.97</ele>
        <time>2024-12-01T11:01:58Z</time>
      </trkpt>
      <trkpt lat="45.22167" lon="3.12651">
        <ele>726.89</ele>
        <time>2024-12-01T11:02:10Z</time>
      </trkpt>
      <trkpt lat="45.22166" lon="3.1265">
        <ele>728.34</ele>
        <time>2024-12-01T11:02:24Z</time>
      </trkpt>
      <trkpt lat="45.22166" lon="3.12647">
        <ele>726.41</ele>
        <time>2024-12-01T11:02:47Z</time>
      </trkpt>
      <trkpt lat="45.22166" lon="3.12647">
        <ele>724.97</ele>
        <time>2024-12-01T11:03:10Z</time>
      </trkpt>
      <trkpt lat="45.22166" lon="3.12651">
        <ele>727.37</ele>
        <time>2024-12-01T11:03:25Z</time>
      </trkpt>
      <trkpt lat="45.22164" lon="3.1265">
        <ele>728.34</ele>
        <time>2024-12-01T11:03:45Z</time>
      </trkpt>
      <trkpt lat="45.22166" lon="3.1265">
        <ele>726.41</ele>
        <time>2024-12-01T11:04:07Z</time>
      </trkpt>
      <trkpt lat="45.22166" lon="3.12646">
        <ele>725.93</ele>
        <time>2024-12-01T11:04:28Z</time>
      </trkpt>
      <trkpt lat="45.22169" lon="3.12643">
        <ele>724.49</ele>
        <time>2024-12-01T11:04:49Z</time>
      </trkpt>
      <trkpt lat="45.22169" lon="3.12649">
        <ele>725.45</ele>
        <time>2024-12-01T11:05:09Z</time>
      </trkpt>
      <trkpt lat="45.22168" lon="3.12651">
        <ele>724.97</ele>
        <time>2024-12-01T11:05:29Z</time>
      </trkpt>
      <trkpt lat="45.22164" lon="3.12644">
        <ele>726.41</ele>
        <time>2024-12-01T11:05:55Z</time>
      </trkpt>
      <trkpt lat="45.22165" lon="3.12643">
        <ele>728.34</ele>
        <time>2024-12-01T11:06:21Z</time>
      </trkpt>
      <trkpt lat="45.22168" lon="3.12641">
        <ele>726.89</ele>
        <time>2024-12-01T11:06:46Z</time>
      </trkpt>
      <trkpt lat="45.22166" lon="3.12641">
        <ele>725.93</ele>
        <time>2024-12-01T11:07:13Z</time>
      </trkpt>
      <trkpt lat="45.2217" lon="3.1264">
        <ele>728.82</ele>
        <time>2024-12-01T11:07:26Z</time>
      </trkpt>
      <trkpt lat="45.22178" lon="3.12636">
        <ele>733.62</ele>
        <time>2024-12-01T11:07:42Z</time>
      </trkpt>
      <trkpt lat="45.22176" lon="3.12632">
        <ele>735.07</ele>
        <time>2024-12-01T11:07:55Z</time>
      </trkpt>
      <trkpt lat="45.2218" lon="3.12629">
        <ele>738.43</ele>
        <time>2024-12-01T11:08:09Z</time>
      </trkpt>
      <trkpt lat="45.22181" lon="3.12627">
        <ele>739.39</ele>
        <time>2024-12-01T11:08:13Z</time>
      </trkpt>
      <trkpt lat="45.22179" lon="3.12621">
        <ele>742.76</ele>
        <time>2024-12-01T11:08:25Z</time>
      </trkpt>
      <trkpt lat="45.22174" lon="3.12616">
        <ele>746.12</ele>
        <time>2024-12-01T11:08:40Z</time>
      </trkpt>
      <trkpt lat="45.2217" lon="3.1261">
        <ele>748.52</ele>
        <time>2024-12-01T11:08:53Z</time>
      </trkpt>
      <trkpt lat="45.22166" lon="3.12602">
        <ele>751.41</ele>
        <time>2024-12-01T11:09:07Z</time>
      </trkpt>
      <trkpt lat="45.22163" lon="3.12594">
        <ele>755.25</ele>
        <time>2024-12-01T11:09:21Z</time>
      </trkpt>
      <trkpt lat="45.22165" lon="3.12585">
        <ele>755.73</ele>
        <time>2024-12-01T11:09:34Z</time>
      </trkpt>
      <trkpt lat="45.22172" lon="3.1258">
        <ele>759.1</ele>
        <time>2024-12-01T11:09:47Z</time>
      </trkpt>
      <trkpt lat="45.2217" lon="3.12575">
        <ele>761.98</ele>
        <time>2024-12-01T11:09:59Z</time>
      </trkpt>
      <trkpt lat="45.22166" lon="3.12569">
        <ele>763.42</ele>
        <time>2024-12-01T11:10:11Z</time>
      </trkpt>
      <trkpt lat="45.22164" lon="3.12566">
        <ele>765.35</ele>
        <time>2024-12-01T11:10:26Z</time>
      </trkpt>
      <trkpt lat="45.2216" lon="3.12562">
        <ele>764.87</ele>
        <time>2024-12-01T11:10:44Z</time>
      </trkpt>
      <trkpt lat="45.22156" lon="3.12556">
        <ele>767.75</ele>
        <time>2024-12-01T11:10:54Z</time>
      </trkpt>
      <trkpt lat="45.22161" lon="3.1255">
        <ele>770.15</ele>
        <time>2024-12-01T11:11:05Z</time>
      </trkpt>
      <trkpt lat="45.22166" lon="3.12547">
        <ele>772.56</ele>
        <time>2024-12-01T11:11:17Z</time>
      </trkpt>
      <trkpt lat="45.22173" lon="3.12546">
        <ele>774.48</ele>
        <time>2024-12-01T11:11:32Z</time>
      </trkpt>
      <trkpt lat="45.22178" lon="3.1255">
        <ele>776.4</ele>
        <time>2024-12-01T11:11:44Z</time>
      </trkpt>
      <trkpt lat="45.22186" lon="3.12556">
        <ele>776.4</ele>
        <time>2024-12-01T11:11:57Z</time>
      </trkpt>
      <trkpt lat="45.22194" lon="3.1256">
        <ele>778.81</ele>
        <time>2024-12-01T11:12:11Z</time>
      </trkpt>
      <trkpt lat="45.22198" lon="3.12564">
        <ele>779.29</ele>
        <time>2024-12-01T11:12:27Z</time>
      </trkpt>
      <trkpt lat="45.22198" lon="3.12565">
        <ele>779.29</ele>
        <time>2024-12-01T11:12:28Z</time>
      </trkpt>
      <trkpt lat="45.22207" lon="3.12571">
        <ele>777.84</ele>
        <time>2024-12-01T11:12:41Z</time>
      </trkpt>
      <trkpt lat="45.22212" lon="3.12572">
        <ele>776.88</ele>
        <time>2024-12-01T11:12:56Z</time>
      </trkpt>
      <trkpt lat="45.22214" lon="3.12573">
        <ele>775.44</ele>
        <time>2024-12-01T11:13:14Z</time>
      </trkpt>
      <trkpt lat="45.22215" lon="3.12578">
        <ele>773.04</ele>
        <time>2024-12-01T11:13:29Z</time>
      </trkpt>
      <trkpt lat="45.22215" lon="3.1258">
        <ele>771.6</ele>
        <time>2024-12-01T11:13:53Z</time>
      </trkpt>
      <trkpt lat="45.22216" lon="3.12579">
        <ele>771.11</ele>
        <time>2024-12-01T11:14:11Z</time>
      </trkpt>
      <trkpt lat="45.22215" lon="3.12579">
        <ele>773.04</ele>
        <time>2024-12-01T11:14:30Z</time>
      </trkpt>
      <trkpt lat="45.22223" lon="3.12581">
        <ele>774.96</ele>
        <time>2024-12-01T11:14:45Z</time>
      </trkpt>
      <trkpt lat="45.22227" lon="3.12588">
        <ele>776.88</ele>
        <time>2024-12-01T11:14:56Z</time>
      </trkpt>
      <trkpt lat="45.22237" lon="3.12603">
        <ele>776.88</ele>
        <time>2024-12-01T11:15:11Z</time>
      </trkpt>
      <trkpt lat="45.22247" lon="3.12609">
        <ele>776.88</ele>
        <time>2024-12-01T11:15:25Z</time>
      </trkpt>
      <trkpt lat="45.22255" lon="3.12614">
        <ele>775.44</ele>
        <time>2024-12-01T11:15:38Z</time>
      </trkpt>
      <trkpt lat="45.22265" lon="3.1262">
        <ele>776.88</ele>
        <time>2024-12-01T11:15:52Z</time>
      </trkpt>
      <trkpt lat="45.22274" lon="3.12614">
        <ele>777.84</ele>
        <time>2024-12-01T11:16:07Z</time>
      </trkpt>
      <trkpt lat="45.22278" lon="3.12613">
        <ele>777.84</ele>
        <time>2024-12-01T11:16:21Z</time>
      </trkpt>
      <trkpt lat="45.22278" lon="3.12611">
        <ele>779.29</ele>
        <time>2024-12-01T11:16:36Z</time>
      </trkpt>
      <trkpt lat="45.22283" lon="3.1261">
        <ele>779.29</ele>
        <time>2024-12-01T11:16:48Z</time>
      </trkpt>
      <trkpt lat="45.22285" lon="3.12613">
        <ele>778.32</ele>
        <time>2024-12-01T11:16:53Z</time>
      </trkpt>
      <trkpt lat="45.22296" lon="3.12622">
        <ele>777.84</ele>
        <time>2024-12-01T11:17:07Z</time>
      </trkpt>
      <trkpt lat="45.22298" lon="3.1263">
        <ele>777.84</ele>
        <time>2024-12-01T11:17:15Z</time>
      </trkpt>
      <trkpt lat="45.22301" lon="3.12639">
        <ele>776.4</ele>
        <time>2024-12-01T11:17:28Z</time>
      </trkpt>
      <trkpt lat="45.22298" lon="3.1264">
        <ele>775.92</ele>
        <time>2024-12-01T11:17:46Z</time>
      </trkpt>
      <trkpt lat="45.22297" lon="3.12643">
        <ele>775.44</ele>
        <time>2024-12-01T11:17:59Z</time>
      </trkpt>
      <trkpt lat="45.22299" lon="3.12641">
        <ele>775.92</ele>
        <time>2024-12-01T11:18:15Z</time>
      </trkpt>
      <trkpt lat="45.22298" lon="3.12642">
        <ele>775.44</ele>
        <time>2024-12-01T11:18:32Z</time>
      </trkpt>
      <trkpt lat="45.22299" lon="3.1264">
        <ele>775.92</ele>
        <time>2024-12-01T11:18:44Z</time>
      </trkpt>
      <trkpt lat="45.22299" lon="3.1264">
        <ele>775.92</ele>
        <time>2024-12-01T11:19:01Z</time>
      </trkpt>
      <trkpt lat="45.22298" lon="3.1264">
        <ele>776.88</ele>
        <time>2024-12-01T11:19:20Z</time>
      </trkpt>
      <trkpt lat="45.22297" lon="3.12642">
        <ele>775.92</ele>
        <time>2024-12-01T11:19:45Z</time>
      </trkpt>
      <trkpt lat="45.22297" lon="3.1264">
        <ele>775.44</ele>
        <time>2024-12-01T11:20:20Z</time>
      </trkpt>
      <trkpt lat="45.22297" lon="3.12641">
        <ele>776.4</ele>
        <time>2024-12-01T11:20:38Z</time>
      </trkpt>
      <trkpt lat="45.22297" lon="3.1264">
        <ele>774.48</ele>
        <time>2024-12-01T11:21:07Z</time>
      </trkpt>
      <trkpt lat="45.22298" lon="3.12641">
        <ele>775.92</ele>
        <time>2024-12-01T11:21:25Z</time>
      </trkpt>
      <trkpt lat="45.22299" lon="3.1264">
        <ele>775.92</ele>
        <time>2024-12-01T11:21:41Z</time>
      </trkpt>
      <trkpt lat="45.22296" lon="3.12635">
        <ele>776.88</ele>
        <time>2024-12-01T11:21:58Z</time>
      </trkpt>
      <trkpt lat="45.22296" lon="3.12634">
        <ele>777.36</ele>
        <time>2024-12-01T11:21:59Z</time>
      </trkpt>
      <trkpt lat="45.22294" lon="3.12627">
        <ele>777.36</ele>
        <time>2024-12-01T11:22:07Z</time>
      </trkpt>
      <trkpt lat="45.22293" lon="3.12625">
        <ele>777.36</ele>
        <time>2024-12-01T11:22:09Z</time>
      </trkpt>
      <trkpt lat="45.22285" lon="3.12613">
        <ele>778.32</ele>
        <time>2024-12-01T11:22:24Z</time>
      </trkpt>
      <trkpt lat="45.22273" lon="3.12611">
        <ele>779.77</ele>
        <time>2024-12-01T11:22:38Z</time>
      </trkpt>
      <trkpt lat="45.2226" lon="3.12604">
        <ele>781.21</ele>
        <time>2024-12-01T11:22:53Z</time>
      </trkpt>
      <trkpt lat="45.22251" lon="3.12597">
        <ele>782.65</ele>
        <time>2024-12-01T11:23:06Z</time>
      </trkpt>
      <trkpt lat="45.22245" lon="3.12592">
        <ele>783.61</ele>
        <time>2024-12-01T11:23:18Z</time>
      </trkpt>
      <trkpt lat="45.22241" lon="3.12588">
        <ele>782.65</ele>
        <time>2024-12-01T11:23:29Z</time>
      </trkpt>
      <trkpt lat="45.22241" lon="3.12586">
        <ele>783.13</ele>
        <time>2024-12-01T11:23:33Z</time>
      </trkpt>
      <trkpt lat="45.22235" lon="3.12576">
        <ele>786.02</ele>
        <time>2024-12-01T11:23:47Z</time>
      </trkpt>
      <trkpt lat="45.22232" lon="3.1257">
        <ele>786.5</ele>
        <time>2024-12-01T11:23:53Z</time>
      </trkpt>
      <trkpt lat="45.22231" lon="3.12567">
        <ele>786.98</ele>
        <time>2024-12-01T11:23:56Z</time>
      </trkpt>
      <trkpt lat="45.22227" lon="3.12561">
        <ele>788.42</ele>
        <time>2024-12-01T11:24:09Z</time>
      </trkpt>
      <trkpt lat="45.22225" lon="3.12554">
        <ele>787.94</ele>
        <time>2024-12-01T11:24:20Z</time>
      </trkpt>
      <trkpt lat="45.22221" lon="3.12551">
        <ele>790.34</ele>
        <time>2024-12-01T11:24:30Z</time>
      </trkpt>
      <trkpt lat="45.22215" lon="3.12544">
        <ele>791.78</ele>
        <time>2024-12-01T11:24:41Z</time>
      </trkpt>
      <trkpt lat="45.22205" lon="3.1253">
        <ele>793.71</ele>
        <time>2024-12-01T11:24:55Z</time>
      </trkpt>
      <trkpt lat="45.22198" lon="3.12526">
        <ele>794.67</ele>
        <time>2024-12-01T11:25:07Z</time>
      </trkpt>
      <trkpt lat="45.22195" lon="3.12525">
        <ele>795.15</ele>
        <time>2024-12-01T11:25:11Z</time>
      </trkpt>
      <trkpt lat="45.2219" lon="3.12515">
        <ele>796.59</ele>
        <time>2024-12-01T11:25:23Z</time>
      </trkpt>
      <trkpt lat="45.22185" lon="3.12509">
        <ele>798.99</ele>
        <time>2024-12-01T11:25:35Z</time>
      </trkpt>
      <trkpt lat="45.22185" lon="3.12504">
        <ele>800.44</ele>
        <time>2024-12-01T11:25:45Z</time>
      </trkpt>
      <trkpt lat="45.22185" lon="3.12496">
        <ele>802.84</ele>
        <time>2024-12-01T11:25:57Z</time>
      </trkpt>
      <trkpt lat="45.22186" lon="3.12494">
        <ele>804.28</ele>
        <time>2024-12-01T11:26:10Z</time>
      </trkpt>
      <trkpt lat="45.22186" lon="3.12488">
        <ele>806.2</ele>
        <time>2024-12-01T11:26:23Z</time>
      </trkpt>
      <trkpt lat="45.22187" lon="3.12484">
        <ele>807.16</ele>
        <time>2024-12-01T11:26:34Z</time>
      </trkpt>
      <trkpt lat="45.22189" lon="3.12481">
        <ele>808.13</ele>
        <time>2024-12-01T11:26:45Z</time>
      </trkpt>
      <trkpt lat="45.22192" lon="3.12478">
        <ele>808.61</ele>
        <time>2024-12-01T11:26:55Z</time>
      </trkpt>
      <trkpt lat="45.22195" lon="3.12473">
        <ele>810.05</ele>
        <time>2024-12-01T11:27:04Z</time>
      </trkpt>
      <trkpt lat="45.22196" lon="3.12466">
        <ele>812.45</ele>
        <time>2024-12-01T11:27:15Z</time>
      </trkpt>
      <trkpt lat="45.22197" lon="3.12459">
        <ele>812.93</ele>
        <time>2024-12-01T11:27:27Z</time>
      </trkpt>
      <trkpt lat="45.22194" lon="3.1246">
        <ele>812.93</ele>
        <time>2024-12-01T11:27:41Z</time>
      </trkpt>
      <trkpt lat="45.22195" lon="3.12459">
        <ele>813.41</ele>
        <time>2024-12-01T11:27:59Z</time>
      </trkpt>
      <trkpt lat="45.22193" lon="3.1246">
        <ele>813.41</ele>
        <time>2024-12-01T11:28:12Z</time>
      </trkpt>
      <trkpt lat="45.22195" lon="3.1246">
        <ele>812.93</ele>
        <time>2024-12-01T11:28:30Z</time>
      </trkpt>
      <trkpt lat="45.22195" lon="3.12459">
        <ele>812.93</ele>
        <time>2024-12-01T11:28:46Z</time>
      </trkpt>
      <trkpt lat="45.22195" lon="3.12459">
        <ele>812.45</ele>
        <time>2024-12-01T11:29:06Z</time>
      </trkpt>
      <trkpt lat="45.22195" lon="3.12457">
        <ele>811.01</ele>
        <time>2024-12-01T11:29:28Z</time>
      </trkpt>
      <trkpt lat="45.22193" lon="3.12457">
        <ele>811.97</ele>
        <time>2024-12-01T11:29:49Z</time>
      </trkpt>
      <trkpt lat="45.22195" lon="3.12456">
        <ele>814.37</ele>
        <time>2024-12-01T11:30:09Z</time>
      </trkpt>
      <trkpt lat="45.22194" lon="3.12453">
        <ele>814.85</ele>
        <time>2024-12-01T11:30:23Z</time>
      </trkpt>
      <trkpt lat="45.2219" lon="3.12448">
        <ele>816.3</ele>
        <time>2024-12-01T11:30:39Z</time>
      </trkpt>
      <trkpt lat="45.22189" lon="3.12446">
        <ele>817.26</ele>
        <time>2024-12-01T11:30:42Z</time>
      </trkpt>
      <trkpt lat="45.22185" lon="3.12439">
        <ele>818.7</ele>
        <time>2024-12-01T11:30:54Z</time>
      </trkpt>
      <trkpt lat="45.22179" lon="3.12439">
        <ele>821.58</ele>
        <time>2024-12-01T11:31:10Z</time>
      </trkpt>
      <trkpt lat="45.22172" lon="3.12436">
        <ele>824.47</ele>
        <time>2024-12-01T11:31:23Z</time>
      </trkpt>
      <trkpt lat="45.22167" lon="3.12429">
        <ele>826.87</ele>
        <time>2024-12-01T11:31:36Z</time>
      </trkpt>
      <trkpt lat="45.22164" lon="3.12424">
        <ele>828.79</ele>
        <time>2024-12-01T11:31:47Z</time>
      </trkpt>
      <trkpt lat="45.22159" lon="3.12418">
        <ele>830.24</ele>
        <time>2024-12-01T11:32:03Z</time>
      </trkpt>
      <trkpt lat="45.22154" lon="3.12413">
        <ele>831.2</ele>
        <time>2024-12-01T11:32:14Z</time>
      </trkpt>
      <trkpt lat="45.22148" lon="3.12411">
        <ele>833.12</ele>
        <time>2024-12-01T11:32:29Z</time>
      </trkpt>
      <trkpt lat="45.22142" lon="3.1241">
        <ele>834.56</ele>
        <time>2024-12-01T11:32:44Z</time>
      </trkpt>
      <trkpt lat="45.22137" lon="3.12408">
        <ele>837.45</ele>
        <time>2024-12-01T11:32:56Z</time>
      </trkpt>
      <trkpt lat="45.22134" lon="3.12404">
        <ele>838.89</ele>
        <time>2024-12-01T11:33:07Z</time>
      </trkpt>
      <trkpt lat="45.2213" lon="3.12393">
        <ele>840.33</ele>
        <time>2024-12-01T11:33:20Z</time>
      </trkpt>
      <trkpt lat="45.22126" lon="3.12388">
        <ele>842.73</ele>
        <time>2024-12-01T11:33:31Z</time>
      </trkpt>
      <trkpt lat="45.22123" lon="3.1238">
        <ele>845.14</ele>
        <time>2024-12-01T11:33:45Z</time>
      </trkpt>
      <trkpt lat="45.22122" lon="3.12376">
        <ele>846.58</ele>
        <time>2024-12-01T11:33:57Z</time>
      </trkpt>
      <trkpt lat="45.2212" lon="3.12374">
        <ele>847.54</ele>
        <time>2024-12-01T11:34:14Z</time>
      </trkpt>
      <trkpt lat="45.22118" lon="3.12371">
        <ele>848.98</ele>
        <time>2024-12-01T11:34:26Z</time>
      </trkpt>
      <trkpt lat="45.22118" lon="3.12365">
        <ele>850.42</ele>
        <time>2024-12-01T11:34:39Z</time>
      </trkpt>
      <trkpt lat="45.22118" lon="3.1236">
        <ele>851.87</ele>
        <time>2024-12-01T11:34:55Z</time>
      </trkpt>
      <trkpt lat="45.22114" lon="3.12355">
        <ele>852.83</ele>
        <time>2024-12-01T11:35:11Z</time>
      </trkpt>
      <trkpt lat="45.22112" lon="3.12349">
        <ele>853.31</ele>
        <time>2024-12-01T11:35:21Z</time>
      </trkpt>
      <trkpt lat="45.22109" lon="3.12346">
        <ele>853.79</ele>
        <time>2024-12-01T11:35:35Z</time>
      </trkpt>
      <trkpt lat="45.22107" lon="3.12349">
        <ele>854.75</ele>
        <time>2024-12-01T11:35:46Z</time>
      </trkpt>
      <trkpt lat="45.22105" lon="3.12358">
        <ele>856.67</ele>
        <time>2024-12-01T11:35:59Z</time>
      </trkpt>
      <trkpt lat="45.22103" lon="3.12364">
        <ele>857.63</ele>
        <time>2024-12-01T11:36:11Z</time>
      </trkpt>
      <trkpt lat="45.22102" lon="3.12365">
        <ele>858.11</ele>
        <time>2024-12-01T11:36:28Z</time>
      </trkpt>
      <trkpt lat="45.22098" lon="3.1236">
        <ele>860.04</ele>
        <time>2024-12-01T11:36:42Z</time>
      </trkpt>
      <trkpt lat="45.22096" lon="3.12357">
        <ele>861</ele>
        <time>2024-12-01T11:36:46Z</time>
      </trkpt>
      <trkpt lat="45.22089" lon="3.12347">
        <ele>863.88</ele>
        <time>2024-12-01T11:37:01Z</time>
      </trkpt>
      <trkpt lat="45.22081" lon="3.12336">
        <ele>866.77</ele>
        <time>2024-12-01T11:37:16Z</time>
      </trkpt>
      <trkpt lat="45.22078" lon="3.12333">
        <ele>867.73</ele>
        <time>2024-12-01T11:37:21Z</time>
      </trkpt>
      <trkpt lat="45.22074" lon="3.1233">
        <ele>870.13</ele>
        <time>2024-12-01T11:37:33Z</time>
      </trkpt>
      <trkpt lat="45.2207" lon="3.12326">
        <ele>872.05</ele>
        <time>2024-12-01T11:37:44Z</time>
      </trkpt>
      <trkpt lat="45.22068" lon="3.12322">
        <ele>874.46</ele>
        <time>2024-12-01T11:37:56Z</time>
      </trkpt>
      <trkpt lat="45.22063" lon="3.12313">
        <ele>875.42</ele>
        <time>2024-12-01T11:38:12Z</time>
      </trkpt>
      <trkpt lat="45.22061" lon="3.12304">
        <ele>876.38</ele>
        <time>2024-12-01T11:38:26Z</time>
      </trkpt>
      <trkpt lat="45.22058" lon="3.12299">
        <ele>873.98</ele>
        <time>2024-12-01T11:38:39Z</time>
      </trkpt>
      <trkpt lat="45.22051" lon="3.12283">
        <ele>874.94</ele>
        <time>2024-12-01T11:38:55Z</time>
      </trkpt>
      <trkpt lat="45.22043" lon="3.12274">
        <ele>876.38</ele>
        <time>2024-12-01T11:39:08Z</time>
      </trkpt>
      <trkpt lat="45.22033" lon="3.1227">
        <ele>875.9</ele>
        <time>2024-12-01T11:39:22Z</time>
      </trkpt>
      <trkpt lat="45.22024" lon="3.12264">
        <ele>878.78</ele>
        <time>2024-12-01T11:39:37Z</time>
      </trkpt>
      <trkpt lat="45.22016" lon="3.12262">
        <ele>879.26</ele>
        <time>2024-12-01T11:39:51Z</time>
      </trkpt>
      <trkpt lat="45.22008" lon="3.12256">
        <ele>882.15</ele>
        <time>2024-12-01T11:40:05Z</time>
      </trkpt>
      <trkpt lat="45.22" lon="3.1225">
        <ele>884.07</ele>
        <time>2024-12-01T11:40:19Z</time>
      </trkpt>
      <trkpt lat="45.21991" lon="3.12247">
        <ele>885.99</ele>
        <time>2024-12-01T11:40:33Z</time>
      </trkpt>
      <trkpt lat="45.21985" lon="3.12245">
        <ele>888.88</ele>
        <time>2024-12-01T11:40:47Z</time>
      </trkpt>
      <trkpt lat="45.21977" lon="3.12244">
        <ele>891.28</ele>
        <time>2024-12-01T11:41:02Z</time>
      </trkpt>
      <trkpt lat="45.2197" lon="3.12245">
        <ele>891.76</ele>
        <time>2024-12-01T11:41:13Z</time>
      </trkpt>
      <trkpt lat="45.2197" lon="3.12241">
        <ele>892.72</ele>
        <time>2024-12-01T11:41:24Z</time>
      </trkpt>
      <trkpt lat="45.21969" lon="3.12245">
        <ele>891.76</ele>
        <time>2024-12-01T11:41:39Z</time>
      </trkpt>
      <trkpt lat="45.21967" lon="3.12253">
        <ele>889.36</ele>
        <time>2024-12-01T11:41:49Z</time>
      </trkpt>
      <trkpt lat="45.21961" lon="3.12258">
        <ele>880.2</ele>
      </trkpt>
      <trkpt lat="45.21911" lon="3.12256">
        <ele>868.9</ele>
      </trkpt>
      <trkpt lat="45.21866" lon="3.12219">
        <ele>860.9</ele>
      </trkpt>
      <trkpt lat="45.218" lon="3.12168">
        <ele>850.1</ele>
      </trkpt>
      <trkpt lat="45.21749" lon="3.12129">
        <ele>841.7</ele>
      </trkpt>
      <trkpt lat="45.2171" lon="3.12115">
        <ele>842.6</ele>
      </trkpt>
      <trkpt lat="45.21644" lon="3.12137">
        <ele>840.1</ele>
      </trkpt>
      <trkpt lat="45.21663" lon="3.12144">
        <ele>836.8</ele>
      </trkpt>
      <trkpt lat="45.21697" lon="3.1214">
        <ele>833</ele>
      </trkpt>
      <trkpt lat="45.21717" lon="3.12142">
        <ele>829.3</ele>
      </trkpt>
      <trkpt lat="45.21736" lon="3.12155">
        <ele>826.7</ele>
      </trkpt>
      <trkpt lat="45.21746" lon="3.12169">
        <ele>824.1</ele>
      </trkpt>
      <trkpt lat="45.21755" lon="3.12188">
        <ele>823.2</ele>
      </trkpt>
      <trkpt lat="45.21763" lon="3.12219">
        <ele>819.5</ele>
      </trkpt>
      <trkpt lat="45.21771" lon="3.12236">
        <ele>816.4</ele>
      </trkpt>
      <trkpt lat="45.21774" lon="3.12242">
        <ele>815.7</ele>
      </trkpt>
      <trkpt lat="45.21776" lon="3.1225">
        <ele>830.72</ele>
        <time>2024-12-01T12:03:41Z</time>
      </trkpt>
      <trkpt lat="45.21788" lon="3.12267">
        <ele>827.35</ele>
        <time>2024-12-01T12:03:55Z</time>
      </trkpt>
      <trkpt lat="45.21801" lon="3.12295">
        <ele>823.99</ele>
        <time>2024-12-01T12:04:14Z</time>
      </trkpt>
      <trkpt lat="45.21805" lon="3.12323">
        <ele>823.99</ele>
        <time>2024-12-01T12:04:30Z</time>
      </trkpt>
      <trkpt lat="45.21809" lon="3.12353">
        <ele>825.43</ele>
        <time>2024-12-01T12:04:47Z</time>
      </trkpt>
      <trkpt lat="45.21816" lon="3.12386">
        <ele>821.1</ele>
        <time>2024-12-01T12:05:05Z</time>
      </trkpt>
      <trkpt lat="45.21822" lon="3.12415">
        <ele>818.7</ele>
        <time>2024-12-01T12:05:21Z</time>
      </trkpt>
      <trkpt lat="45.2183" lon="3.12448">
        <ele>813.89</ele>
        <time>2024-12-01T12:05:39Z</time>
      </trkpt>
      <trkpt lat="45.21847" lon="3.12473">
        <ele>808.61</ele>
        <time>2024-12-01T12:05:57Z</time>
      </trkpt>
      <trkpt lat="45.21867" lon="3.12482">
        <ele>804.28</ele>
        <time>2024-12-01T12:06:17Z</time>
      </trkpt>
      <trkpt lat="45.21868" lon="3.12493">
        <ele>802.36</ele>
        <time>2024-12-01T12:06:30Z</time>
      </trkpt>
      <trkpt lat="45.21865" lon="3.12497">
        <ele>801.4</ele>
        <time>2024-12-01T12:06:34Z</time>
      </trkpt>
      <trkpt lat="45.21849" lon="3.12508">
        <ele>796.59</ele>
        <time>2024-12-01T12:06:48Z</time>
      </trkpt>
      <trkpt lat="45.21828" lon="3.12512">
        <ele>792.74</ele>
        <time>2024-12-01T12:07:05Z</time>
      </trkpt>
      <trkpt lat="45.21827" lon="3.12511">
        <ele>792.26</ele>
        <time>2024-12-01T12:07:06Z</time>
      </trkpt>
      <trkpt lat="45.21824" lon="3.1251">
        <ele>791.3</ele>
        <time>2024-12-01T12:07:08Z</time>
      </trkpt>
      <trkpt lat="45.21805" lon="3.12499">
        <ele>787.94</ele>
        <time>2024-12-01T12:07:26Z</time>
      </trkpt>
      <trkpt lat="45.21785" lon="3.12488">
        <ele>786.02</ele>
        <time>2024-12-01T12:07:43Z</time>
      </trkpt>
      <trkpt lat="45.21783" lon="3.12485">
        <ele>785.53</ele>
        <time>2024-12-01T12:07:46Z</time>
      </trkpt>
      <trkpt lat="45.21779" lon="3.12477">
        <ele>783.13</ele>
        <time>2024-12-01T12:07:53Z</time>
      </trkpt>
      <trkpt lat="45.21774" lon="3.12451">
        <ele>777.36</ele>
        <time>2024-12-01T12:08:08Z</time>
      </trkpt>
      <trkpt lat="45.21768" lon="3.12428">
        <ele>774</ele>
        <time>2024-12-01T12:08:22Z</time>
      </trkpt>
      <trkpt lat="45.21758" lon="3.12397">
        <ele>772.08</ele>
        <time>2024-12-01T12:08:41Z</time>
      </trkpt>
      <trkpt lat="45.21745" lon="3.12377">
        <ele>773.52</ele>
        <time>2024-12-01T12:08:56Z</time>
      </trkpt>
      <trkpt lat="45.21734" lon="3.12359">
        <ele>771.11</ele>
        <time>2024-12-01T12:09:10Z</time>
      </trkpt>
      <trkpt lat="45.21722" lon="3.12332">
        <ele>764.87</ele>
        <time>2024-12-01T12:09:27Z</time>
      </trkpt>
      <trkpt lat="45.21718" lon="3.12325">
        <ele>762.94</ele>
        <time>2024-12-01T12:09:33Z</time>
      </trkpt>
      <trkpt lat="45.21706" lon="3.12318">
        <ele>762.94</ele>
        <time>2024-12-01T12:09:45Z</time>
      </trkpt>
      <trkpt lat="45.2169" lon="3.12322">
        <ele>761.98</ele>
        <time>2024-12-01T12:10:00Z</time>
      </trkpt>
      <trkpt lat="45.21674" lon="3.1233">
        <ele>761.5</ele>
        <time>2024-12-01T12:10:15Z</time>
      </trkpt>
      <trkpt lat="45.21675" lon="3.12342">
        <ele>762.94</ele>
        <time>2024-12-01T12:10:26Z</time>
      </trkpt>
      <trkpt lat="45.21694" lon="3.12353">
        <ele>763.42</ele>
        <time>2024-12-01T12:10:44Z</time>
      </trkpt>
      <trkpt lat="45.21698" lon="3.12379">
        <ele>761.98</ele>
        <time>2024-12-01T12:11:00Z</time>
      </trkpt>
      <trkpt lat="45.217" lon="3.1241">
        <ele>756.69</ele>
        <time>2024-12-01T12:11:19Z</time>
      </trkpt>
      <trkpt lat="45.21701" lon="3.1244">
        <ele>752.85</ele>
        <time>2024-12-01T12:11:34Z</time>
      </trkpt>
      <trkpt lat="45.21698" lon="3.12476">
        <ele>749.49</ele>
        <time>2024-12-01T12:11:52Z</time>
      </trkpt>
      <trkpt lat="45.21694" lon="3.12504">
        <ele>746.12</ele>
        <time>2024-12-01T12:12:08Z</time>
      </trkpt>
      <trkpt lat="45.21691" lon="3.12532">
        <ele>747.08</ele>
        <time>2024-12-01T12:12:24Z</time>
      </trkpt>
      <trkpt lat="45.2169" lon="3.12539">
        <ele>747.08</ele>
        <time>2024-12-01T12:12:28Z</time>
      </trkpt>
      <trkpt lat="45.21688" lon="3.12546">
        <ele>747.08</ele>
        <time>2024-12-01T12:12:41Z</time>
      </trkpt>
      <trkpt lat="45.21687" lon="3.12544">
        <ele>747.56</ele>
        <time>2024-12-01T12:12:58Z</time>
      </trkpt>
      <trkpt lat="45.21684" lon="3.12542">
        <ele>744.68</ele>
        <time>2024-12-01T12:13:17Z</time>
      </trkpt>
      <trkpt lat="45.21685" lon="3.12544">
        <ele>743.72</ele>
        <time>2024-12-01T12:13:37Z</time>
      </trkpt>
      <trkpt lat="45.21686" lon="3.12556">
        <ele>744.2</ele>
        <time>2024-12-01T12:13:54Z</time>
      </trkpt>
      <trkpt lat="45.21691" lon="3.12578">
        <ele>748.04</ele>
        <time>2024-12-01T12:14:08Z</time>
      </trkpt>
      <trkpt lat="45.21694" lon="3.12583">
        <ele>749.97</ele>
        <time>2024-12-01T12:14:13Z</time>
      </trkpt>
      <trkpt lat="45.21698" lon="3.12593">
        <ele>750.93</ele>
        <time>2024-12-01T12:14:21Z</time>
      </trkpt>
      <trkpt lat="45.21707" lon="3.1262">
        <ele>745.16</ele>
        <time>2024-12-01T12:14:40Z</time>
      </trkpt>
      <trkpt lat="45.21715" lon="3.12643">
        <ele>748.52</ele>
        <time>2024-12-01T12:14:56Z</time>
      </trkpt>
      <trkpt lat="45.21716" lon="3.12644">
        <ele>748.52</ele>
        <time>2024-12-01T12:14:57Z</time>
      </trkpt>
      <trkpt lat="45.21718" lon="3.12662">
        <ele>746.12</ele>
        <time>2024-12-01T12:15:07Z</time>
      </trkpt>
      <trkpt lat="45.21724" lon="3.12668">
        <ele>744.2</ele>
        <time>2024-12-01T12:15:16Z</time>
      </trkpt>
      <trkpt lat="45.21737" lon="3.12665">
        <ele>744.68</ele>
        <time>2024-12-01T12:15:32Z</time>
      </trkpt>
      <trkpt lat="45.21754" lon="3.12663">
        <ele>742.28</ele>
        <time>2024-12-01T12:15:47Z</time>
      </trkpt>
      <trkpt lat="45.21767" lon="3.1267">
        <ele>743.72</ele>
        <time>2024-12-01T12:16:01Z</time>
      </trkpt>
      <trkpt lat="45.21779" lon="3.12683">
        <ele>748.52</ele>
        <time>2024-12-01T12:16:15Z</time>
      </trkpt>
      <trkpt lat="45.21787" lon="3.127">
        <ele>750.93</ele>
        <time>2024-12-01T12:16:32Z</time>
      </trkpt>
      <trkpt lat="45.21794" lon="3.12713">
        <ele>751.89</ele>
        <time>2024-12-01T12:16:45Z</time>
      </trkpt>
      <trkpt lat="45.21799" lon="3.12725">
        <ele>752.37</ele>
        <time>2024-12-01T12:16:58Z</time>
      </trkpt>
      <trkpt lat="45.21804" lon="3.12741">
        <ele>752.85</ele>
        <time>2024-12-01T12:17:13Z</time>
      </trkpt>
      <trkpt lat="45.21807" lon="3.12756">
        <ele>753.33</ele>
        <time>2024-12-01T12:17:27Z</time>
      </trkpt>
      <trkpt lat="45.21811" lon="3.12767">
        <ele>757.18</ele>
        <time>2024-12-01T12:17:41Z</time>
      </trkpt>
      <trkpt lat="45.21815" lon="3.12779">
        <ele>759.58</ele>
        <time>2024-12-01T12:17:55Z</time>
      </trkpt>
      <trkpt lat="45.21821" lon="3.12787">
        <ele>761.98</ele>
        <time>2024-12-01T12:18:08Z</time>
      </trkpt>
      <trkpt lat="45.21827" lon="3.12797">
        <ele>765.35</ele>
        <time>2024-12-01T12:18:23Z</time>
      </trkpt>
      <trkpt lat="45.21833" lon="3.12801">
        <ele>767.27</ele>
        <time>2024-12-01T12:18:33Z</time>
      </trkpt>
      <trkpt lat="45.21843" lon="3.1281">
        <ele>770.63</ele>
        <time>2024-12-01T12:18:46Z</time>
      </trkpt>
      <trkpt lat="45.21844" lon="3.12811">
        <ele>771.11</ele>
        <time>2024-12-01T12:18:47Z</time>
      </trkpt>
      <trkpt lat="45.21853" lon="3.12834">
        <ele>773.04</ele>
        <time>2024-12-01T12:19:04Z</time>
      </trkpt>
      <trkpt lat="45.21865" lon="3.12847">
        <ele>775.92</ele>
        <time>2024-12-01T12:19:19Z</time>
      </trkpt>
      <trkpt lat="45.21878" lon="3.12861">
        <ele>777.84</ele>
        <time>2024-12-01T12:19:36Z</time>
      </trkpt>
      <trkpt lat="45.2189" lon="3.12883">
        <ele>782.65</ele>
        <time>2024-12-01T12:19:52Z</time>
      </trkpt>
      <trkpt lat="45.21895" lon="3.12899">
        <ele>786.02</ele>
        <time>2024-12-01T12:20:08Z</time>
      </trkpt>
      <trkpt lat="45.21896" lon="3.12909">
        <ele>783.13</ele>
        <time>2024-12-01T12:20:21Z</time>
      </trkpt>
      <trkpt lat="45.21898" lon="3.12915">
        <ele>781.21</ele>
        <time>2024-12-01T12:20:34Z</time>
      </trkpt>
      <trkpt lat="45.21902" lon="3.1291">
        <ele>781.21</ele>
        <time>2024-12-01T12:21:02Z</time>
      </trkpt>
      <trkpt lat="45.21901" lon="3.1292">
        <ele>779.77</ele>
        <time>2024-12-01T12:21:32Z</time>
      </trkpt>
      <trkpt lat="45.21898" lon="3.12928">
        <ele>780.73</ele>
        <time>2024-12-01T12:21:47Z</time>
      </trkpt>
      <trkpt lat="45.21897" lon="3.12929">
        <ele>777.84</ele>
        <time>2024-12-01T12:22:09Z</time>
      </trkpt>
      <trkpt lat="45.21898" lon="3.12929">
        <ele>776.88</ele>
        <time>2024-12-01T12:22:33Z</time>
      </trkpt>
      <trkpt lat="45.219" lon="3.1293">
        <ele>775.92</ele>
        <time>2024-12-01T12:22:57Z</time>
      </trkpt>
      <trkpt lat="45.21899" lon="3.12927">
        <ele>774.96</ele>
        <time>2024-12-01T12:23:19Z</time>
      </trkpt>
      <trkpt lat="45.21896" lon="3.12926">
        <ele>773.52</ele>
        <time>2024-12-01T12:23:48Z</time>
      </trkpt>
      <trkpt lat="45.21892" lon="3.12926">
        <ele>769.19</ele>
        <time>2024-12-01T12:24:21Z</time>
      </trkpt>
      <trkpt lat="45.21895" lon="3.12933">
        <ele>769.19</ele>
        <time>2024-12-01T12:24:37Z</time>
      </trkpt>
      <trkpt lat="45.21902" lon="3.1295">
        <ele>772.08</ele>
        <time>2024-12-01T12:24:52Z</time>
      </trkpt>
      <trkpt lat="45.21909" lon="3.12972">
        <ele>775.44</ele>
        <time>2024-12-01T12:25:10Z</time>
      </trkpt>
      <trkpt lat="45.21916" lon="3.12991">
        <ele>775.44</ele>
        <time>2024-12-01T12:25:23Z</time>
      </trkpt>
      <trkpt lat="45.2192" lon="3.13002">
        <ele>774</ele>
        <time>2024-12-01T12:25:38Z</time>
      </trkpt>
      <trkpt lat="45.21922" lon="3.13003">
        <ele>773.04</ele>
        <time>2024-12-01T12:25:53Z</time>
      </trkpt>
      <trkpt lat="45.21924" lon="3.13003">
        <ele>774.48</ele>
        <time>2024-12-01T12:26:09Z</time>
      </trkpt>
      <trkpt lat="45.21923" lon="3.13007">
        <ele>775.44</ele>
        <time>2024-12-01T12:26:21Z</time>
      </trkpt>
      <trkpt lat="45.21926" lon="3.13012">
        <ele>774.48</ele>
        <time>2024-12-01T12:26:30Z</time>
      </trkpt>
      <trkpt lat="45.2193" lon="3.13013">
        <ele>775.44</ele>
        <time>2024-12-01T12:26:38Z</time>
      </trkpt>
      <trkpt lat="45.21939" lon="3.13015">
        <ele>776.4</ele>
        <time>2024-12-01T12:26:50Z</time>
      </trkpt>
      <trkpt lat="45.21952" lon="3.13017">
        <ele>779.29</ele>
        <time>2024-12-01T12:27:05Z</time>
      </trkpt>
      <trkpt lat="45.21962" lon="3.13017">
        <ele>783.61</ele>
        <time>2024-12-01T12:27:19Z</time>
      </trkpt>
      <trkpt lat="45.21975" lon="3.13017">
        <ele>786.02</ele>
        <time>2024-12-01T12:27:34Z</time>
      </trkpt>
      <trkpt lat="45.21986" lon="3.13019">
        <ele>788.42</ele>
        <time>2024-12-01T12:27:48Z</time>
      </trkpt>
      <trkpt lat="45.21999" lon="3.1302">
        <ele>790.34</ele>
        <time>2024-12-01T12:28:03Z</time>
      </trkpt>
      <trkpt lat="45.22015" lon="3.13025">
        <ele>791.78</ele>
        <time>2024-12-01T12:28:21Z</time>
      </trkpt>
      <trkpt lat="45.22029" lon="3.13029">
        <ele>795.15</ele>
        <time>2024-12-01T12:28:35Z</time>
      </trkpt>
      <trkpt lat="45.2204" lon="3.1304">
        <ele>797.55</ele>
        <time>2024-12-01T12:28:49Z</time>
      </trkpt>
      <trkpt lat="45.22034" lon="3.13044">
        <ele>800.44</ele>
        <time>2024-12-01T12:28:59Z</time>
      </trkpt>
      <trkpt lat="45.22022" lon="3.13048">
        <ele>798.99</ele>
        <time>2024-12-01T12:29:11Z</time>
      </trkpt>
      <trkpt lat="45.22007" lon="3.13059">
        <ele>800.44</ele>
        <time>2024-12-01T12:29:27Z</time>
      </trkpt>
      <trkpt lat="45.21993" lon="3.13065">
        <ele>800.92</ele>
        <time>2024-12-01T12:29:41Z</time>
      </trkpt>
      <trkpt lat="45.21991" lon="3.13066">
        <ele>801.4</ele>
        <time>2024-12-01T12:29:43Z</time>
      </trkpt>
      <trkpt lat="45.21972" lon="3.13071">
        <ele>805.72</ele>
        <time>2024-12-01T12:30:00Z</time>
      </trkpt>
      <trkpt lat="45.21961" lon="3.13075">
        <ele>806.68</ele>
        <time>2024-12-01T12:30:13Z</time>
      </trkpt>
      <trkpt lat="45.21961" lon="3.13082">
        <ele>809.09</ele>
        <time>2024-12-01T12:30:25Z</time>
      </trkpt>
      <trkpt lat="45.21969" lon="3.13083">
        <ele>811.97</ele>
        <time>2024-12-01T12:30:39Z</time>
      </trkpt>
      <trkpt lat="45.21984" lon="3.13084">
        <ele>814.37</ele>
        <time>2024-12-01T12:30:55Z</time>
      </trkpt>
      <trkpt lat="45.21995" lon="3.13087">
        <ele>816.3</ele>
        <time>2024-12-01T12:31:07Z</time>
      </trkpt>
      <trkpt lat="45.21996" lon="3.13088">
        <ele>816.3</ele>
        <time>2024-12-01T12:31:09Z</time>
      </trkpt>
      <trkpt lat="45.22005" lon="3.13092">
        <ele>816.78</ele>
        <time>2024-12-01T12:31:25Z</time>
      </trkpt>
      <trkpt lat="45.22011" lon="3.13092">
        <ele>814.85</ele>
        <time>2024-12-01T12:31:37Z</time>
      </trkpt>
      <trkpt lat="45.22021" lon="3.13095">
        <ele>815.34</ele>
        <time>2024-12-01T12:31:51Z</time>
      </trkpt>
      <trkpt lat="45.22027" lon="3.13104">
        <ele>818.22</ele>
        <time>2024-12-01T12:32:04Z</time>
      </trkpt>
      <trkpt lat="45.22025" lon="3.13107">
        <ele>820.62</ele>
        <time>2024-12-01T12:32:18Z</time>
      </trkpt>
      <trkpt lat="45.2202" lon="3.13117">
        <ele>823.03</ele>
        <time>2024-12-01T12:32:32Z</time>
      </trkpt>
      <trkpt lat="45.22015" lon="3.13121">
        <ele>825.43</ele>
        <time>2024-12-01T12:32:45Z</time>
      </trkpt>
      <trkpt lat="45.22012" lon="3.13125">
        <ele>827.35</ele>
        <time>2024-12-01T12:32:57Z</time>
      </trkpt>
      <trkpt lat="45.22012" lon="3.13127">
        <ele>827.83</ele>
        <time>2024-12-01T12:33:12Z</time>
      </trkpt>
      <trkpt lat="45.22008" lon="3.13135">
        <ele>828.79</ele>
        <time>2024-12-01T12:33:25Z</time>
      </trkpt>
      <trkpt lat="45.22002" lon="3.13142">
        <ele>832.64</ele>
        <time>2024-12-01T12:33:40Z</time>
      </trkpt>
      <trkpt lat="45.22002" lon="3.13146">
        <ele>831.68</ele>
        <time>2024-12-01T12:33:52Z</time>
      </trkpt>
      <trkpt lat="45.22" lon="3.13154">
        <ele>833.6</ele>
        <time>2024-12-01T12:34:04Z</time>
      </trkpt>
      <trkpt lat="45.21995" lon="3.13161">
        <ele>836.96</ele>
        <time>2024-12-01T12:34:16Z</time>
      </trkpt>
      <trkpt lat="45.21989" lon="3.13172">
        <ele>839.85</ele>
        <time>2024-12-01T12:34:29Z</time>
      </trkpt>
      <trkpt lat="45.21982" lon="3.13181">
        <ele>843.21</ele>
        <time>2024-12-01T12:34:42Z</time>
      </trkpt>
      <trkpt lat="45.21973" lon="3.1319">
        <ele>846.58</ele>
        <time>2024-12-01T12:34:57Z</time>
      </trkpt>
      <trkpt lat="45.21965" lon="3.13201">
        <ele>849.94</ele>
        <time>2024-12-01T12:35:11Z</time>
      </trkpt>
      <trkpt lat="45.21959" lon="3.13207">
        <ele>852.83</ele>
        <time>2024-12-01T12:35:23Z</time>
      </trkpt>
      <trkpt lat="45.21956" lon="3.13213">
        <ele>853.31</ele>
        <time>2024-12-01T12:35:36Z</time>
      </trkpt>
      <trkpt lat="45.21956" lon="3.13214">
        <ele>853.31</ele>
        <time>2024-12-01T12:35:37Z</time>
      </trkpt>
      <trkpt lat="45.21953" lon="3.13223">
        <ele>854.75</ele>
        <time>2024-12-01T12:35:48Z</time>
      </trkpt>
      <trkpt lat="45.21949" lon="3.13228">
        <ele>855.23</ele>
        <time>2024-12-01T12:35:57Z</time>
      </trkpt>
      <trkpt lat="45.21949" lon="3.13242">
        <ele>855.71</ele>
        <time>2024-12-01T12:36:11Z</time>
      </trkpt>
      <trkpt lat="45.2195" lon="3.13256">
        <ele>855.23</ele>
        <time>2024-12-01T12:36:24Z</time>
      </trkpt>
      <trkpt lat="45.21948" lon="3.13255">
        <ele>856.19</ele>
        <time>2024-12-01T12:36:46Z</time>
      </trkpt>
      <trkpt lat="45.2195" lon="3.13262">
        <ele>856.67</ele>
        <time>2024-12-01T12:37:18Z</time>
      </trkpt>
      <trkpt lat="45.21952" lon="3.13273">
        <ele>858.59</ele>
        <time>2024-12-01T12:37:27Z</time>
      </trkpt>
      <trkpt lat="45.21953" lon="3.13289">
        <ele>861</ele>
        <time>2024-12-01T12:37:42Z</time>
      </trkpt>
      <trkpt lat="45.21954" lon="3.13297">
        <ele>862.92</ele>
        <time>2024-12-01T12:37:53Z</time>
      </trkpt>
      <trkpt lat="45.21954" lon="3.1331">
        <ele>864.36</ele>
        <time>2024-12-01T12:38:02Z</time>
      </trkpt>
      <trkpt lat="45.21955" lon="3.13318">
        <ele>865.32</ele>
        <time>2024-12-01T12:38:07Z</time>
      </trkpt>
      <trkpt lat="45.21956" lon="3.13326">
        <ele>865.8</ele>
        <time>2024-12-01T12:38:12Z</time>
      </trkpt>
      <trkpt lat="45.21956" lon="3.13329">
        <ele>866.29</ele>
        <time>2024-12-01T12:38:14Z</time>
      </trkpt>
      <trkpt lat="45.21957" lon="3.13347">
        <ele>869.65</ele>
        <time>2024-12-01T12:38:27Z</time>
      </trkpt>
      <trkpt lat="45.21958" lon="3.13364">
        <ele>872.05</ele>
        <time>2024-12-01T12:38:42Z</time>
      </trkpt>
      <trkpt lat="45.21961" lon="3.13376">
        <ele>873.01</ele>
        <time>2024-12-01T12:38:55Z</time>
      </trkpt>
      <trkpt lat="45.21959" lon="3.13378">
        <ele>873.5</ele>
        <time>2024-12-01T12:39:02Z</time>
      </trkpt>
      <trkpt lat="45.21956" lon="3.13374">
        <ele>873.98</ele>
        <time>2024-12-01T12:39:07Z</time>
      </trkpt>
      <trkpt lat="45.21936" lon="3.13367">
        <ele>874.46</ele>
        <time>2024-12-01T13:23:28Z</time>
      </trkpt>
      <trkpt lat="45.21925" lon="3.13364">
        <ele>878.3</ele>
        <time>2024-12-01T13:23:40Z</time>
      </trkpt>
      <trkpt lat="45.21915" lon="3.13358">
        <ele>881.67</ele>
        <time>2024-12-01T13:23:54Z</time>
      </trkpt>
      <trkpt lat="45.21908" lon="3.13353">
        <ele>884.55</ele>
        <time>2024-12-01T13:24:04Z</time>
      </trkpt>
      <trkpt lat="45.21896" lon="3.13346">
        <ele>885.51</ele>
        <time>2024-12-01T13:24:16Z</time>
      </trkpt>
      <trkpt lat="45.21879" lon="3.13345">
        <ele>887.91</ele>
        <time>2024-12-01T13:24:35Z</time>
      </trkpt>
      <trkpt lat="45.21865" lon="3.13349">
        <ele>889.36</ele>
        <time>2024-12-01T13:24:52Z</time>
      </trkpt>
      <trkpt lat="45.2185" lon="3.13354">
        <ele>891.76</ele>
        <time>2024-12-01T13:25:07Z</time>
      </trkpt>
      <trkpt lat="45.21831" lon="3.13357">
        <ele>892.72</ele>
        <time>2024-12-01T13:25:24Z</time>
      </trkpt>
      <trkpt lat="45.21813" lon="3.13352">
        <ele>894.16</ele>
        <time>2024-12-01T13:25:41Z</time>
      </trkpt>
      <trkpt lat="45.21799" lon="3.13336">
        <ele>897.05</ele>
        <time>2024-12-01T13:25:57Z</time>
      </trkpt>
      <trkpt lat="45.21793" lon="3.13311">
        <ele>899.93</ele>
        <time>2024-12-01T13:26:11Z</time>
      </trkpt>
      <trkpt lat="45.21781" lon="3.13284">
        <ele>900.41</ele>
        <time>2024-12-01T13:26:28Z</time>
      </trkpt>
      <trkpt lat="45.21753" lon="3.13263">
        <ele>896.09</ele>
        <time>2024-12-01T13:26:49Z</time>
      </trkpt>
      <trkpt lat="45.21729" lon="3.13254">
        <ele>892.72</ele>
        <time>2024-12-01T13:27:07Z</time>
      </trkpt>
      <trkpt lat="45.21701" lon="3.13245">
        <ele>892.72</ele>
        <time>2024-12-01T13:27:29Z</time>
      </trkpt>
      <trkpt lat="45.21677" lon="3.13239">
        <ele>894.64</ele>
        <time>2024-12-01T13:27:48Z</time>
      </trkpt>
      <trkpt lat="45.21654" lon="3.13235">
        <ele>895.61</ele>
        <time>2024-12-01T13:28:06Z</time>
      </trkpt>
      <trkpt lat="45.21626" lon="3.13229">
        <ele>896.09</ele>
        <time>2024-12-01T13:28:27Z</time>
      </trkpt>
      <trkpt lat="45.21596" lon="3.13229">
        <ele>895.12</ele>
        <time>2024-12-01T13:28:48Z</time>
      </trkpt>
      <trkpt lat="45.21567" lon="3.13232">
        <ele>895.61</ele>
        <time>2024-12-01T13:29:09Z</time>
      </trkpt>
      <trkpt lat="45.21537" lon="3.13233">
        <ele>895.12</ele>
        <time>2024-12-01T13:29:32Z</time>
      </trkpt>
      <trkpt lat="45.21504" lon="3.13236">
        <ele>893.2</ele>
        <time>2024-12-01T13:29:55Z</time>
      </trkpt>
      <trkpt lat="45.21477" lon="3.13236">
        <ele>891.76</ele>
        <time>2024-12-01T13:30:15Z</time>
      </trkpt>
      <trkpt lat="45.21454" lon="3.13253">
        <ele>891.28</ele>
        <time>2024-12-01T13:30:34Z</time>
      </trkpt>
      <trkpt lat="45.21434" lon="3.13289">
        <ele>892.72</ele>
        <time>2024-12-01T13:30:57Z</time>
      </trkpt>
      <trkpt lat="45.21416" lon="3.13315">
        <ele>892.24</ele>
        <time>2024-12-01T13:31:16Z</time>
      </trkpt>
      <trkpt lat="45.21389" lon="3.13348">
        <ele>890.8</ele>
        <time>2024-12-01T13:31:40Z</time>
      </trkpt>
      <trkpt lat="45.21365" lon="3.13356">
        <ele>885.99</ele>
        <time>2024-12-01T13:31:57Z</time>
      </trkpt>
      <trkpt lat="45.21342" lon="3.13369">
        <ele>883.59</ele>
        <time>2024-12-01T13:32:16Z</time>
      </trkpt>
      <trkpt lat="45.21333" lon="3.13408">
        <ele>885.99</ele>
        <time>2024-12-01T13:32:38Z</time>
      </trkpt>
      <trkpt lat="45.21327" lon="3.13442">
        <ele>889.36</ele>
        <time>2024-12-01T13:32:56Z</time>
      </trkpt>
      <trkpt lat="45.21322" lon="3.13477">
        <ele>891.76</ele>
        <time>2024-12-01T13:33:16Z</time>
      </trkpt>
      <trkpt lat="45.21316" lon="3.13519">
        <ele>898.01</ele>
        <time>2024-12-01T13:33:36Z</time>
      </trkpt>
      <trkpt lat="45.21315" lon="3.13522">
        <ele>898.49</ele>
        <time>2024-12-01T13:33:53Z</time>
      </trkpt>
      <trkpt lat="45.21314" lon="3.13531">
        <ele>899.45</ele>
        <time>2024-12-01T13:34:04Z</time>
      </trkpt>
      <trkpt lat="45.21312" lon="3.13542">
        <ele>900.41</ele>
        <time>2024-12-01T13:34:11Z</time>
      </trkpt>
      <trkpt lat="45.21311" lon="3.13553">
        <ele>900.41</ele>
        <time>2024-12-01T13:34:19Z</time>
      </trkpt>
      <trkpt lat="45.213" lon="3.13581">
        <ele>900.41</ele>
        <time>2024-12-01T13:34:36Z</time>
      </trkpt>
      <trkpt lat="45.21285" lon="3.13623">
        <ele>900.41</ele>
        <time>2024-12-01T13:35:00Z</time>
      </trkpt>
      <trkpt lat="45.21271" lon="3.13662">
        <ele>902.33</ele>
        <time>2024-12-01T13:35:23Z</time>
      </trkpt>
      <trkpt lat="45.21255" lon="3.13702">
        <ele>903.78</ele>
        <time>2024-12-01T13:35:47Z</time>
      </trkpt>
      <trkpt lat="45.21247" lon="3.13737">
        <ele>904.26</ele>
        <time>2024-12-01T13:36:07Z</time>
      </trkpt>
      <trkpt lat="45.2124" lon="3.13766">
        <ele>903.3</ele>
        <time>2024-12-01T13:36:25Z</time>
      </trkpt>
      <trkpt lat="45.21228" lon="3.138">
        <ele>900.41</ele>
        <time>2024-12-01T13:36:45Z</time>
      </trkpt>
      <trkpt lat="45.21218" lon="3.1383">
        <ele>898.01</ele>
        <time>2024-12-01T13:37:03Z</time>
      </trkpt>
      <trkpt lat="45.21206" lon="3.13859">
        <ele>895.12</ele>
        <time>2024-12-01T13:37:23Z</time>
      </trkpt>
      <trkpt lat="45.21184" lon="3.13856">
        <ele>892.24</ele>
        <time>2024-12-01T13:37:40Z</time>
      </trkpt>
      <trkpt lat="45.2116" lon="3.13838">
        <ele>891.28</ele>
        <time>2024-12-01T13:37:59Z</time>
      </trkpt>
      <trkpt lat="45.21135" lon="3.1382">
        <ele>890.32</ele>
        <time>2024-12-01T13:38:20Z</time>
      </trkpt>
      <trkpt lat="45.21116" lon="3.13818">
        <ele>887.91</ele>
        <time>2024-12-01T13:38:36Z</time>
      </trkpt>
      <trkpt lat="45.21116" lon="3.13848">
        <ele>884.07</ele>
        <time>2024-12-01T13:38:54Z</time>
      </trkpt>
      <trkpt lat="45.21111" lon="3.13857">
        <ele>883.11</ele>
        <time>2024-12-01T13:39:02Z</time>
      </trkpt>
      <trkpt lat="45.21094" lon="3.13843">
        <ele>881.19</ele>
        <time>2024-12-01T13:39:18Z</time>
      </trkpt>
      <trkpt lat="45.21076" lon="3.13806">
        <ele>876.38</ele>
        <time>2024-12-01T13:39:42Z</time>
      </trkpt>
      <trkpt lat="45.21075" lon="3.13804">
        <ele>875.9</ele>
        <time>2024-12-01T13:39:43Z</time>
      </trkpt>
      <trkpt lat="45.21072" lon="3.13813">
        <ele>874.46</ele>
        <time>2024-12-01T13:39:49Z</time>
      </trkpt>
      <trkpt lat="45.21072" lon="3.13846">
        <ele>872.05</ele>
        <time>2024-12-01T13:40:07Z</time>
      </trkpt>
      <trkpt lat="45.21075" lon="3.13857">
        <ele>871.09</ele>
        <time>2024-12-01T13:40:14Z</time>
      </trkpt>
      <trkpt lat="45.21081" lon="3.1387">
        <ele>869.65</ele>
        <time>2024-12-01T13:40:23Z</time>
      </trkpt>
      <trkpt lat="45.211" lon="3.13889">
        <ele>866.77</ele>
        <time>2024-12-01T13:40:41Z</time>
      </trkpt>
      <trkpt lat="45.21119" lon="3.13909">
        <ele>863.88</ele>
        <time>2024-12-01T13:40:58Z</time>
      </trkpt>
      <trkpt lat="45.21134" lon="3.1393">
        <ele>861.96</ele>
        <time>2024-12-01T13:41:13Z</time>
      </trkpt>
      <trkpt lat="45.21151" lon="3.13957">
        <ele>860.52</ele>
        <time>2024-12-01T13:41:31Z</time>
      </trkpt>
      <trkpt lat="45.21163" lon="3.13987">
        <ele>858.59</ele>
        <time>2024-12-01T13:41:49Z</time>
      </trkpt>
      <trkpt lat="45.21175" lon="3.14016">
        <ele>857.15</ele>
        <time>2024-12-01T13:42:06Z</time>
      </trkpt>
      <trkpt lat="45.21182" lon="3.14055">
        <ele>858.11</ele>
        <time>2024-12-01T13:42:26Z</time>
      </trkpt>
      <trkpt lat="45.21183" lon="3.14092">
        <ele>858.59</ele>
        <time>2024-12-01T13:42:44Z</time>
      </trkpt>
      <trkpt lat="45.2118" lon="3.14135">
        <ele>859.56</ele>
        <time>2024-12-01T13:43:05Z</time>
      </trkpt>
      <trkpt lat="45.21173" lon="3.14169">
        <ele>860.04</ele>
        <time>2024-12-01T13:43:23Z</time>
      </trkpt>
      <trkpt lat="45.21166" lon="3.1421">
        <ele>862.44</ele>
        <time>2024-12-01T13:43:45Z</time>
      </trkpt>
      <trkpt lat="45.21166" lon="3.14247">
        <ele>864.36</ele>
        <time>2024-12-01T13:44:05Z</time>
      </trkpt>
      <trkpt lat="45.21167" lon="3.14283">
        <ele>865.8</ele>
        <time>2024-12-01T13:44:24Z</time>
      </trkpt>
      <trkpt lat="45.21158" lon="3.14318">
        <ele>865.32</ele>
        <time>2024-12-01T13:44:44Z</time>
      </trkpt>
      <trkpt lat="45.21148" lon="3.1435">
        <ele>866.77</ele>
        <time>2024-12-01T13:45:03Z</time>
      </trkpt>
      <trkpt lat="45.21139" lon="3.14387">
        <ele>866.77</ele>
        <time>2024-12-01T13:45:25Z</time>
      </trkpt>
      <trkpt lat="45.2113" lon="3.14422">
        <ele>864.36</ele>
        <time>2024-12-01T13:45:45Z</time>
      </trkpt>
      <trkpt lat="45.21124" lon="3.14469">
        <ele>863.88</ele>
        <time>2024-12-01T13:46:08Z</time>
      </trkpt>
      <trkpt lat="45.21128" lon="3.14505">
        <ele>863.88</ele>
        <time>2024-12-01T13:46:28Z</time>
      </trkpt>
      <trkpt lat="45.21135" lon="3.14541">
        <ele>862.44</ele>
        <time>2024-12-01T13:46:48Z</time>
      </trkpt>
      <trkpt lat="45.21144" lon="3.14574">
        <ele>860.52</ele>
        <time>2024-12-01T13:47:07Z</time>
      </trkpt>
      <trkpt lat="45.21154" lon="3.14606">
        <ele>857.63</ele>
        <time>2024-12-01T13:47:26Z</time>
      </trkpt>
      <trkpt lat="45.21156" lon="3.14616">
        <ele>856.19</ele>
        <time>2024-12-01T13:47:33Z</time>
      </trkpt>
      <trkpt lat="45.21159" lon="3.14636">
        <ele>852.83</ele>
        <time>2024-12-01T13:47:45Z</time>
      </trkpt>
      <trkpt lat="45.21153" lon="3.14669">
        <ele>850.42</ele>
        <time>2024-12-01T13:48:04Z</time>
      </trkpt>
      <trkpt lat="45.21149" lon="3.14703">
        <ele>845.62</ele>
        <time>2024-12-01T13:48:23Z</time>
      </trkpt>
      <trkpt lat="45.21141" lon="3.1473">
        <ele>842.73</ele>
        <time>2024-12-01T13:48:40Z</time>
      </trkpt>
      <trkpt lat="45.21133" lon="3.14756">
        <ele>841.29</ele>
        <time>2024-12-01T13:48:56Z</time>
      </trkpt>
      <trkpt lat="45.21124" lon="3.14786">
        <ele>839.85</ele>
        <time>2024-12-01T13:49:14Z</time>
      </trkpt>
      <trkpt lat="45.21122" lon="3.14799">
        <ele>838.89</ele>
        <time>2024-12-01T13:49:22Z</time>
      </trkpt>
      <trkpt lat="45.21112" lon="3.14834">
        <ele>836.96</ele>
        <time>2024-12-01T13:49:43Z</time>
      </trkpt>
      <trkpt lat="45.21103" lon="3.14866">
        <ele>836.96</ele>
        <time>2024-12-01T13:50:02Z</time>
      </trkpt>
      <trkpt lat="45.21095" lon="3.14894">
        <ele>836.48</ele>
        <time>2024-12-01T13:50:19Z</time>
      </trkpt>
      <trkpt lat="45.21089" lon="3.1492">
        <ele>836.96</ele>
        <time>2024-12-01T13:50:34Z</time>
      </trkpt>
      <trkpt lat="45.21085" lon="3.14951">
        <ele>836.96</ele>
        <time>2024-12-01T13:50:52Z</time>
      </trkpt>
      <trkpt lat="45.21083" lon="3.14977">
        <ele>835.04</ele>
        <time>2024-12-01T13:51:07Z</time>
      </trkpt>
      <trkpt lat="45.21083" lon="3.15009">
        <ele>833.6</ele>
        <time>2024-12-01T13:51:26Z</time>
      </trkpt>
      <trkpt lat="45.21081" lon="3.15038">
        <ele>832.64</ele>
        <time>2024-12-01T13:51:43Z</time>
      </trkpt>
      <trkpt lat="45.21082" lon="3.15066">
        <ele>830.72</ele>
        <time>2024-12-01T13:52:00Z</time>
      </trkpt>
      <trkpt lat="45.2108" lon="3.15087">
        <ele>831.68</ele>
        <time>2024-12-01T13:52:14Z</time>
      </trkpt>
      <trkpt lat="45.21076" lon="3.15112">
        <ele>831.2</ele>
        <time>2024-12-01T13:52:29Z</time>
      </trkpt>
      <trkpt lat="45.21071" lon="3.15138">
        <ele>828.31</ele>
        <time>2024-12-01T13:52:44Z</time>
      </trkpt>
      <trkpt lat="45.21067" lon="3.15167">
        <ele>822.55</ele>
        <time>2024-12-01T13:53:00Z</time>
      </trkpt>
      <trkpt lat="45.21055" lon="3.15195">
        <ele>814.85</ele>
        <time>2024-12-01T13:53:18Z</time>
      </trkpt>
      <trkpt lat="45.2104" lon="3.15217">
        <ele>811.49</ele>
        <time>2024-12-01T13:53:34Z</time>
      </trkpt>
      <trkpt lat="45.21025" lon="3.15236">
        <ele>807.64</ele>
        <time>2024-12-01T13:53:50Z</time>
      </trkpt>
      <trkpt lat="45.21011" lon="3.15262">
        <ele>800.92</ele>
        <time>2024-12-01T13:54:06Z</time>
      </trkpt>
      <trkpt lat="45.21009" lon="3.15263">
        <ele>800.44</ele>
        <time>2024-12-01T13:54:08Z</time>
      </trkpt>
      <trkpt lat="45.20989" lon="3.15272">
        <ele>797.07</ele>
        <time>2024-12-01T13:54:25Z</time>
      </trkpt>
      <trkpt lat="45.20967" lon="3.15276">
        <ele>791.3</ele>
        <time>2024-12-01T13:54:42Z</time>
      </trkpt>
      <trkpt lat="45.20948" lon="3.15277">
        <ele>787.94</ele>
        <time>2024-12-01T13:54:56Z</time>
      </trkpt>
      <trkpt lat="45.20924" lon="3.15281">
        <ele>783.61</ele>
        <time>2024-12-01T13:55:13Z</time>
      </trkpt>
      <trkpt lat="45.20921" lon="3.15282">
        <ele>783.13</ele>
        <time>2024-12-01T13:55:15Z</time>
      </trkpt>
      <trkpt lat="45.20901" lon="3.15292">
        <ele>779.77</ele>
        <time>2024-12-01T13:55:31Z</time>
      </trkpt>
      <trkpt lat="45.20886" lon="3.15309">
        <ele>774.48</ele>
        <time>2024-12-01T13:55:47Z</time>
      </trkpt>
      <trkpt lat="45.20883" lon="3.15316">
        <ele>772.56</ele>
        <time>2024-12-01T13:55:52Z</time>
      </trkpt>
      <trkpt lat="45.20876" lon="3.15332">
        <ele>768.71</ele>
        <time>2024-12-01T13:56:05Z</time>
      </trkpt>
      <trkpt lat="45.20886" lon="3.15354">
        <ele>762.46</ele>
        <time>2024-12-01T13:56:22Z</time>
      </trkpt>
      <trkpt lat="45.20901" lon="3.15361">
        <ele>762.46</ele>
        <time>2024-12-01T13:56:37Z</time>
      </trkpt>
      <trkpt lat="45.20918" lon="3.15365">
        <ele>762.46</ele>
        <time>2024-12-01T13:56:52Z</time>
      </trkpt>
      <trkpt lat="45.20937" lon="3.15372">
        <ele>766.79</ele>
        <time>2024-12-01T13:57:09Z</time>
      </trkpt>
      <trkpt lat="45.20949" lon="3.15376">
        <ele>770.15</ele>
        <time>2024-12-01T13:57:20Z</time>
      </trkpt>
      <trkpt lat="45.20966" lon="3.15391">
        <ele>774.96</ele>
        <time>2024-12-01T13:57:37Z</time>
      </trkpt>
      <trkpt lat="45.20971" lon="3.15397">
        <ele>776.88</ele>
        <time>2024-12-01T13:57:43Z</time>
      </trkpt>
      <trkpt lat="45.20984" lon="3.15419">
        <ele>777.84</ele>
        <time>2024-12-01T13:57:59Z</time>
      </trkpt>
      <trkpt lat="45.20999" lon="3.15426">
        <ele>770.15</ele>
        <time>2024-12-01T13:58:10Z</time>
      </trkpt>
      <trkpt lat="45.2101" lon="3.15441">
        <ele>757.18</ele>
        <time>2024-12-01T13:58:24Z</time>
      </trkpt>
      <trkpt lat="45.21019" lon="3.15457">
        <ele>748.04</ele>
        <time>2024-12-01T13:58:38Z</time>
      </trkpt>
      <trkpt lat="45.21022" lon="3.15467">
        <ele>742.76</ele>
        <time>2024-12-01T13:58:48Z</time>
      </trkpt>
      <trkpt lat="45.21022" lon="3.15488">
        <ele>738.43</ele>
        <time>2024-12-01T13:59:03Z</time>
      </trkpt>
      <trkpt lat="45.21021" lon="3.15509">
        <ele>735.55</ele>
        <time>2024-12-01T13:59:18Z</time>
      </trkpt>
      <trkpt lat="45.2102" lon="3.15529">
        <ele>731.7</ele>
        <time>2024-12-01T13:59:34Z</time>
      </trkpt>
      <trkpt lat="45.21016" lon="3.15533">
        <ele>728.34</ele>
        <time>2024-12-01T13:59:48Z</time>
      </trkpt>
      <trkpt lat="45.21017" lon="3.15534">
        <ele>726.41</ele>
        <time>2024-12-01T14:00:00Z</time>
      </trkpt>
      <trkpt lat="45.21019" lon="3.15539">
        <ele>725.93</ele>
        <time>2024-12-01T14:00:13Z</time>
      </trkpt>
      <trkpt lat="45.21021" lon="3.15544">
        <ele>723.53</ele>
        <time>2024-12-01T14:00:25Z</time>
      </trkpt>
      <trkpt lat="45.21022" lon="3.15552">
        <ele>722.57</ele>
        <time>2024-12-01T14:00:36Z</time>
      </trkpt>
      <trkpt lat="45.21022" lon="3.15553">
        <ele>722.57</ele>
        <time>2024-12-01T14:00:37Z</time>
      </trkpt>
      <trkpt lat="45.21022" lon="3.15558">
        <ele>723.05</ele>
        <time>2024-12-01T14:00:41Z</time>
      </trkpt>
      <trkpt lat="45.21024" lon="3.15574">
        <ele>721.13</ele>
        <time>2024-12-01T14:00:54Z</time>
      </trkpt>
      <trkpt lat="45.21022" lon="3.15584">
        <ele>719.68</ele>
        <time>2024-12-01T14:01:01Z</time>
      </trkpt>
      <trkpt lat="45.21019" lon="3.15591">
        <ele>717.28</ele>
        <time>2024-12-01T14:01:07Z</time>
      </trkpt>
      <trkpt lat="45.2102" lon="3.15597">
        <ele>715.84</ele>
        <time>2024-12-01T14:01:11Z</time>
      </trkpt>
      <trkpt lat="45.21021" lon="3.156">
        <ele>714.88</ele>
        <time>2024-12-01T14:01:13Z</time>
      </trkpt>
      <trkpt lat="45.2102" lon="3.15608">
        <ele>712.95</ele>
        <time>2024-12-01T14:01:17Z</time>
      </trkpt>
      <trkpt lat="45.21004" lon="3.15616">
        <ele>706.23</ele>
        <time>2024-12-01T14:01:31Z</time>
      </trkpt>
      <trkpt lat="45.20984" lon="3.15616">
        <ele>703.82</ele>
        <time>2024-12-01T14:01:45Z</time>
      </trkpt>
      <trkpt lat="45.20966" lon="3.15617">
        <ele>699.98</ele>
        <time>2024-12-01T14:01:57Z</time>
      </trkpt>
      <trkpt lat="45.20954" lon="3.15612">
        <ele>695.17</ele>
        <time>2024-12-01T14:02:07Z</time>
      </trkpt>
      <trkpt lat="45.20946" lon="3.15596">
        <ele>689.4</ele>
        <time>2024-12-01T14:02:20Z</time>
      </trkpt>
      <trkpt lat="45.20944" lon="3.15592">
        <ele>687.96</ele>
        <time>2024-12-01T14:02:23Z</time>
      </trkpt>
      <trkpt lat="45.20942" lon="3.1559">
        <ele>687</ele>
        <time>2024-12-01T14:02:25Z</time>
      </trkpt>
      <trkpt lat="45.20941" lon="3.15594">
        <ele>685.56</ele>
        <time>2024-12-01T14:02:29Z</time>
      </trkpt>
      <trkpt lat="45.20948" lon="3.15625">
        <ele>681.71</ele>
        <time>2024-12-01T14:02:48Z</time>
      </trkpt>
      <trkpt lat="45.20944" lon="3.15629">
        <ele>677.39</ele>
        <time>2024-12-01T14:02:59Z</time>
      </trkpt>
      <trkpt lat="45.20937" lon="3.1563">
        <ele>673.54</ele>
        <time>2024-12-01T14:03:09Z</time>
      </trkpt>
      <trkpt lat="45.20932" lon="3.15627">
        <ele>671.62</ele>
        <time>2024-12-01T14:03:15Z</time>
      </trkpt>
      <trkpt lat="45.20924" lon="3.15617">
        <ele>668.25</ele>
        <time>2024-12-01T14:03:29Z</time>
      </trkpt>
      <trkpt lat="45.20921" lon="3.15611">
        <ele>667.77</ele>
        <time>2024-12-01T14:03:34Z</time>
      </trkpt>
      <trkpt lat="45.2092" lon="3.15608">
        <ele>667.77</ele>
        <time>2024-12-01T14:03:37Z</time>
      </trkpt>
      <trkpt lat="45.20916" lon="3.1561">
        <ele>668.73</ele>
        <time>2024-12-01T14:03:49Z</time>
      </trkpt>
      <trkpt lat="45.20916" lon="3.15605">
        <ele>668.25</ele>
        <time>2024-12-01T14:04:10Z</time>
      </trkpt>
      <trkpt lat="45.20916" lon="3.15602">
        <ele>668.25</ele>
        <time>2024-12-01T14:04:23Z</time>
      </trkpt>
      <trkpt lat="45.20917" lon="3.15605">
        <ele>666.81</ele>
        <time>2024-12-01T14:04:32Z</time>
      </trkpt>
      <trkpt lat="45.20916" lon="3.15622">
        <ele>665.37</ele>
        <time>2024-12-01T14:04:47Z</time>
      </trkpt>
      <trkpt lat="45.20916" lon="3.15623">
        <ele>665.37</ele>
        <time>2024-12-01T14:04:48Z</time>
      </trkpt>
      <trkpt lat="45.20915" lon="3.1564">
        <ele>662.49</ele>
        <time>2024-12-01T14:05:04Z</time>
      </trkpt>
      <trkpt lat="45.20914" lon="3.15657">
        <ele>660.56</ele>
        <time>2024-12-01T14:05:17Z</time>
      </trkpt>
      <trkpt lat="45.20913" lon="3.15678">
        <ele>657.68</ele>
        <time>2024-12-01T14:05:33Z</time>
      </trkpt>
      <trkpt lat="45.20914" lon="3.15683">
        <ele>656.24</ele>
        <time>2024-12-01T14:05:37Z</time>
      </trkpt>
      <trkpt lat="45.20923" lon="3.15706">
        <ele>651.91</ele>
        <time>2024-12-01T14:05:55Z</time>
      </trkpt>
      <trkpt lat="45.20924" lon="3.1571">
        <ele>651.43</ele>
        <time>2024-12-01T14:05:58Z</time>
      </trkpt>
      <trkpt lat="45.2094" lon="3.15727">
        <ele>651.91</ele>
        <time>2024-12-01T14:06:18Z</time>
      </trkpt>
      <trkpt lat="45.2095" lon="3.15735">
        <ele>652.39</ele>
        <time>2024-12-01T14:06:32Z</time>
      </trkpt>
      <trkpt lat="45.20951" lon="3.15738">
        <ele>652.39</ele>
        <time>2024-12-01T14:06:34Z</time>
      </trkpt>
      <trkpt lat="45.20944" lon="3.15751">
        <ele>651.91</ele>
        <time>2024-12-01T14:06:47Z</time>
      </trkpt>
      <trkpt lat="45.20937" lon="3.15755">
        <ele>651.91</ele>
        <time>2024-12-01T14:06:54Z</time>
      </trkpt>
      <trkpt lat="45.20932" lon="3.15757">
        <ele>651.91</ele>
        <time>2024-12-01T14:06:58Z</time>
      </trkpt>
      <trkpt lat="45.20913" lon="3.15758">
        <ele>650.95</ele>
        <time>2024-12-01T14:07:15Z</time>
      </trkpt>
      <trkpt lat="45.20904" lon="3.15758">
        <ele>650.47</ele>
        <time>2024-12-01T14:07:22Z</time>
      </trkpt>
      <trkpt lat="45.20893" lon="3.15754">
        <ele>648.55</ele>
        <time>2024-12-01T14:07:30Z</time>
      </trkpt>
      <trkpt lat="45.20872" lon="3.1574">
        <ele>639.41</ele>
        <time>2024-12-01T14:07:47Z</time>
      </trkpt>
      <trkpt lat="45.20867" lon="3.15737">
        <ele>637.97</ele>
        <time>2024-12-01T14:07:52Z</time>
      </trkpt>
      <trkpt lat="45.2087" lon="3.15745">
        <ele>630.76</ele>
        <time>2024-12-01T14:08:03Z</time>
      </trkpt>
      <trkpt lat="45.20873" lon="3.1575">
        <ele>628.84</ele>
        <time>2024-12-01T14:08:07Z</time>
      </trkpt>
      <trkpt lat="45.20884" lon="3.1577">
        <ele>624.99</ele>
        <time>2024-12-01T14:08:26Z</time>
      </trkpt>
      <trkpt lat="45.20888" lon="3.15782">
        <ele>624.99</ele>
        <time>2024-12-01T14:08:36Z</time>
      </trkpt>
      <trkpt lat="45.2089" lon="3.15787">
        <ele>624.51</ele>
        <time>2024-12-01T14:08:50Z</time>
      </trkpt>
      <trkpt lat="45.20887" lon="3.1579">
        <ele>621.63</ele>
        <time>2024-12-01T14:09:02Z</time>
      </trkpt>
      <trkpt lat="45.20888" lon="3.15789">
        <ele>620.67</ele>
        <time>2024-12-01T14:09:13Z</time>
      </trkpt>
      <trkpt lat="45.20886" lon="3.15789">
        <ele>620.19</ele>
        <time>2024-12-01T14:09:27Z</time>
      </trkpt>
      <trkpt lat="45.20887" lon="3.1579">
        <ele>618.26</ele>
        <time>2024-12-01T14:09:45Z</time>
      </trkpt>
      <trkpt lat="45.20887" lon="3.15785">
        <ele>617.78</ele>
        <time>2024-12-01T14:09:57Z</time>
      </trkpt>
      <trkpt lat="45.20885" lon="3.15785">
        <ele>616.82</ele>
        <time>2024-12-01T14:10:05Z</time>
      </trkpt>
      <trkpt lat="45.20878" lon="3.15784">
        <ele>615.86</ele>
        <time>2024-12-01T14:10:12Z</time>
      </trkpt>
      <trkpt lat="45.2087" lon="3.15782">
        <ele>614.9</ele>
        <time>2024-12-01T14:10:19Z</time>
      </trkpt>
      <trkpt lat="45.20852" lon="3.1577">
        <ele>612.5</ele>
        <time>2024-12-01T14:10:35Z</time>
      </trkpt>
      <trkpt lat="45.20851" lon="3.15768">
        <ele>612.02</ele>
        <time>2024-12-01T14:10:36Z</time>
      </trkpt>
      <trkpt lat="45.20832" lon="3.1575">
        <ele>610.09</ele>
        <time>2024-12-01T14:10:53Z</time>
      </trkpt>
      <trkpt lat="45.20829" lon="3.15749">
        <ele>609.61</ele>
        <time>2024-12-01T14:10:56Z</time>
      </trkpt>
      <trkpt lat="45.20823" lon="3.15756">
        <ele>608.17</ele>
        <time>2024-12-01T14:11:05Z</time>
      </trkpt>
      <trkpt lat="45.2081" lon="3.15775">
        <ele>606.25</ele>
        <time>2024-12-01T14:11:21Z</time>
      </trkpt>
      <trkpt lat="45.20807" lon="3.15776">
        <ele>605.77</ele>
        <time>2024-12-01T14:11:24Z</time>
      </trkpt>
      <trkpt lat="45.20792" lon="3.15771">
        <ele>605.77</ele>
        <time>2024-12-01T14:11:39Z</time>
      </trkpt>
      <trkpt lat="45.20782" lon="3.15766">
        <ele>605.29</ele>
        <time>2024-12-01T14:11:52Z</time>
      </trkpt>
      <trkpt lat="45.20784" lon="3.15761">
        <ele>603.85</ele>
        <time>2024-12-01T14:12:09Z</time>
      </trkpt>
      <trkpt lat="45.20785" lon="3.15758">
        <ele>605.77</ele>
        <time>2024-12-01T14:12:27Z</time>
      </trkpt>
      <trkpt lat="45.20782" lon="3.15769">
        <ele>605.77</ele>
        <time>2024-12-01T14:12:45Z</time>
      </trkpt>
      <trkpt lat="45.20781" lon="3.1577">
        <ele>605.29</ele>
        <time>2024-12-01T14:12:46Z</time>
      </trkpt>
      <trkpt lat="45.20764" lon="3.15779">
        <ele>602.88</ele>
        <time>2024-12-01T14:13:04Z</time>
      </trkpt>
      <trkpt lat="45.20757" lon="3.15776">
        <ele>601.92</ele>
        <time>2024-12-01T14:13:18Z</time>
      </trkpt>
      <trkpt lat="45.20753" lon="3.1577">
        <ele>600.96</ele>
        <time>2024-12-01T14:13:33Z</time>
      </trkpt>
      <trkpt lat="45.20751" lon="3.15769">
        <ele>596.15</ele>
        <time>2024-12-01T14:13:52Z</time>
      </trkpt>
      <trkpt lat="45.20747" lon="3.1577">
        <ele>595.19</ele>
        <time>2024-12-01T14:14:06Z</time>
      </trkpt>
      <trkpt lat="45.20745" lon="3.15779">
        <ele>597.12</ele>
        <time>2024-12-01T14:14:15Z</time>
      </trkpt>
      <trkpt lat="45.20746" lon="3.15784">
        <ele>598.56</ele>
        <time>2024-12-01T14:14:19Z</time>
      </trkpt>
      <trkpt lat="45.20749" lon="3.15788">
        <ele>598.08</ele>
        <time>2024-12-01T14:14:24Z</time>
      </trkpt>
      <trkpt lat="45.20764" lon="3.1581">
        <ele>596.64</ele>
        <time>2024-12-01T14:14:42Z</time>
      </trkpt>
      <trkpt lat="45.20776" lon="3.15835">
        <ele>597.6</ele>
        <time>2024-12-01T14:14:58Z</time>
      </trkpt>
      <trkpt lat="45.20785" lon="3.15851">
        <ele>597.6</ele>
        <time>2024-12-01T14:15:11Z</time>
      </trkpt>
      <trkpt lat="45.2078" lon="3.1587">
        <ele>592.79</ele>
        <time>2024-12-01T14:15:23Z</time>
      </trkpt>
      <trkpt lat="45.20777" lon="3.15877">
        <ele>587.98</ele>
        <time>2024-12-01T14:15:34Z</time>
      </trkpt>
      <trkpt lat="45.20784" lon="3.15889">
        <ele>586.06</ele>
        <time>2024-12-01T14:15:42Z</time>
      </trkpt>
      <trkpt lat="45.20785" lon="3.15901">
        <ele>586.54</ele>
        <time>2024-12-01T14:15:48Z</time>
      </trkpt>
      <trkpt lat="45.20784" lon="3.15907">
        <ele>586.54</ele>
        <time>2024-12-01T14:15:51Z</time>
      </trkpt>
      <trkpt lat="45.20784" lon="3.15911">
        <ele>587.02</ele>
        <time>2024-12-01T14:15:54Z</time>
      </trkpt>
      <trkpt lat="45.20792" lon="3.15934">
        <ele>587.5</ele>
        <time>2024-12-01T14:16:13Z</time>
      </trkpt>
      <trkpt lat="45.20813" lon="3.15951">
        <ele>589.43</ele>
        <time>2024-12-01T14:16:32Z</time>
      </trkpt>
      <trkpt lat="45.2083" lon="3.15971">
        <ele>590.87</ele>
        <time>2024-12-01T14:16:49Z</time>
      </trkpt>
      <trkpt lat="45.20849" lon="3.15988">
        <ele>591.83</ele>
        <time>2024-12-01T14:17:07Z</time>
      </trkpt>
      <trkpt lat="45.20871" lon="3.16001">
        <ele>592.79</ele>
        <time>2024-12-01T14:17:25Z</time>
      </trkpt>
      <trkpt lat="45.20894" lon="3.16012">
        <ele>594.23</ele>
        <time>2024-12-01T14:17:43Z</time>
      </trkpt>
      <trkpt lat="45.20921" lon="3.16024">
        <ele>594.71</ele>
        <time>2024-12-01T14:18:04Z</time>
      </trkpt>
      <trkpt lat="45.20939" lon="3.16035">
        <ele>595.67</ele>
        <time>2024-12-01T14:18:19Z</time>
      </trkpt>
      <trkpt lat="45.20947" lon="3.16051">
        <ele>596.64</ele>
        <time>2024-12-01T14:18:31Z</time>
      </trkpt>
      <trkpt lat="45.20946" lon="3.16081">
        <ele>598.56</ele>
        <time>2024-12-01T14:18:49Z</time>
      </trkpt>
      <trkpt lat="45.2094" lon="3.16109">
        <ele>600</ele>
        <time>2024-12-01T14:19:04Z</time>
      </trkpt>
      <trkpt lat="45.20941" lon="3.16134">
        <ele>602.88</ele>
        <time>2024-12-01T14:19:19Z</time>
      </trkpt>
      <trkpt lat="45.20959" lon="3.16152">
        <ele>605.77</ele>
        <time>2024-12-01T14:19:36Z</time>
      </trkpt>
      <trkpt lat="45.20983" lon="3.16168">
        <ele>606.25</ele>
        <time>2024-12-01T14:19:57Z</time>
      </trkpt>
      <trkpt lat="45.20995" lon="3.16188">
        <ele>607.21</ele>
        <time>2024-12-01T14:20:12Z</time>
      </trkpt>
      <trkpt lat="45.21009" lon="3.16205">
        <ele>607.21</ele>
        <time>2024-12-01T14:20:28Z</time>
      </trkpt>
      <trkpt lat="45.21015" lon="3.16234">
        <ele>607.21</ele>
        <time>2024-12-01T14:20:45Z</time>
      </trkpt>
      <trkpt lat="45.21014" lon="3.16264">
        <ele>610.09</ele>
        <time>2024-12-01T14:21:01Z</time>
      </trkpt>
      <trkpt lat="45.21003" lon="3.16292">
        <ele>614.42</ele>
        <time>2024-12-01T14:21:18Z</time>
      </trkpt>
      <trkpt lat="45.20997" lon="3.16306">
        <ele>617.78</ele>
        <time>2024-12-01T14:21:32Z</time>
      </trkpt>
      <trkpt lat="45.20992" lon="3.16322">
        <ele>620.19</ele>
        <time>2024-12-01T14:21:46Z</time>
      </trkpt>
      <trkpt lat="45.20992" lon="3.16339">
        <ele>622.59</ele>
        <time>2024-12-01T14:22:01Z</time>
      </trkpt>
      <trkpt lat="45.20995" lon="3.16351">
        <ele>622.11</ele>
        <time>2024-12-01T14:22:15Z</time>
      </trkpt>
      <trkpt lat="45.20995" lon="3.16365">
        <ele>623.55</ele>
        <time>2024-12-01T14:22:26Z</time>
      </trkpt>
      <trkpt lat="45.20994" lon="3.16371">
        <ele>623.55</ele>
        <time>2024-12-01T14:22:31Z</time>
      </trkpt>
      <trkpt lat="45.20994" lon="3.16385">
        <ele>624.03</ele>
        <time>2024-12-01T14:22:45Z</time>
      </trkpt>
      <trkpt lat="45.20993" lon="3.16388">
        <ele>624.51</ele>
        <time>2024-12-01T14:22:56Z</time>
      </trkpt>
      <trkpt lat="45.20991" lon="3.1639">
        <ele>624.99</ele>
        <time>2024-12-01T14:23:08Z</time>
      </trkpt>
      <trkpt lat="45.20991" lon="3.16389">
        <ele>624.51</ele>
        <time>2024-12-01T14:23:10Z</time>
      </trkpt>
      <trkpt lat="45.20989" lon="3.16413">
        <ele>627.4</ele>
        <time>2024-12-01T14:23:24Z</time>
      </trkpt>
      <trkpt lat="45.2099" lon="3.16432">
        <ele>629.8</ele>
        <time>2024-12-01T14:23:37Z</time>
      </trkpt>
      <trkpt lat="45.2099" lon="3.16451">
        <ele>631.72</ele>
        <time>2024-12-01T14:23:51Z</time>
      </trkpt>
      <trkpt lat="45.20988" lon="3.16465">
        <ele>633.17</ele>
        <time>2024-12-01T14:24:06Z</time>
      </trkpt>
      <trkpt lat="45.20987" lon="3.16466">
        <ele>634.61</ele>
        <time>2024-12-01T14:24:23Z</time>
      </trkpt>
      <trkpt lat="45.20984" lon="3.16467">
        <ele>633.65</ele>
        <time>2024-12-01T14:24:38Z</time>
      </trkpt>
      <trkpt lat="45.20987" lon="3.16472">
        <ele>635.09</ele>
        <time>2024-12-01T14:24:53Z</time>
      </trkpt>
      <trkpt lat="45.20988" lon="3.16481">
        <ele>636.05</ele>
        <time>2024-12-01T14:25:01Z</time>
      </trkpt>
      <trkpt lat="45.20987" lon="3.16484">
        <ele>636.05</ele>
        <time>2024-12-01T14:25:03Z</time>
      </trkpt>
      <trkpt lat="45.20986" lon="3.16506">
        <ele>637.49</ele>
        <time>2024-12-01T14:25:18Z</time>
      </trkpt>
      <trkpt lat="45.20991" lon="3.16537">
        <ele>640.38</ele>
        <time>2024-12-01T14:25:37Z</time>
      </trkpt>
      <trkpt lat="45.20998" lon="3.16552">
        <ele>644.7</ele>
        <time>2024-12-01T14:25:49Z</time>
      </trkpt>
      <trkpt lat="45.21002" lon="3.16563">
        <ele>647.1</ele>
        <time>2024-12-01T14:26:01Z</time>
      </trkpt>
      <trkpt lat="45.21006" lon="3.16577">
        <ele>649.51</ele>
        <time>2024-12-01T14:26:15Z</time>
      </trkpt>
      <trkpt lat="45.21011" lon="3.16589">
        <ele>650.95</ele>
        <time>2024-12-01T14:26:28Z</time>
      </trkpt>
      <trkpt lat="45.21015" lon="3.16602">
        <ele>653.35</ele>
        <time>2024-12-01T14:26:40Z</time>
      </trkpt>
      <trkpt lat="45.21015" lon="3.16603">
        <ele>653.83</ele>
        <time>2024-12-01T14:26:42Z</time>
      </trkpt>
      <trkpt lat="45.21017" lon="3.16609">
        <ele>654.8</ele>
        <time>2024-12-01T14:26:55Z</time>
      </trkpt>
      <trkpt lat="45.21016" lon="3.16615">
        <ele>654.8</ele>
        <time>2024-12-01T14:27:06Z</time>
      </trkpt>
      <trkpt lat="45.21016" lon="3.16631">
        <ele>659.12</ele>
        <time>2024-12-01T14:27:18Z</time>
      </trkpt>
      <trkpt lat="45.21014" lon="3.16636">
        <ele>660.08</ele>
        <time>2024-12-01T14:27:22Z</time>
      </trkpt>
      <trkpt lat="45.21012" lon="3.16656">
        <ele>664.41</ele>
        <time>2024-12-01T14:27:36Z</time>
      </trkpt>
      <trkpt lat="45.21011" lon="3.16664">
        <ele>666.33</ele>
        <time>2024-12-01T14:27:44Z</time>
      </trkpt>
      <trkpt lat="45.21008" lon="3.16681">
        <ele>670.66</ele>
        <time>2024-12-01T14:27:58Z</time>
      </trkpt>
      <trkpt lat="45.21006" lon="3.1669">
        <ele>673.06</ele>
        <time>2024-12-01T14:28:11Z</time>
      </trkpt>
      <trkpt lat="45.21011" lon="3.16697">
        <ele>674.98</ele>
        <time>2024-12-01T14:28:23Z</time>
      </trkpt>
      <trkpt lat="45.21018" lon="3.16705">
        <ele>677.39</ele>
        <time>2024-12-01T14:28:37Z</time>
      </trkpt>
      <trkpt lat="45.21024" lon="3.16714">
        <ele>679.31</ele>
        <time>2024-12-01T14:28:52Z</time>
      </trkpt>
      <trkpt lat="45.21026" lon="3.16722">
        <ele>681.71</ele>
        <time>2024-12-01T14:29:03Z</time>
      </trkpt>
      <trkpt lat="45.21024" lon="3.16727">
        <ele>683.15</ele>
        <time>2024-12-01T14:29:13Z</time>
      </trkpt>
      <trkpt lat="45.21025" lon="3.16737">
        <ele>686.52</ele>
        <time>2024-12-01T14:29:26Z</time>
      </trkpt>
      <trkpt lat="45.21029" lon="3.16744">
        <ele>689.4</ele>
        <time>2024-12-01T14:29:37Z</time>
      </trkpt>
      <trkpt lat="45.21037" lon="3.16749">
        <ele>693.25</ele>
        <time>2024-12-01T14:29:51Z</time>
      </trkpt>
      <trkpt lat="45.21041" lon="3.16754">
        <ele>693.73</ele>
        <time>2024-12-01T14:30:02Z</time>
      </trkpt>
      <trkpt lat="45.21048" lon="3.16763">
        <ele>695.17</ele>
        <time>2024-12-01T14:30:17Z</time>
      </trkpt>
      <trkpt lat="45.21049" lon="3.16765">
        <ele>695.17</ele>
        <time>2024-12-01T14:30:35Z</time>
      </trkpt>
      <trkpt lat="45.21057" lon="3.16776">
        <ele>698.53</ele>
        <time>2024-12-01T14:30:50Z</time>
      </trkpt>
      <trkpt lat="45.21065" lon="3.16786">
        <ele>699.98</ele>
        <time>2024-12-01T14:31:04Z</time>
      </trkpt>
      <trkpt lat="45.21071" lon="3.16797">
        <ele>704.3</ele>
        <time>2024-12-01T14:31:18Z</time>
      </trkpt>
      <trkpt lat="45.21076" lon="3.1681">
        <ele>707.19</ele>
        <time>2024-12-01T14:31:32Z</time>
      </trkpt>
      <trkpt lat="45.21081" lon="3.1682">
        <ele>711.51</ele>
        <time>2024-12-01T14:31:46Z</time>
      </trkpt>
      <trkpt lat="45.21089" lon="3.16837">
        <ele>713.44</ele>
        <time>2024-12-01T14:32:01Z</time>
      </trkpt>
      <trkpt lat="45.21095" lon="3.1685">
        <ele>716.32</ele>
        <time>2024-12-01T14:32:15Z</time>
      </trkpt>
      <trkpt lat="45.21102" lon="3.16867">
        <ele>721.61</ele>
        <time>2024-12-01T14:32:30Z</time>
      </trkpt>
      <trkpt lat="45.21103" lon="3.16872">
        <ele>722.57</ele>
        <time>2024-12-01T14:32:33Z</time>
      </trkpt>
      <trkpt lat="45.21112" lon="3.16895">
        <ele>724.97</ele>
        <time>2024-12-01T14:32:49Z</time>
      </trkpt>
      <trkpt lat="45.21113" lon="3.16898">
        <ele>725.93</ele>
        <time>2024-12-01T14:32:51Z</time>
      </trkpt>
      <trkpt lat="45.21117" lon="3.16904">
        <ele>726.89</ele>
        <time>2024-12-01T14:32:56Z</time>
      </trkpt>
      <trkpt lat="45.21127" lon="3.16928">
        <ele>732.18</ele>
        <time>2024-12-01T14:33:14Z</time>
      </trkpt>
      <trkpt lat="45.21132" lon="3.16947">
        <ele>735.07</ele>
        <time>2024-12-01T14:33:28Z</time>
      </trkpt>
      <trkpt lat="45.21138" lon="3.16964">
        <ele>736.51</ele>
        <time>2024-12-01T14:33:41Z</time>
      </trkpt>
      <trkpt lat="45.21147" lon="3.16982">
        <ele>740.35</ele>
        <time>2024-12-01T14:33:55Z</time>
      </trkpt>
      <trkpt lat="45.21161" lon="3.17004">
        <ele>743.72</ele>
        <time>2024-12-01T14:34:12Z</time>
      </trkpt>
      <trkpt lat="45.21166" lon="3.17013">
        <ele>744.2</ele>
        <time>2024-12-01T14:34:18Z</time>
      </trkpt>
      <trkpt lat="45.21174" lon="3.17027">
        <ele>744.68</ele>
        <time>2024-12-01T14:34:29Z</time>
      </trkpt>
      <trkpt lat="45.21184" lon="3.1705">
        <ele>747.08</ele>
        <time>2024-12-01T14:34:44Z</time>
      </trkpt>
      <trkpt lat="45.21189" lon="3.17065">
        <ele>749.49</ele>
        <time>2024-12-01T14:34:53Z</time>
      </trkpt>
      <trkpt lat="45.21191" lon="3.17068">
        <ele>749.97</ele>
        <time>2024-12-01T14:34:56Z</time>
      </trkpt>
      <trkpt lat="45.21192" lon="3.17074">
        <ele>749.97</ele>
        <time>2024-12-01T14:35:00Z</time>
      </trkpt>
      <trkpt lat="45.21194" lon="3.1708">
        <ele>749.49</ele>
        <time>2024-12-01T14:35:04Z</time>
      </trkpt>
      <trkpt lat="45.21195" lon="3.17086">
        <ele>749.97</ele>
        <time>2024-12-01T14:35:08Z</time>
      </trkpt>
      <trkpt lat="45.21195" lon="3.17099">
        <ele>751.41</ele>
        <time>2024-12-01T14:35:17Z</time>
      </trkpt>
      <trkpt lat="45.21199" lon="3.17116">
        <ele>753.81</ele>
        <time>2024-12-01T14:35:31Z</time>
      </trkpt>
      <trkpt lat="45.21201" lon="3.17134">
        <ele>757.66</ele>
        <time>2024-12-01T14:35:45Z</time>
      </trkpt>
      <trkpt lat="45.21206" lon="3.1715">
        <ele>761.5</ele>
        <time>2024-12-01T14:35:57Z</time>
      </trkpt>
      <trkpt lat="45.21209" lon="3.17156">
        <ele>762.94</ele>
        <time>2024-12-01T14:36:02Z</time>
      </trkpt>
      <trkpt lat="45.21224" lon="3.17165">
        <ele>760.06</ele>
        <time>2024-12-01T14:36:19Z</time>
      </trkpt>
      <trkpt lat="45.21239" lon="3.17168">
        <ele>761.98</ele>
        <time>2024-12-01T14:36:33Z</time>
      </trkpt>
      <trkpt lat="45.21255" lon="3.17179">
        <ele>763.42</ele>
        <time>2024-12-01T14:36:49Z</time>
      </trkpt>
      <trkpt lat="45.21267" lon="3.1719">
        <ele>765.35</ele>
        <time>2024-12-01T14:37:05Z</time>
      </trkpt>
      <trkpt lat="45.21272" lon="3.172">
        <ele>766.79</ele>
        <time>2024-12-01T14:37:14Z</time>
      </trkpt>
      <trkpt lat="45.21272" lon="3.17204">
        <ele>767.75</ele>
        <time>2024-12-01T14:37:18Z</time>
      </trkpt>
      <trkpt lat="45.21281" lon="3.17214">
        <ele>771.11</ele>
        <time>2024-12-01T14:37:34Z</time>
      </trkpt>
      <trkpt lat="45.21285" lon="3.17219">
        <ele>774</ele>
        <time>2024-12-01T14:37:46Z</time>
      </trkpt>
      <trkpt lat="45.21291" lon="3.17231">
        <ele>776.4</ele>
        <time>2024-12-01T14:38:01Z</time>
      </trkpt>
      <trkpt lat="45.21295" lon="3.17238">
        <ele>778.81</ele>
        <time>2024-12-01T14:38:11Z</time>
      </trkpt>
      <trkpt lat="45.21296" lon="3.1724">
        <ele>779.29</ele>
        <time>2024-12-01T14:38:13Z</time>
      </trkpt>
      <trkpt lat="45.21296" lon="3.17243">
        <ele>779.29</ele>
        <time>2024-12-01T14:38:15Z</time>
      </trkpt>
      <trkpt lat="45.213" lon="3.17258">
        <ele>781.21</ele>
        <time>2024-12-01T14:38:29Z</time>
      </trkpt>
      <trkpt lat="45.21304" lon="3.17265">
        <ele>783.13</ele>
        <time>2024-12-01T14:38:42Z</time>
      </trkpt>
      <trkpt lat="45.21306" lon="3.17266">
        <ele>782.65</ele>
        <time>2024-12-01T14:38:56Z</time>
      </trkpt>
      <trkpt lat="45.21306" lon="3.17266">
        <ele>779.77</ele>
        <time>2024-12-01T14:39:29Z</time>
      </trkpt>
      <trkpt lat="45.21306" lon="3.17266">
        <ele>782.17</ele>
        <time>2024-12-01T14:40:01Z</time>
      </trkpt>
      <trkpt lat="45.21306" lon="3.17266">
        <ele>782.65</ele>
        <time>2024-12-01T14:40:36Z</time>
      </trkpt>
      <trkpt lat="45.21306" lon="3.17266">
        <ele>781.21</ele>
        <time>2024-12-01T14:41:07Z</time>
      </trkpt>
      <trkpt lat="45.21306" lon="3.17265">
        <ele>784.09</ele>
        <time>2024-12-01T14:41:44Z</time>
      </trkpt>
      <trkpt lat="45.2131" lon="3.17272">
        <ele>784.57</ele>
        <time>2024-12-01T14:41:56Z</time>
      </trkpt>
      <trkpt lat="45.2132" lon="3.17277">
        <ele>788.42</ele>
        <time>2024-12-01T14:42:11Z</time>
      </trkpt>
      <trkpt lat="45.21321" lon="3.17278">
        <ele>788.42</ele>
        <time>2024-12-01T14:42:12Z</time>
      </trkpt>
      <trkpt lat="45.2133" lon="3.17278">
        <ele>790.34</ele>
        <time>2024-12-01T14:42:24Z</time>
      </trkpt>
      <trkpt lat="45.2134" lon="3.17276">
        <ele>792.74</ele>
        <time>2024-12-01T14:42:36Z</time>
      </trkpt>
      <trkpt lat="45.21352" lon="3.17273">
        <ele>795.63</ele>
        <time>2024-12-01T14:42:50Z</time>
      </trkpt>
      <trkpt lat="45.21353" lon="3.17271">
        <ele>796.11</ele>
        <time>2024-12-01T14:42:52Z</time>
      </trkpt>
      <trkpt lat="45.21358" lon="3.17257">
        <ele>797.55</ele>
        <time>2024-12-01T14:43:07Z</time>
      </trkpt>
      <trkpt lat="45.2136" lon="3.17257">
        <ele>798.03</ele>
        <time>2024-12-01T14:43:21Z</time>
      </trkpt>
      <trkpt lat="45.2136" lon="3.17258">
        <ele>797.55</ele>
        <time>2024-12-01T14:43:41Z</time>
      </trkpt>
      <trkpt lat="45.21364" lon="3.17254">
        <ele>798.51</ele>
        <time>2024-12-01T14:43:54Z</time>
      </trkpt>
      <trkpt lat="45.21366" lon="3.17253">
        <ele>798.99</ele>
        <time>2024-12-01T14:44:11Z</time>
      </trkpt>
      <trkpt lat="45.21367" lon="3.17252">
        <ele>799.95</ele>
        <time>2024-12-01T14:44:26Z</time>
      </trkpt>
      <trkpt lat="45.21368" lon="3.17252">
        <ele>800.44</ele>
        <time>2024-12-01T14:44:41Z</time>
      </trkpt>
      <trkpt lat="45.21368" lon="3.1725">
        <ele>800.44</ele>
        <time>2024-12-01T14:44:52Z</time>
      </trkpt>
      <trkpt lat="45.21367" lon="3.1725">
        <ele>800.44</ele>
        <time>2024-12-01T14:45:14Z</time>
      </trkpt>
      <trkpt lat="45.21367" lon="3.1725">
        <ele>799.95</ele>
        <time>2024-12-01T14:45:36Z</time>
      </trkpt>
      <trkpt lat="45.21367" lon="3.1725">
        <ele>800.44</ele>
        <time>2024-12-01T14:45:56Z</time>
      </trkpt>
      <trkpt lat="45.21368" lon="3.17252">
        <ele>799.95</ele>
        <time>2024-12-01T14:46:12Z</time>
      </trkpt>
      <trkpt lat="45.21373" lon="3.17249">
        <ele>799.95</ele>
        <time>2024-12-01T14:46:24Z</time>
      </trkpt>
      <trkpt lat="45.21377" lon="3.17245">
        <ele>798.99</ele>
        <time>2024-12-01T14:46:30Z</time>
      </trkpt>
      <trkpt lat="45.21386" lon="3.17266">
        <ele>798.03</ele>
        <time>2024-12-01T14:46:47Z</time>
      </trkpt>
      <trkpt lat="45.21387" lon="3.17271">
        <ele>797.55</ele>
        <time>2024-12-01T14:46:50Z</time>
      </trkpt>
      <trkpt lat="45.21403" lon="3.17287">
        <ele>797.55</ele>
        <time>2024-12-01T14:47:08Z</time>
      </trkpt>
      <trkpt lat="45.21421" lon="3.1728">
        <ele>798.03</ele>
        <time>2024-12-01T14:47:26Z</time>
      </trkpt>
      <trkpt lat="45.21423" lon="3.17278">
        <ele>798.03</ele>
        <time>2024-12-01T14:47:38Z</time>
      </trkpt>
      <trkpt lat="45.21424" lon="3.17278">
        <ele>797.07</ele>
        <time>2024-12-01T14:47:50Z</time>
      </trkpt>
      <trkpt lat="45.21426" lon="3.17277">
        <ele>797.07</ele>
        <time>2024-12-01T14:48:05Z</time>
      </trkpt>
      <trkpt lat="45.21449" lon="3.17271">
        <ele>798.03</ele>
        <time>2024-12-01T14:48:25Z</time>
      </trkpt>
      <trkpt lat="45.21475" lon="3.17278">
        <ele>798.99</ele>
        <time>2024-12-01T14:48:47Z</time>
      </trkpt>
      <trkpt lat="45.21504" lon="3.17279">
        <ele>799.47</ele>
        <time>2024-12-01T14:49:08Z</time>
      </trkpt>
      <trkpt lat="45.21534" lon="3.17272">
        <ele>800.92</ele>
        <time>2024-12-01T14:49:32Z</time>
      </trkpt>
      <trkpt lat="45.21557" lon="3.17267">
        <ele>802.36</ele>
        <time>2024-12-01T14:49:50Z</time>
      </trkpt>
      <trkpt lat="45.21585" lon="3.17266">
        <ele>804.28</ele>
        <time>2024-12-01T14:50:12Z</time>
      </trkpt>
      <trkpt lat="45.21608" lon="3.17284">
        <ele>806.2</ele>
        <time>2024-12-01T14:50:32Z</time>
      </trkpt>
      <trkpt lat="45.21625" lon="3.17312">
        <ele>807.64</ele>
        <time>2024-12-01T14:50:52Z</time>
      </trkpt>
      <trkpt lat="45.21639" lon="3.17335">
        <ele>809.57</ele>
        <time>2024-12-01T14:51:10Z</time>
      </trkpt>
      <trkpt lat="45.21641" lon="3.17343">
        <ele>810.05</ele>
        <time>2024-12-01T14:51:15Z</time>
      </trkpt>
      <trkpt lat="45.21652" lon="3.17377">
        <ele>810.05</ele>
        <time>2024-12-01T14:51:35Z</time>
      </trkpt>
      <trkpt lat="45.21664" lon="3.17412">
        <ele>807.64</ele>
        <time>2024-12-01T14:51:55Z</time>
      </trkpt>
      <trkpt lat="45.21675" lon="3.17443">
        <ele>807.16</ele>
        <time>2024-12-01T14:52:14Z</time>
      </trkpt>
      <trkpt lat="45.21686" lon="3.17476">
        <ele>807.64</ele>
        <time>2024-12-01T14:52:34Z</time>
      </trkpt>
      <trkpt lat="45.21706" lon="3.17506">
        <ele>807.16</ele>
        <time>2024-12-01T14:52:55Z</time>
      </trkpt>
      <trkpt lat="45.21727" lon="3.17529">
        <ele>806.68</ele>
        <time>2024-12-01T14:53:15Z</time>
      </trkpt>
      <trkpt lat="45.21755" lon="3.17545">
        <ele>806.68</ele>
        <time>2024-12-01T14:53:38Z</time>
      </trkpt>
      <trkpt lat="45.21782" lon="3.17549">
        <ele>807.64</ele>
        <time>2024-12-01T14:53:59Z</time>
      </trkpt>
      <trkpt lat="45.21811" lon="3.17547">
        <ele>807.64</ele>
        <time>2024-12-01T14:54:19Z</time>
      </trkpt>
      <trkpt lat="45.21837" lon="3.1754">
        <ele>807.16</ele>
        <time>2024-12-01T14:54:40Z</time>
      </trkpt>
      <trkpt lat="45.21868" lon="3.17529">
        <ele>805.24</ele>
        <time>2024-12-01T14:55:04Z</time>
      </trkpt>
      <trkpt lat="45.2189" lon="3.1751">
        <ele>803.32</ele>
        <time>2024-12-01T14:55:24Z</time>
      </trkpt>
      <trkpt lat="45.2191" lon="3.17496">
        <ele>799.47</ele>
        <time>2024-12-01T14:55:40Z</time>
      </trkpt>
      <trkpt lat="45.21936" lon="3.17494">
        <ele>798.99</ele>
        <time>2024-12-01T14:55:59Z</time>
      </trkpt>
      <trkpt lat="45.21968" lon="3.17492">
        <ele>798.51</ele>
        <time>2024-12-01T14:56:22Z</time>
      </trkpt>
      <trkpt lat="45.21995" lon="3.17474">
        <ele>798.03</ele>
        <time>2024-12-01T14:56:43Z</time>
      </trkpt>
      <trkpt lat="45.22013" lon="3.17453">
        <ele>797.55</ele>
        <time>2024-12-01T14:57:00Z</time>
      </trkpt>
      <trkpt lat="45.22041" lon="3.17434">
        <ele>798.99</ele>
        <time>2024-12-01T14:57:23Z</time>
      </trkpt>
      <trkpt lat="45.22066" lon="3.17416">
        <ele>799.47</ele>
        <time>2024-12-01T14:57:43Z</time>
      </trkpt>
      <trkpt lat="45.22083" lon="3.17394">
        <ele>798.99</ele>
        <time>2024-12-01T14:58:02Z</time>
      </trkpt>
      <trkpt lat="45.22106" lon="3.1738">
        <ele>798.51</ele>
        <time>2024-12-01T14:58:21Z</time>
      </trkpt>
      <trkpt lat="45.22136" lon="3.17384">
        <ele>796.59</ele>
        <time>2024-12-01T14:58:43Z</time>
      </trkpt>
      <trkpt lat="45.22166" lon="3.17396">
        <ele>795.63</ele>
        <time>2024-12-01T14:59:06Z</time>
      </trkpt>
      <trkpt lat="45.22194" lon="3.17404">
        <ele>792.74</ele>
        <time>2024-12-01T14:59:27Z</time>
      </trkpt>
      <trkpt lat="45.22222" lon="3.17405">
        <ele>791.3</ele>
        <time>2024-12-01T14:59:47Z</time>
      </trkpt>
      <trkpt lat="45.22252" lon="3.174">
        <ele>790.34</ele>
        <time>2024-12-01T15:00:09Z</time>
      </trkpt>
      <trkpt lat="45.2228" lon="3.17394">
        <ele>789.38</ele>
        <time>2024-12-01T15:00:29Z</time>
      </trkpt>
      <trkpt lat="45.22306" lon="3.17395">
        <ele>787.94</ele>
        <time>2024-12-01T15:00:49Z</time>
      </trkpt>
      <trkpt lat="45.2233" lon="3.17399">
        <ele>787.46</ele>
        <time>2024-12-01T15:01:07Z</time>
      </trkpt>
      <trkpt lat="45.22355" lon="3.17404">
        <ele>786.98</ele>
        <time>2024-12-01T15:01:25Z</time>
      </trkpt>
      <trkpt lat="45.2238" lon="3.17404">
        <ele>788.42</ele>
        <time>2024-12-01T15:01:43Z</time>
      </trkpt>
      <trkpt lat="45.22404" lon="3.17407">
        <ele>788.42</ele>
        <time>2024-12-01T15:02:00Z</time>
      </trkpt>
      <trkpt lat="45.2243" lon="3.17419">
        <ele>787.46</ele>
        <time>2024-12-01T15:02:20Z</time>
      </trkpt>
      <trkpt lat="45.22457" lon="3.17436">
        <ele>783.13</ele>
        <time>2024-12-01T15:02:41Z</time>
      </trkpt>
      <trkpt lat="45.22482" lon="3.17455">
        <ele>779.77</ele>
        <time>2024-12-01T15:03:00Z</time>
      </trkpt>
      <trkpt lat="45.22506" lon="3.17474">
        <ele>780.25</ele>
        <time>2024-12-01T15:03:21Z</time>
      </trkpt>
      <trkpt lat="45.22528" lon="3.1749">
        <ele>780.73</ele>
        <time>2024-12-01T15:03:39Z</time>
      </trkpt>
      <trkpt lat="45.22551" lon="3.17504">
        <ele>779.77</ele>
        <time>2024-12-01T15:03:57Z</time>
      </trkpt>
      <trkpt lat="45.22575" lon="3.17515">
        <ele>781.69</ele>
        <time>2024-12-01T15:04:16Z</time>
      </trkpt>
      <trkpt lat="45.22602" lon="3.1752">
        <ele>783.61</ele>
        <time>2024-12-01T15:04:35Z</time>
      </trkpt>
      <trkpt lat="45.22624" lon="3.17516">
        <ele>783.13</ele>
        <time>2024-12-01T15:04:53Z</time>
      </trkpt>
      <trkpt lat="45.22655" lon="3.17522">
        <ele>782.17</ele>
        <time>2024-12-01T15:05:15Z</time>
      </trkpt>
      <trkpt lat="45.22681" lon="3.17527">
        <ele>783.13</ele>
        <time>2024-12-01T15:05:34Z</time>
      </trkpt>
      <trkpt lat="45.22709" lon="3.17529">
        <ele>783.13</ele>
        <time>2024-12-01T15:05:54Z</time>
      </trkpt>
      <trkpt lat="45.22741" lon="3.17523">
        <ele>781.69</ele>
        <time>2024-12-01T15:06:17Z</time>
      </trkpt>
      <trkpt lat="45.22773" lon="3.17517">
        <ele>780.73</ele>
        <time>2024-12-01T15:06:40Z</time>
      </trkpt>
      <trkpt lat="45.22803" lon="3.17516">
        <ele>778.81</ele>
        <time>2024-12-01T15:07:02Z</time>
      </trkpt>
      <trkpt lat="45.2281" lon="3.17516">
        <ele>778.32</ele>
        <time>2024-12-01T15:07:08Z</time>
      </trkpt>
      <trkpt lat="45.22838" lon="3.17518">
        <ele>776.4</ele>
        <time>2024-12-01T15:07:28Z</time>
      </trkpt>
      <trkpt lat="45.22867" lon="3.17529">
        <ele>771.11</ele>
        <time>2024-12-01T15:07:50Z</time>
      </trkpt>
      <trkpt lat="45.22878" lon="3.17548">
        <ele>767.27</ele>
        <time>2024-12-01T15:08:04Z</time>
      </trkpt>
      <trkpt lat="45.2288" lon="3.17567">
        <ele>763.9</ele>
        <time>2024-12-01T15:08:15Z</time>
      </trkpt>
      <trkpt lat="45.22886" lon="3.17587">
        <ele>763.42</ele>
        <time>2024-12-01T15:08:28Z</time>
      </trkpt>
      <trkpt lat="45.22891" lon="3.17593">
        <ele>763.9</ele>
        <time>2024-12-01T15:08:37Z</time>
      </trkpt>
      <trkpt lat="45.22908" lon="3.17619">
        <ele>764.39</ele>
        <time>2024-12-01T15:08:55Z</time>
      </trkpt>
      <trkpt lat="45.22924" lon="3.1764">
        <ele>762.46</ele>
        <time>2024-12-01T15:09:12Z</time>
      </trkpt>
      <trkpt lat="45.22936" lon="3.1766">
        <ele>762.94</ele>
        <time>2024-12-01T15:09:26Z</time>
      </trkpt>
      <trkpt lat="45.22947" lon="3.17682">
        <ele>759.58</ele>
        <time>2024-12-01T15:09:40Z</time>
      </trkpt>
      <trkpt lat="45.22954" lon="3.17706">
        <ele>756.21</ele>
        <time>2024-12-01T15:09:53Z</time>
      </trkpt>
      <trkpt lat="45.22958" lon="3.17732">
        <ele>752.37</ele>
        <time>2024-12-01T15:10:05Z</time>
      </trkpt>
      <trkpt lat="45.22961" lon="3.17745">
        <ele>749.97</ele>
        <time>2024-12-01T15:10:12Z</time>
      </trkpt>
      <trkpt lat="45.22965" lon="3.17773">
        <ele>745.64</ele>
        <time>2024-12-01T15:10:27Z</time>
      </trkpt>
      <trkpt lat="45.22965" lon="3.178">
        <ele>743.72</ele>
        <time>2024-12-01T15:10:41Z</time>
      </trkpt>
      <trkpt lat="45.2297" lon="3.17829">
        <ele>736.51</ele>
        <time>2024-12-01T15:10:57Z</time>
      </trkpt>
      <trkpt lat="45.22976" lon="3.17858">
        <ele>730.26</ele>
        <time>2024-12-01T15:11:13Z</time>
      </trkpt>
      <trkpt lat="45.22977" lon="3.17862">
        <ele>729.78</ele>
        <time>2024-12-01T15:11:15Z</time>
      </trkpt>
      <trkpt lat="45.22975" lon="3.17889">
        <ele>724.49</ele>
        <time>2024-12-01T15:11:30Z</time>
      </trkpt>
      <trkpt lat="45.22975" lon="3.17894">
        <ele>724.01</ele>
        <time>2024-12-01T15:11:33Z</time>
      </trkpt>
      <trkpt lat="45.22976" lon="3.17898">
        <ele>723.05</ele>
        <time>2024-12-01T15:11:37Z</time>
      </trkpt>
      <trkpt lat="45.22993" lon="3.17886">
        <ele>719.68</ele>
        <time>2024-12-01T15:11:51Z</time>
      </trkpt>
      <trkpt lat="45.23012" lon="3.17869">
        <ele>716.8</ele>
        <time>2024-12-01T15:12:08Z</time>
      </trkpt>
      <trkpt lat="45.2303" lon="3.17852">
        <ele>715.84</ele>
        <time>2024-12-01T15:12:24Z</time>
      </trkpt>
      <trkpt lat="45.2305" lon="3.17832">
        <ele>713.44</ele>
        <time>2024-12-01T15:12:41Z</time>
      </trkpt>
      <trkpt lat="45.23069" lon="3.17823">
        <ele>713.92</ele>
        <time>2024-12-01T15:12:57Z</time>
      </trkpt>
      <trkpt lat="45.23092" lon="3.17832">
        <ele>715.36</ele>
        <time>2024-12-01T15:13:15Z</time>
      </trkpt>
      <trkpt lat="45.23113" lon="3.17838">
        <ele>715.84</ele>
        <time>2024-12-01T15:13:32Z</time>
      </trkpt>
      <trkpt lat="45.23132" lon="3.17844">
        <ele>714.88</ele>
        <time>2024-12-01T15:13:47Z</time>
      </trkpt>
      <trkpt lat="45.23136" lon="3.17844">
        <ele>713.44</ele>
        <time>2024-12-01T15:14:00Z</time>
      </trkpt>
      <trkpt lat="45.23139" lon="3.17841">
        <ele>712.95</ele>
        <time>2024-12-01T15:14:12Z</time>
      </trkpt>
      <trkpt lat="45.23142" lon="3.17842">
        <ele>712.47</ele>
        <time>2024-12-01T15:14:26Z</time>
      </trkpt>
      <trkpt lat="45.23146" lon="3.17846">
        <ele>712.95</ele>
        <time>2024-12-01T15:14:30Z</time>
      </trkpt>
      <trkpt lat="45.23168" lon="3.17847">
        <ele>711.51</ele>
        <time>2024-12-01T15:14:49Z</time>
      </trkpt>
      <trkpt lat="45.23187" lon="3.17845">
        <ele>712.95</ele>
        <time>2024-12-01T15:15:08Z</time>
      </trkpt>
      <trkpt lat="45.23204" lon="3.17842">
        <ele>714.88</ele>
        <time>2024-12-01T15:15:26Z</time>
      </trkpt>
      <trkpt lat="45.23216" lon="3.17839">
        <ele>715.84</ele>
        <time>2024-12-01T15:15:39Z</time>
      </trkpt>
      <trkpt lat="45.23231" lon="3.17836">
        <ele>717.28</ele>
        <time>2024-12-01T15:15:55Z</time>
      </trkpt>
      <trkpt lat="45.23246" lon="3.17834">
        <ele>717.76</ele>
        <time>2024-12-01T15:16:09Z</time>
      </trkpt>
      <trkpt lat="45.2326" lon="3.17832">
        <ele>718.24</ele>
        <time>2024-12-01T15:16:22Z</time>
      </trkpt>
      <trkpt lat="45.23268" lon="3.17829">
        <ele>716.8</ele>
        <time>2024-12-01T15:16:29Z</time>
      </trkpt>
      <trkpt lat="45.23282" lon="3.17824">
        <ele>716.32</ele>
        <time>2024-12-01T15:16:39Z</time>
      </trkpt>
      <trkpt lat="45.23304" lon="3.17818">
        <ele>713.44</ele>
        <time>2024-12-01T15:16:55Z</time>
      </trkpt>
      <trkpt lat="45.2332" lon="3.17823">
        <ele>710.07</ele>
        <time>2024-12-01T15:17:07Z</time>
      </trkpt>
      <trkpt lat="45.23337" lon="3.17839">
        <ele>702.86</ele>
        <time>2024-12-01T15:17:22Z</time>
      </trkpt>
      <trkpt lat="45.23352" lon="3.17861">
        <ele>697.57</ele>
        <time>2024-12-01T15:17:37Z</time>
      </trkpt>
      <trkpt lat="45.23363" lon="3.17877">
        <ele>699.02</ele>
        <time>2024-12-01T15:17:51Z</time>
      </trkpt>
      <trkpt lat="45.23369" lon="3.17883">
        <ele>699.98</ele>
        <time>2024-12-01T15:17:56Z</time>
      </trkpt>
      <trkpt lat="45.23376" lon="3.17899">
        <ele>699.5</ele>
        <time>2024-12-01T15:18:06Z</time>
      </trkpt>
      <trkpt lat="45.23377" lon="3.17905">
        <ele>699.5</ele>
        <time>2024-12-01T15:18:09Z</time>
      </trkpt>
      <trkpt lat="45.2338" lon="3.17911">
        <ele>699.98</ele>
        <time>2024-12-01T15:18:13Z</time>
      </trkpt>
      <trkpt lat="45.23383" lon="3.17915">
        <ele>699.02</ele>
        <time>2024-12-01T15:18:16Z</time>
      </trkpt>
      <trkpt lat="45.23397" lon="3.1793">
        <ele>697.57</ele>
        <time>2024-12-01T15:18:30Z</time>
      </trkpt>
      <trkpt lat="45.23407" lon="3.17939">
        <ele>699.98</ele>
        <time>2024-12-01T15:18:39Z</time>
      </trkpt>
      <trkpt lat="45.23421" lon="3.17944">
        <ele>704.3</ele>
        <time>2024-12-01T15:18:53Z</time>
      </trkpt>
      <trkpt lat="45.23431" lon="3.17947">
        <ele>705.75</ele>
        <time>2024-12-01T15:19:08Z</time>
      </trkpt>
      <trkpt lat="45.23448" lon="3.17947">
        <ele>706.23</ele>
        <time>2024-12-01T15:19:24Z</time>
      </trkpt>
      <trkpt lat="45.23466" lon="3.17947">
        <ele>702.86</ele>
        <time>2024-12-01T15:19:39Z</time>
      </trkpt>
      <trkpt lat="45.23479" lon="3.17949">
        <ele>695.65</ele>
        <time>2024-12-01T15:19:49Z</time>
      </trkpt>
      <trkpt lat="45.23483" lon="3.17952">
        <ele>691.81</ele>
        <time>2024-12-01T15:19:53Z</time>
      </trkpt>
      <trkpt lat="45.23506" lon="3.17963">
        <ele>673.54</ele>
        <time>2024-12-01T15:20:08Z</time>
      </trkpt>
      <trkpt lat="45.23516" lon="3.17969">
        <ele>670.18</ele>
        <time>2024-12-01T15:20:17Z</time>
      </trkpt>
      <trkpt lat="45.23528" lon="3.1798">
        <ele>668.73</ele>
        <time>2024-12-01T15:20:29Z</time>
      </trkpt>
      <trkpt lat="45.23534" lon="3.17989">
        <ele>667.29</ele>
        <time>2024-12-01T15:20:37Z</time>
      </trkpt>
      <trkpt lat="45.2354" lon="3.17994">
        <ele>664.89</ele>
        <time>2024-12-01T15:20:41Z</time>
      </trkpt>
      <trkpt lat="45.23556" lon="3.18009">
        <ele>662.01</ele>
        <time>2024-12-01T15:20:55Z</time>
      </trkpt>
      <trkpt lat="45.23575" lon="3.18022">
        <ele>660.56</ele>
        <time>2024-12-01T15:21:10Z</time>
      </trkpt>
      <trkpt lat="45.23576" lon="3.18023">
        <ele>661.04</ele>
        <time>2024-12-01T15:21:11Z</time>
      </trkpt>
      <trkpt lat="45.23577" lon="3.18025">
        <ele>660.56</ele>
        <time>2024-12-01T15:21:13Z</time>
      </trkpt>
      <trkpt lat="45.23592" lon="3.18036">
        <ele>659.6</ele>
        <time>2024-12-01T15:21:26Z</time>
      </trkpt>
      <trkpt lat="45.23606" lon="3.18051">
        <ele>655.76</ele>
        <time>2024-12-01T15:21:42Z</time>
      </trkpt>
      <trkpt lat="45.23615" lon="3.18063">
        <ele>652.87</ele>
        <time>2024-12-01T15:21:53Z</time>
      </trkpt>
      <trkpt lat="45.2363" lon="3.18079">
        <ele>648.55</ele>
        <time>2024-12-01T15:22:07Z</time>
      </trkpt>
      <trkpt lat="45.23642" lon="3.18095">
        <ele>642.78</ele>
        <time>2024-12-01T15:22:20Z</time>
      </trkpt>
      <trkpt lat="45.23648" lon="3.18097">
        <ele>644.7</ele>
        <time>2024-12-01T15:22:26Z</time>
      </trkpt>
      <trkpt lat="45.23664" lon="3.18108">
        <ele>644.7</ele>
        <time>2024-12-01T15:22:41Z</time>
      </trkpt>
      <trkpt lat="45.23673" lon="3.18117">
        <ele>641.82</ele>
        <time>2024-12-01T15:22:52Z</time>
      </trkpt>
      <trkpt lat="45.23689" lon="3.18133">
        <ele>637.49</ele>
        <time>2024-12-01T15:23:07Z</time>
      </trkpt>
      <trkpt lat="45.23697" lon="3.18143">
        <ele>633.65</ele>
        <time>2024-12-01T15:23:15Z</time>
      </trkpt>
      <trkpt lat="45.23711" lon="3.18156">
        <ele>627.88</ele>
        <time>2024-12-01T15:23:27Z</time>
      </trkpt>
      <trkpt lat="45.23728" lon="3.18168">
        <ele>630.28</ele>
        <time>2024-12-01T15:23:42Z</time>
      </trkpt>
      <trkpt lat="45.23741" lon="3.18184">
        <ele>629.8</ele>
        <time>2024-12-01T15:23:55Z</time>
      </trkpt>
      <trkpt lat="45.23761" lon="3.182">
        <ele>625.96</ele>
        <time>2024-12-01T15:24:10Z</time>
      </trkpt>
      <trkpt lat="45.23776" lon="3.18216">
        <ele>625.96</ele>
        <time>2024-12-01T15:24:25Z</time>
      </trkpt>
      <trkpt lat="45.23795" lon="3.18235">
        <ele>620.67</ele>
        <time>2024-12-01T15:24:41Z</time>
      </trkpt>
      <trkpt lat="45.23806" lon="3.18244">
        <ele>617.78</ele>
        <time>2024-12-01T15:24:51Z</time>
      </trkpt>
      <trkpt lat="45.23815" lon="3.18254">
        <ele>616.34</ele>
        <time>2024-12-01T15:24:59Z</time>
      </trkpt>
      <trkpt lat="45.23821" lon="3.18262">
        <ele>613.46</ele>
        <time>2024-12-01T15:25:05Z</time>
      </trkpt>
      <trkpt lat="45.23829" lon="3.18272">
        <ele>610.09</ele>
        <time>2024-12-01T15:25:12Z</time>
      </trkpt>
      <trkpt lat="45.23845" lon="3.1829">
        <ele>607.21</ele>
        <time>2024-12-01T15:25:27Z</time>
      </trkpt>
      <trkpt lat="45.23859" lon="3.18306">
        <ele>605.77</ele>
        <time>2024-12-01T15:25:41Z</time>
      </trkpt>
      <trkpt lat="45.23873" lon="3.18323">
        <ele>606.25</ele>
        <time>2024-12-01T15:25:56Z</time>
      </trkpt>
      <trkpt lat="45.23884" lon="3.18339">
        <ele>603.85</ele>
        <time>2024-12-01T15:26:08Z</time>
      </trkpt>
      <trkpt lat="45.239" lon="3.18351">
        <ele>601.44</ele>
        <time>2024-12-01T15:26:21Z</time>
      </trkpt>
      <trkpt lat="45.23918" lon="3.18368">
        <ele>598.56</ele>
        <time>2024-12-01T15:26:38Z</time>
      </trkpt>
      <trkpt lat="45.23938" lon="3.18377">
        <ele>596.64</ele>
        <time>2024-12-01T15:26:55Z</time>
      </trkpt>
      <trkpt lat="45.23961" lon="3.18389">
        <ele>591.83</ele>
        <time>2024-12-01T15:27:13Z</time>
      </trkpt>
      <trkpt lat="45.23979" lon="3.18397">
        <ele>587.02</ele>
        <time>2024-12-01T15:27:27Z</time>
      </trkpt>
      <trkpt lat="45.24003" lon="3.18408">
        <ele>583.66</ele>
        <time>2024-12-01T15:27:46Z</time>
      </trkpt>
      <trkpt lat="45.24025" lon="3.18413">
        <ele>585.58</ele>
        <time>2024-12-01T15:28:04Z</time>
      </trkpt>
      <trkpt lat="45.24047" lon="3.18424">
        <ele>577.41</ele>
        <time>2024-12-01T15:28:21Z</time>
      </trkpt>
      <trkpt lat="45.2406" lon="3.18434">
        <ele>575.49</ele>
        <time>2024-12-01T15:28:34Z</time>
      </trkpt>
      <trkpt lat="45.24084" lon="3.18449">
        <ele>573.08</ele>
        <time>2024-12-01T15:28:52Z</time>
      </trkpt>
      <trkpt lat="45.24106" lon="3.18455">
        <ele>569.24</ele>
        <time>2024-12-01T15:29:10Z</time>
      </trkpt>
      <trkpt lat="45.24126" lon="3.18466">
        <ele>566.83</ele>
        <time>2024-12-01T15:29:27Z</time>
      </trkpt>
      <trkpt lat="45.24153" lon="3.18477">
        <ele>564.43</ele>
        <time>2024-12-01T15:29:48Z</time>
      </trkpt>
      <trkpt lat="45.24183" lon="3.18492">
        <ele>560.59</ele>
        <time>2024-12-01T15:30:10Z</time>
      </trkpt>
      <trkpt lat="45.24213" lon="3.18505">
        <ele>556.26</ele>
        <time>2024-12-01T15:30:31Z</time>
      </trkpt>
      <trkpt lat="45.24239" lon="3.18527">
        <ele>555.78</ele>
        <time>2024-12-01T15:30:53Z</time>
      </trkpt>
      <trkpt lat="45.24264" lon="3.18544">
        <ele>557.22</ele>
        <time>2024-12-01T15:31:13Z</time>
      </trkpt>
      <trkpt lat="45.24291" lon="3.18575">
        <ele>556.74</ele>
        <time>2024-12-01T15:31:38Z</time>
      </trkpt>
      <trkpt lat="45.24312" lon="3.18604">
        <ele>555.3</ele>
        <time>2024-12-01T15:31:59Z</time>
      </trkpt>
      <trkpt lat="45.24327" lon="3.18625">
        <ele>553.86</ele>
        <time>2024-12-01T15:32:18Z</time>
      </trkpt>
      <trkpt lat="45.2433" lon="3.18623">
        <ele>553.86</ele>
        <time>2024-12-01T15:32:31Z</time>
      </trkpt>
      <trkpt lat="45.24331" lon="3.1862">
        <ele>553.38</ele>
        <time>2024-12-01T15:32:45Z</time>
      </trkpt>
      <trkpt lat="45.24331" lon="3.18619">
        <ele>552.9</ele>
        <time>2024-12-01T15:33:00Z</time>
      </trkpt>
      <trkpt lat="45.24333" lon="3.18618">
        <ele>550.97</ele>
        <time>2024-12-01T15:33:15Z</time>
      </trkpt>
      <trkpt lat="45.24333" lon="3.18616">
        <ele>551.93</ele>
        <time>2024-12-01T15:33:34Z</time>
      </trkpt>
      <trkpt lat="45.24332" lon="3.18619">
        <ele>551.45</ele>
        <time>2024-12-01T15:34:02Z</time>
      </trkpt>
      <trkpt lat="45.24335" lon="3.18617">
        <ele>551.93</ele>
        <time>2024-12-01T15:34:06Z</time>
      </trkpt>
      <trkpt lat="45.24349" lon="3.18606">
        <ele>554.34</ele>
        <time>2024-12-01T15:34:23Z</time>
      </trkpt>
      <trkpt lat="45.24353" lon="3.18607">
        <ele>554.82</ele>
        <time>2024-12-01T15:34:27Z</time>
      </trkpt>
      <trkpt lat="45.24356" lon="3.18612">
        <ele>555.78</ele>
        <time>2024-12-01T15:34:32Z</time>
      </trkpt>
      <trkpt lat="45.2437" lon="3.18631">
        <ele>559.14</ele>
        <time>2024-12-01T15:34:50Z</time>
      </trkpt>
      <trkpt lat="45.24392" lon="3.18648">
        <ele>561.07</ele>
        <time>2024-12-01T15:35:09Z</time>
      </trkpt>
      <trkpt lat="45.24406" lon="3.18654">
        <ele>559.62</ele>
        <time>2024-12-01T15:35:20Z</time>
      </trkpt>
      <trkpt lat="45.24432" lon="3.18649">
        <ele>556.74</ele>
        <time>2024-12-01T15:35:39Z</time>
      </trkpt>
      <trkpt lat="45.24453" lon="3.18638">
        <ele>559.14</ele>
        <time>2024-12-01T15:35:57Z</time>
      </trkpt>
      <trkpt lat="45.24476" lon="3.18634">
        <ele>560.59</ele>
        <time>2024-12-01T15:36:16Z</time>
      </trkpt>
      <trkpt lat="45.2449" lon="3.18657">
        <ele>561.07</ele>
        <time>2024-12-01T15:36:36Z</time>
      </trkpt>
      <trkpt lat="45.24493" lon="3.18667">
        <ele>561.55</ele>
        <time>2024-12-01T15:36:43Z</time>
      </trkpt>
      <trkpt lat="45.2451" lon="3.18693">
        <ele>560.59</ele>
        <time>2024-12-01T15:37:03Z</time>
      </trkpt>
      <trkpt lat="45.24525" lon="3.18713">
        <ele>559.62</ele>
        <time>2024-12-01T15:37:18Z</time>
      </trkpt>
      <trkpt lat="45.2454" lon="3.18733">
        <ele>561.07</ele>
        <time>2024-12-01T15:37:36Z</time>
      </trkpt>
      <trkpt lat="45.24553" lon="3.18747">
        <ele>562.99</ele>
        <time>2024-12-01T15:37:51Z</time>
      </trkpt>
      <trkpt lat="45.24579" lon="3.1876">
        <ele>563.47</ele>
        <time>2024-12-01T15:38:09Z</time>
      </trkpt>
      <trkpt lat="45.24605" lon="3.18769">
        <ele>565.39</ele>
        <time>2024-12-01T15:38:27Z</time>
      </trkpt>
      <trkpt lat="45.24623" lon="3.18774">
        <ele>564.91</ele>
        <time>2024-12-01T15:38:41Z</time>
      </trkpt>
      <trkpt lat="45.24634" lon="3.188">
        <ele>558.18</ele>
        <time>2024-12-01T15:39:00Z</time>
      </trkpt>
      <trkpt lat="45.24638" lon="3.18833">
        <ele>553.38</ele>
        <time>2024-12-01T15:39:17Z</time>
      </trkpt>
      <trkpt lat="45.2464" lon="3.18874">
        <ele>549.53</ele>
        <time>2024-12-01T15:39:39Z</time>
      </trkpt>
      <trkpt lat="45.24642" lon="3.18892">
        <ele>547.13</ele>
        <time>2024-12-01T15:39:51Z</time>
      </trkpt>
      <trkpt lat="45.24641" lon="3.18922">
        <ele>547.13</ele>
        <time>2024-12-01T15:40:08Z</time>
      </trkpt>
      <trkpt lat="45.2464" lon="3.18951">
        <ele>548.09</ele>
        <time>2024-12-01T15:40:24Z</time>
      </trkpt>
      <trkpt lat="45.24639" lon="3.18993">
        <ele>548.57</ele>
        <time>2024-12-01T15:40:46Z</time>
      </trkpt>
      <trkpt lat="45.24638" lon="3.1902">
        <ele>548.57</ele>
        <time>2024-12-01T15:41:01Z</time>
      </trkpt>
      <trkpt lat="45.24638" lon="3.19053">
        <ele>551.45</ele>
        <time>2024-12-01T15:41:18Z</time>
      </trkpt>
      <trkpt lat="45.2464" lon="3.19087">
        <ele>551.93</ele>
        <time>2024-12-01T15:41:36Z</time>
      </trkpt>
      <trkpt lat="45.24644" lon="3.19125">
        <ele>550.01</ele>
        <time>2024-12-01T15:41:56Z</time>
      </trkpt>
      <trkpt lat="45.2465" lon="3.19157">
        <ele>550.49</ele>
        <time>2024-12-01T15:42:12Z</time>
      </trkpt>
      <trkpt lat="45.24654" lon="3.19191">
        <ele>550.01</ele>
        <time>2024-12-01T15:42:30Z</time>
      </trkpt>
      <trkpt lat="45.24659" lon="3.19226">
        <ele>549.05</ele>
        <time>2024-12-01T15:42:49Z</time>
      </trkpt>
      <trkpt lat="45.24669" lon="3.19253">
        <ele>550.49</ele>
        <time>2024-12-01T15:43:07Z</time>
      </trkpt>
      <trkpt lat="45.24689" lon="3.19282">
        <ele>552.41</ele>
        <time>2024-12-01T15:43:29Z</time>
      </trkpt>
      <trkpt lat="45.24709" lon="3.19305">
        <ele>553.86</ele>
        <time>2024-12-01T15:43:49Z</time>
      </trkpt>
      <trkpt lat="45.24728" lon="3.19322">
        <ele>553.38</ele>
        <time>2024-12-01T15:44:07Z</time>
      </trkpt>
      <trkpt lat="45.24752" lon="3.19341">
        <ele>554.82</ele>
        <time>2024-12-01T15:44:27Z</time>
      </trkpt>
      <trkpt lat="45.2478" lon="3.19355">
        <ele>558.18</ele>
        <time>2024-12-01T15:44:48Z</time>
      </trkpt>
      <trkpt lat="45.2481" lon="3.19376">
        <ele>554.82</ele>
        <time>2024-12-01T15:45:12Z</time>
      </trkpt>
      <trkpt lat="45.24833" lon="3.19396">
        <ele>555.78</ele>
        <time>2024-12-01T15:45:32Z</time>
      </trkpt>
      <trkpt lat="45.24858" lon="3.19418">
        <ele>559.62</ele>
        <time>2024-12-01T15:45:54Z</time>
      </trkpt>
      <trkpt lat="45.24878" lon="3.19435">
        <ele>562.03</ele>
        <time>2024-12-01T15:46:13Z</time>
      </trkpt>
      <trkpt lat="45.24901" lon="3.19455">
        <ele>564.43</ele>
        <time>2024-12-01T15:46:33Z</time>
      </trkpt>
      <trkpt lat="45.24925" lon="3.19477">
        <ele>568.76</ele>
        <time>2024-12-01T15:46:54Z</time>
      </trkpt>
      <trkpt lat="45.24954" lon="3.19494">
        <ele>563.47</ele>
        <time>2024-12-01T15:47:16Z</time>
      </trkpt>
      <trkpt lat="45.24978" lon="3.19516">
        <ele>560.11</ele>
        <time>2024-12-01T15:47:36Z</time>
      </trkpt>
      <trkpt lat="45.25005" lon="3.19533">
        <ele>554.34</ele>
        <time>2024-12-01T15:47:57Z</time>
      </trkpt>
      <trkpt lat="45.25033" lon="3.19548">
        <ele>550.97</ele>
        <time>2024-12-01T15:48:18Z</time>
      </trkpt>
      <trkpt lat="45.25054" lon="3.19558">
        <ele>550.49</ele>
        <time>2024-12-01T15:48:35Z</time>
      </trkpt>
      <trkpt lat="45.25078" lon="3.19563">
        <ele>550.97</ele>
        <time>2024-12-01T15:48:55Z</time>
      </trkpt>
      <trkpt lat="45.25088" lon="3.1956">
        <ele>550.49</ele>
        <time>2024-12-01T15:49:04Z</time>
      </trkpt>
      <trkpt lat="45.25089" lon="3.19554">
        <ele>549.53</ele>
        <time>2024-12-01T15:49:08Z</time>
      </trkpt>
      <trkpt lat="45.25089" lon="3.19523">
        <ele>549.53</ele>
        <time>2024-12-01T15:49:26Z</time>
      </trkpt>
      <trkpt lat="45.25085" lon="3.19484">
        <ele>548.09</ele>
        <time>2024-12-01T15:49:47Z</time>
      </trkpt>
      <trkpt lat="45.25083" lon="3.19457">
        <ele>548.09</ele>
        <time>2024-12-01T15:50:03Z</time>
      </trkpt>
      <trkpt lat="45.25087" lon="3.19454">
        <ele>547.61</ele>
        <time>2024-12-01T15:50:07Z</time>
      </trkpt>
      <trkpt lat="45.25104" lon="3.19455">
        <ele>544.24</ele>
        <time>2024-12-01T15:50:22Z</time>
      </trkpt>
      <trkpt lat="45.25109" lon="3.19456">
        <ele>543.76</ele>
        <time>2024-12-01T15:50:26Z</time>
      </trkpt>
      <trkpt lat="45.25115" lon="3.19457">
        <ele>546.65</ele>
        <time>2024-12-01T15:50:31Z</time>
      </trkpt>
      <trkpt lat="45.25128" lon="3.19459">
        <ele>550.49</ele>
        <time>2024-12-01T15:50:44Z</time>
      </trkpt>
      <trkpt lat="45.25138" lon="3.19464">
        <ele>551.45</ele>
        <time>2024-12-01T15:50:53Z</time>
      </trkpt>
      <trkpt lat="45.25144" lon="3.19467">
        <ele>551.93</ele>
        <time>2024-12-01T15:50:57Z</time>
      </trkpt>
      <trkpt lat="45.25168" lon="3.19483">
        <ele>547.61</ele>
        <time>2024-12-01T15:51:18Z</time>
      </trkpt>
      <trkpt lat="45.25169" lon="3.19491">
        <ele>547.13</ele>
        <time>2024-12-01T15:51:23Z</time>
      </trkpt>
      <trkpt lat="45.25163" lon="3.19526">
        <ele>545.2</ele>
        <time>2024-12-01T15:51:43Z</time>
      </trkpt>
      <trkpt lat="45.25159" lon="3.1956">
        <ele>544.72</ele>
        <time>2024-12-01T15:52:01Z</time>
      </trkpt>
      <trkpt lat="45.25154" lon="3.19596">
        <ele>544.72</ele>
        <time>2024-12-01T15:52:21Z</time>
      </trkpt>
      <trkpt lat="45.25154" lon="3.19605">
        <ele>545.2</ele>
        <time>2024-12-01T15:52:32Z</time>
      </trkpt>
      <trkpt lat="45.25153" lon="3.19625">
        <ele>544.24</ele>
        <time>2024-12-01T15:52:45Z</time>
      </trkpt>
      <trkpt lat="45.2515" lon="3.19652">
        <ele>544.24</ele>
        <time>2024-12-01T15:53:01Z</time>
      </trkpt>
      <trkpt lat="45.2515" lon="3.19681">
        <ele>545.69</ele>
        <time>2024-12-01T15:53:20Z</time>
      </trkpt>
      <trkpt lat="45.25156" lon="3.19686">
        <ele>545.69</ele>
        <time>2024-12-01T15:53:27Z</time>
      </trkpt>
      <trkpt lat="45.2516" lon="3.19689">
        <ele>547.61</ele>
        <time>2024-12-01T15:53:31Z</time>
      </trkpt>
      <trkpt lat="45.25171" lon="3.197">
        <ele>554.82</ele>
        <time>2024-12-01T15:53:44Z</time>
      </trkpt>
      <trkpt lat="45.2519" lon="3.197">
        <ele>556.74</ele>
        <time>2024-12-01T15:54:00Z</time>
      </trkpt>
      <trkpt lat="45.25212" lon="3.19698">
        <ele>557.22</ele>
        <time>2024-12-01T15:54:16Z</time>
      </trkpt>
      <trkpt lat="45.25234" lon="3.19701">
        <ele>554.82</ele>
        <time>2024-12-01T15:54:33Z</time>
      </trkpt>
      <trkpt lat="45.2525" lon="3.19701">
        <ele>552.9</ele>
        <time>2024-12-01T15:54:45Z</time>
      </trkpt>
      <trkpt lat="45.25265" lon="3.19681">
        <ele>550.01</ele>
        <time>2024-12-01T15:55:01Z</time>
      </trkpt>
      <trkpt lat="45.25272" lon="3.19673">
        <ele>548.57</ele>
        <time>2024-12-01T15:55:08Z</time>
      </trkpt>
      <trkpt lat="45.25275" lon="3.1967">
        <ele>548.57</ele>
        <time>2024-12-01T15:55:11Z</time>
      </trkpt>
      <trkpt lat="45.25278" lon="3.19668">
        <ele>547.61</ele>
        <time>2024-12-01T15:55:13Z</time>
      </trkpt>
      <trkpt lat="45.2528" lon="3.19667">
        <ele>547.13</ele>
        <time>2024-12-01T15:55:14Z</time>
      </trkpt>
      <trkpt lat="45.25281" lon="3.19667">
        <ele>547.13</ele>
        <time>2024-12-01T15:55:15Z</time>
      </trkpt>
      <trkpt lat="45.25283" lon="3.19666">
        <ele>546.65</ele>
        <time>2024-12-01T15:55:16Z</time>
      </trkpt>
      <trkpt lat="45.25301" lon="3.19664">
        <ele>543.28</ele>
        <time>2024-12-01T15:55:32Z</time>
      </trkpt>
      <trkpt lat="45.25316" lon="3.19664">
        <ele>540.88</ele>
        <time>2024-12-01T15:55:46Z</time>
      </trkpt>
      <trkpt lat="45.25322" lon="3.19665">
        <ele>541.84</ele>
        <time>2024-12-01T15:55:50Z</time>
      </trkpt>
      <trkpt lat="45.25335" lon="3.19664">
        <ele>543.28</ele>
        <time>2024-12-01T15:56:04Z</time>
      </trkpt>
    </trkseg>
  </trk>
</gpx>